[[{"header":{"parameterUnit":"m.s-1","parameterCategory":1,"la1":30.6,"la2":28.766,"lo1":-90.7593,"lo2":-88.6598,"dy":0.0162,"dx":0.0183,"nx":116,"ny":114,"refTime":"2024-06-07T12:00:00:Z","depth":0,"parameterNumber":2,"parameterNumberName":"U-component_of_WINDS"},"data":[0.0,0.0,0.0,0.0,0.0,0.0,0.0,0.0,0.0,0.0,0.0,0.0,0.0,0.0,0.0,0.0,0.0,0.0,0.0,0.0,0.0,0.0,0.0,0.0,0.0,0.0,0.0,0.0,0.0,0.0,0.0,0.0,0.0,0.0,0.0,0.0,0.0,0.0,0.0,0.0,0.0,0.0,0.0,0.0,0.0,0.0,0.0,0.0,0.0,0.0,0.0,0.0,0.0,0.0,0.0,0.0,0.0,0.0,0.0,0.0,0.0,0.0,0.0,0.0,0.0,0.0,0.0,0.0,0.0,0.0,0.0,0.0,0.0,0.0,0.0,0.0,0.0,0.0,0.0,0.0,0.0,0.0,0.0,0.0,0.0,0.0,0.0,0.0,0.0,0.0,0.0,0.0,0.0,0.0,0.0,0.0,0.0,0.0,0.0,0.0,0.0,0.0,0.0,0.0,0.0,0.0,0.0,0.0,0.0,0.0,0.0,0.0,0.0,0.0,0.0,0.0,0.0,0.0,0.0,0.0,0.0,0.0,0.0,0.0,0.0,0.0,0.0,0.0,0.0,0.0,0.0,0.0,0.0,0.0,0.0,0.0,0.0,0.0,0.0,0.0,0.0,0.0,0.0,0.0,0.0,0.0,0.0,0.0,0.0,0.0,0.0,0.0,0.0,0.0,0.0,0.0,0.0,0.0,0.0,0.0,0.0,0.0,0.0,0.0,0.0,0.0,0.0,0.0,0.0,0.0,0.0,0.0,0.0,0.0,0.0,0.0,0.0,0.0,0.0,0.0,0.0,0.0,0.0,0.0,0.0,0.0,0.0,0.0,0.0,0.0,0.0,0.0,0.0,0.0,0.0,0.0,0.0,0.0,0.0,0.0,0.0,0.0,0.0,0.0,0.0,0.0,0.0,0.0,0.0,0.0,0.0,0.0,0.0,0.0,0.0,0.0,0.0,0.0,0.0,0.0,0.0,0.0,0.0,0.0,0.0,0.0,0.0,0.0,0.0,0.0,0.0,0.0,0.0,0.0,0.0,0.0,0.0,0.0,0.0,0.0,0.0,0.0,0.0,0.0,0.0,0.0,0.0,0.0,0.0,0.0,0.0,0.0,0.0,0.0,0.0,0.0,0.0,0.0,0.0,0.0,0.0,0.0,0.0,0.0,0.0,0.0,0.0,0.0,0.0,0.0,0.0,0.0,0.0,0.0,0.0,0.0,0.0,0.0,0.0,0.0,0.0,0.0,0.0,0.0,0.0,0.0,0.0,0.0,0.0,0.0,0.0,0.0,0.0,0.0,0.0,0.0,0.0,0.0,0.0,0.0,0.0,0.0,0.0,0.0,0.0,0.0,0.0,0.0,0.0,0.0,0.0,0.0,0.0,0.0,0.0,0.0,0.0,0.0,0.0,0.0,0.0,0.0,0.0,0.0,0.0,0.0,0.0,0.0,0.0,0.0,0.0,0.0,0.0,0.0,0.0,0.0,0.0,0.0,0.0,0.0,0.0,0.0,0.0,0.0,0.0,0.0,0.0,0.0,0.0,0.0,0.0,0.0,0.0,0.0,0.0,0.0,0.0,0.0,0.0,0.0,0.0,0.0,0.0,0.0,0.0,0.0,0.0,0.0,0.0,0.0,0.0,0.0,0.0,0.0,0.0,0.0,0.0,0.0,0.0,0.0,0.0,0.0,0.0,0.0,0.0,0.0,0.0,0.0,0.0,0.0,0.0,0.0,0.0,0.0,0.0,0.0,0.0,0.0,0.0,0.0,0.0,0.0,0.0,0.0,0.0,0.0,0.0,0.0,0.0,0.0,0.0,0.0,0.0,0.0,0.0,0.0,0.0,0.0,0.0,0.0,0.0,0.0,0.0,0.0,0.0,0.0,0.0,0.0,0.0,0.0,0.0,0.0,0.0,0.0,0.0,0.0,0.0,0.0,0.0,0.0,0.0,0.0,0.0,0.0,0.0,0.0,0.0,0.0,0.0,0.0,0.0,0.0,0.0,0.0,0.0,0.0,0.0,0.0,0.0,0.0,0.0,0.0,0.0,0.0,0.0,0.0,0.0,0.0,0.0,0.0,0.0,0.0,0.0,0.0,0.0,0.0,0.0,0.0,0.0,0.0,0.0,0.0,0.0,0.0,0.0,0.0,0.0,0.0,0.0,0.0,0.0,0.0,0.0,0.0,0.0,0.0,0.0,0.0,0.0,0.0,0.0,0.0,0.0,0.0,0.0,0.0,0.0,0.0,0.0,0.0,0.0,0.0,0.0,0.0,0.0,0.0,0.0,0.0,0.0,0.0,0.0,0.0,0.0,0.0,0.0,0.0,0.0,0.0,0.0,0.0,0.0,0.0,0.0,0.0,0.0,0.0,0.0,0.0,0.0,0.0,0.0,0.0,0.0,0.0,0.0,0.0,0.0,0.0,0.0,0.0,0.0,0.0,0.0,0.0,0.0,0.0,0.0,0.0,0.0,0.0,0.0,0.0,0.0,0.0,0.0,0.0,0.0,0.0,0.0,0.0,0.0,0.0,0.0,0.0,0.0,0.0,0.0,0.0,0.0,0.0,0.0,0.0,0.0,0.0,0.0,0.0,0.0,0.0,0.0,0.0,0.0,0.0,0.0,0.0,0.0,0.0,0.0,0.0,0.0,0.0,0.0,0.0,0.0,0.0,0.0,0.0,0.0,0.0,0.0,0.0,0.0,0.0,0.0,0.0,0.0,0.0,0.0,0.0,0.0,0.0,0.0,0.0,0.0,0.0,0.0,0.0,0.0,0.0,0.0,0.0,0.0,0.0,0.0,0.0,0.0,0.0,0.0,0.0,0.0,0.0,0.0,0.0,0.0,0.0,0.0,0.0,0.0,0.0,0.0,0.0,0.0,0.0,0.0,0.0,0.0,0.0,0.0,0.0,0.0,0.0,0.0,0.0,0.0,0.0,0.0,0.0,0.0,0.0,0.0,0.0,0.0,0.0,0.0,0.0,0.0,0.0,0.0,0.0,0.0,0.0,0.0,0.0,0.0,0.0,0.0,0.0,0.0,0.0,0.0,0.0,0.0,0.0,0.0,0.0,0.0,0.0,0.0,0.0,0.0,0.0,0.0,0.0,0.0,0.0,0.0,0.0,0.0,0.0,0.0,0.0,0.0,0.0,0.0,0.0,0.0,0.0,0.0,0.0,0.0,0.0,0.0,0.0,0.0,0.0,0.0,0.0,0.0,0.0,0.0,0.0,0.0,0.0,0.0,0.0,0.0,0.0,0.0,0.0,0.0,0.0,0.0,0.0,0.0,0.0,0.0,0.0,0.0,0.0,0.0,0.0,0.0,0.0,0.0,0.0,0.0,0.0,0.0,0.0,0.0,0.0,0.0,0.0,0.0,0.0,0.0,0.0,0.0,0.0,0.0,0.0,0.0,0.0,0.0,0.0,0.0,0.0,0.0,0.0,0.0,0.0,0.0,0.0,0.0,0.0,0.0,0.0,0.0,0.0,0.0,0.0,0.0,0.0,0.0,0.0,0.0,0.0,0.0,0.0,0.0,0.0,0.0,0.0,0.0,0.0,0.0,0.0,0.0,0.0,0.0,0.0,0.0,0.0,0.0,0.0,0.0,0.0,0.0,0.0,0.0,0.0,0.0,0.0,0.0,0.0,0.0,0.0,0.0,0.0,0.0,0.0,0.0,0.0,0.0,0.0,0.0,0.0,0.0,0.0,0.0,0.0,0.0,0.0,0.0,0.0,0.0,0.0,0.0,0.0,0.0,0.0,0.0,0.0,0.0,0.0,0.0,0.0,0.0,0.0,0.0,0.0,0.0,0.0,0.0,0.0,0.0,0.0,0.0,0.0,0.0,0.0,0.0,0.0,0.0,0.0,0.0,0.0,0.0,0.0,0.0,0.0,0.0,0.0,0.0,0.0,0.0,0.0,0.0,0.0,0.0,0.0,0.0,0.0,0.0,0.0,0.0,0.0,0.0,0.0,0.0,0.0,0.0,0.0,0.0,0.0,0.0,0.0,0.0,0.0,0.0,0.0,0.0,0.0,0.0,0.0,0.0,0.0,0.0,0.0,0.0,0.0,0.0,0.0,0.0,0.0,0.0,0.0,0.0,0.0,0.0,0.0,0.0,0.0,0.0,0.0,0.0,0.0,0.0,0.0,0.0,0.0,0.0,0.0,0.0,0.0,0.0,0.0,0.0,0.0,0.0,0.0,0.0,0.0,0.0,0.0,0.0,0.0,0.0,0.0,0.0,0.0,0.0,0.0,0.0,0.0,0.0,0.0,0.0,0.0,0.0,0.0,0.0,0.0,0.0,0.0,0.0,0.0,0.0,0.0,0.0,0.0,0.0,0.0,0.0,0.0,0.0,0.0,0.0,0.0,0.0,0.0,0.0,0.0,0.0,0.0,0.0,0.0,0.0,0.0,0.0,0.0,0.0,0.0,0.0,0.0,0.0,0.0,0.0,0.0,0.0,0.0,0.0,0.0,0.0,0.0,0.0,0.0,0.0,0.0,0.0,0.0,0.0,0.0,0.0,0.0,0.0,0.0,0.0,0.0,0.0,0.0,0.0,0.0,0.0,0.0,0.0,0.0,0.0,0.0,0.0,0.0,0.0,0.0,0.0,0.0,0.0,0.0,0.0,0.0,0.0,0.0,0.0,0.0,0.0,0.0,0.0,0.0,0.0,0.0,0.0,0.0,0.0,0.0,0.0,0.0,0.0,0.0,0.0,0.0,0.0,0.0,0.0,0.0,0.0,0.0,0.0,0.0,0.0,0.0,0.0,0.0,0.0,0.0,0.0,0.0,0.0,0.0,0.0,0.0,0.0,0.0,0.0,0.0,0.0,0.0,0.0,0.0,0.0,0.0,0.0,0.0,0.0,0.0,0.0,0.0,0.0,0.0,0.0,0.0,0.0,0.0,0.0,0.0,0.0,0.0,0.0,0.0,0.0,0.0,0.0,0.0,0.0,0.0,0.0,0.0,0.0,0.0,0.0,0.0,0.0,0.0,0.0,0.0,0.0,0.0,0.0,0.0,0.0,0.0,0.0,0.0,0.0,0.0,0.0,0.0,0.0,0.0,0.0,0.0,0.0,0.0,0.0,0.0,0.0,0.0,0.0,0.0,0.0,0.0,0.0,0.0,0.0,0.0,0.0,0.0,0.0,0.0,0.0,0.0,0.0,0.0,0.0,0.0,0.0,0.0,0.0,0.0,0.0,0.0,0.0,0.0,0.0,0.0,0.0,0.0,0.0,0.0,0.0,0.0,0.0,0.0,0.0,0.0,0.0,0.0,0.0,0.0,0.0,0.0,0.0,0.0,0.0,0.0,0.0,0.0,0.0,0.0,0.0,0.0,0.0,0.0,0.0,0.0,0.0,0.0,0.0,0.0,0.0,0.0,0.0,0.0,0.0,0.0,0.0,0.0,0.0,0.0,0.0,0.0,0.0,0.0,0.0,0.0,0.0,0.0,0.0,0.0,0.0,0.0,0.0,0.0,0.0,0.0,0.0,0.0,0.0,0.0,0.0,0.0,0.0,0.0,0.0,0.0,0.0,0.0,0.0,0.0,0.0,0.0,0.0,0.0,0.0,0.0,0.0,0.0,0.0,0.0,0.0,0.0,0.0,0.0,0.0,0.0,0.0,0.0,0.0,0.0,0.0,0.0,0.0,0.0,0.0,0.0,0.0,0.0,0.0,0.0,0.0,0.0,0.0,0.0,0.0,0.0,0.0,0.0,0.0,0.0,0.0,0.0,0.0,0.0,0.0,0.0,0.0,0.0,0.0,0.0,0.0,0.0,0.0,0.0,0.0,0.0,0.0,0.0,0.0,0.0,0.0,0.0,0.0,0.0,0.0,0.0,0.0,0.0,0.0,0.0,0.0,0.0,0.0,0.0,0.0,0.0,0.0,0.0,0.0,0.0,0.0,0.0,0.0,0.0,0.0,0.0,0.0,0.0,0.0,0.0,0.0,0.0,0.0,0.0,0.0,0.0,0.0,0.0,0.0,0.0,0.0,0.0,0.0,0.0,0.0,0.0,0.0,0.0,0.0,0.0,0.0,0.0,0.0,0.0,0.0,0.0,0.0,0.0,0.0,0.0,0.0,0.0,0.0,0.0,1.2345,1.0473,0.0,0.0,0.0,0.0,0.0,0.0,0.0,0.0,0.0,0.0,0.0,0.0,0.0,0.0,0.0,0.0,0.0,0.0,0.0,0.0,0.0,0.0,0.0,0.6829,0.6723,0.6526,0.6586,0.6509,0.618,0.0,0.0,0.0,0.0,0.0,0.5802,0.5736,0.5974,0.6527,0.6706,0.7199,0.7995,0.7616,0.7006,0.6213,0.0,0.0,0.0,0.0,0.0,0.0,0.0,0.0,0.0,0.0,0.0,0.0,0.0,0.0,0.0,0.0,0.0,0.0,0.0,0.0,0.0,0.0,0.0,0.0,0.0,0.0,0.0,0.0,0.0,0.0,0.0,0.0,0.0,0.0,0.0,0.0,0.0,0.0,0.0,0.0,0.0,0.0,0.0,0.0,0.0,0.0,0.0,0.0,0.0,0.0,0.0,0.0,0.0,0.0,0.0,0.0,0.0,0.0,0.0,0.0,0.0,0.0,0.0,0.0,0.0,0.0,0.0,0.0,0.0,0.0,1.4731,1.3239,0.0,0.0,0.0,0.0,0.0,0.0,0.0,0.0,0.0,0.0,0.0,0.0,0.0,0.0,0.0,0.0,0.0,0.0,0.0,0.0,0.0,0.7028,0.7095,0.698,0.685,0.6696,0.6811,0.6684,0.6174,0.6239,0.0,0.0,0.0,0.5835,0.5914,0.5752,0.6212,0.7317,0.7494,0.8317,0.972,0.9568,0.8825,0.758,0.6839,0.0,0.0,0.0,0.0,0.0,0.0,0.0,0.0,0.0,0.0,0.0,0.0,0.0,0.0,0.0,0.0,0.0,0.0,0.0,0.0,0.0,0.0,0.0,0.0,0.0,0.0,0.0,0.0,0.0,0.0,0.0,0.0,0.0,0.0,0.0,0.0,0.0,0.0,0.0,0.0,0.0,0.0,0.0,0.0,0.0,0.0,0.0,0.0,0.0,0.0,0.0,0.0,0.0,0.0,0.0,0.0,0.0,0.0,0.0,0.0,0.0,0.0,0.0,1.7742,1.8012,1.7862,1.7839,1.8414,1.9321,1.7198,1.6431,1.6559,1.4024,0.0,0.0,0.0,0.0,0.0,0.0,0.0,0.0,0.0,0.0,0.0,0.0,0.0,0.0,0.0,0.0,0.0,0.0,0.0,0.7139,0.7484,0.7652,0.7755,0.7784,0.7972,0.768,0.6749,0.6716,0.0,0.0,0.5811,0.5991,0.6399,0.6389,0.6848,0.7809,0.9193,1.0387,1.1379,1.1188,1.0981,1.0726,0.9193,0.855,0.8519,0.0,0.0,0.0,0.0,0.0,0.0,0.0,0.0,0.0,0.0,0.0,0.0,0.0,0.0,0.0,0.0,0.0,0.0,0.0,0.0,0.0,0.0,0.0,0.0,0.0,0.0,0.0,0.0,0.0,0.0,0.0,0.0,0.0,0.0,0.0,0.0,0.0,0.0,0.0,0.0,0.0,1.2782,1.4704,0.0,0.0,0.0,0.0,0.0,0.0,0.0,0.0,0.0,0.0,0.0,0.0,0.0,1.7586,1.8531,2.0082,2.0604,2.0118,2.222,2.2323,2.0578,2.0974,2.0917,2.046,2.0161,0.0,1.6946,1.5459,0.0,0.0,0.0,0.0,0.0,0.0,0.0,0.0,0.0,0.0,0.0,0.0,0.0,0.0,0.0,0.0,0.0,0.0,0.0,0.0,0.0,0.8472,0.8891,0.8845,0.9095,0.8845,0.7875,0.7459,0.6928,0.6222,0.619,0.6299,0.6498,0.6944,0.791,0.942,1.0983,1.2016,1.2475,1.2392,1.2383,1.2368,1.1368,1.0589,0.9921,0.8489,0.0,0.0,0.0,0.0,0.0,0.0,0.0,0.0,0.0,0.0,0.0,0.0,0.0,0.0,0.0,0.0,0.0,0.0,0.0,0.0,0.0,0.0,0.0,0.0,0.0,0.0,0.0,0.0,0.0,0.0,0.0,0.0,0.0,0.0,0.0,0.0,0.0,0.0,0.0,1.1522,1.3698,1.4472,1.4196,1.3619,0.0,0.0,0.0,0.0,0.0,0.0,0.0,0.0,0.0,1.989,2.0917,2.156,2.1827,2.3008,2.3154,2.235,2.328,2.3169,2.2158,2.2109,2.1896,2.1559,2.1111,1.9654,1.7568,1.6268,1.3876,1.0944,0.0,0.0,0.0,0.0,0.8107,0.7991,0.0,0.0,0.0,0.0,0.0,0.0,0.0,0.0,0.0,0.0,0.0,0.0,0.8422,0.929,0.9896,1.0029,1.0198,0.9883,0.892,0.8282,0.761,0.6892,0.6739,0.6793,0.7034,0.8104,0.9509,1.1179,1.2365,1.3053,1.3273,1.3172,1.314,1.3174,1.2755,1.2069,1.1186,0.9696,0.894,0.0,0.0,0.0,0.0,0.0,0.0,0.0,0.0,0.0,0.0,0.0,0.0,0.0,0.0,0.0,0.0,0.0,0.0,0.0,0.0,0.0,0.0,0.0,0.0,0.0,0.0,0.0,0.0,0.0,0.0,0.0,0.0,0.0,0.0,0.0,0.0,0.0,0.0,1.3135,1.4943,1.4818,1.5614,1.5591,0.0,0.0,0.0,0.0,0.0,0.0,1.9575,2.0023,2.1016,2.2681,2.3981,2.4533,2.4232,2.463,2.444,2.3601,2.3211,2.2989,2.2777,2.2249,2.1995,2.1941,2.1024,1.9654,1.7952,1.6899,1.4737,1.1953,1.0622,0.9492,0.8675,0.9144,0.9158,0.9213,0.0,0.0,0.0,0.0,0.0,0.0,0.0,0.0,0.0,0.0,0.0,0.8432,0.9587,1.0039,1.0599,1.1412,1.1282,1.0684,0.0,0.9108,0.8534,0.7854,0.7405,0.7578,0.847,1.0342,1.179,1.2781,1.2988,1.3317,1.3755,1.3379,1.3188,1.3194,1.2832,1.2657,1.2512,1.1164,1.0214,0.952,0.0,0.0,0.0,0.0,0.0,0.0,0.0,0.0,0.0,0.0,0.0,0.0,0.0,0.0,0.0,0.0,0.0,0.0,0.0,0.0,0.0,0.0,0.0,0.0,0.0,0.0,0.0,0.0,0.0,0.0,0.0,0.0,0.0,0.0,0.0,0.0,0.0,0.0,0.0,1.8035,1.966,0.0,0.0,0.0,0.0,1.805,1.7902,1.9136,2.226,2.2422,2.349,2.5809,2.5177,2.4824,2.4867,2.4094,2.3649,2.3597,2.2732,2.2314,2.2285,2.1511,2.1148,2.1093,1.9859,1.8789,1.7864,1.7615,1.5434,1.2247,1.1849,1.0692,0.9392,1.0487,1.0711,1.0653,0.0,0.0,0.0,0.0,0.0,0.7069,0.7017,0.705,0.7074,0.7012,0.8259,0.933,0.976,1.1136,1.2157,1.2472,1.2449,1.2078,1.126,1.0164,0.9537,0.9519,0.8893,0.9297,1.0871,1.1896,1.2601,1.302,1.3384,1.3395,1.3079,1.2958,1.273,1.2476,1.2372,1.2298,1.2286,1.1519,1.1044,1.0662,0.9226,0.8075,0.0,0.0,0.0,0.0,0.0,0.0,0.0,0.0,0.0,0.0,0.0,0.0,0.0,0.0,0.0,0.0,0.0,0.0,0.0,0.0,0.0,0.0,0.0,0.0,0.0,0.0,0.0,0.0,0.0,0.0,0.0,0.0,0.0,0.0,0.0,0.0,0.0,2.0104,2.1293,0.0,1.9531,1.9874,2.0344,2.0725,2.1471,2.2928,2.5237,2.5087,2.5184,2.5754,2.5716,2.5292,2.4456,2.3825,2.3577,2.3791,2.291,2.2154,2.1466,2.1017,2.0261,1.937,1.8475,1.7476,1.6436,1.6008,1.4855,1.3245,1.251,1.1914,1.1603,1.1786,1.1867,1.177,0.0,0.0,0.0,0.0,0.7074,0.7079,0.7013,0.7055,0.7149,0.729,0.8762,0.9929,1.0238,1.1891,1.3011,1.3032,1.307,1.2825,1.2128,1.1049,1.0438,1.0531,1.0217,1.0788,1.2398,1.2785,1.3085,1.3326,1.3405,1.3176,1.271,1.2697,1.2554,1.2303,1.245,1.2489,1.2487,1.2082,1.1728,1.1334,1.0164,0.9223,0.8406,0.0,0.0,0.0,0.0,0.0,0.0,0.0,0.0,0.0,0.0,0.0,0.0,0.0,0.0,0.0,0.0,0.0,0.0,0.0,0.0,0.0,0.0,0.0,0.0,0.0,0.0,0.0,0.0,0.0,0.0,0.0,0.0,0.0,0.0,0.0,2.1672,2.1727,2.3338,2.3644,2.1654,2.2559,2.3224,2.311,2.3698,2.4775,2.6519,2.5932,2.5601,2.5788,2.5586,2.5081,2.4295,2.3642,2.3179,2.2894,2.2222,2.1254,1.9972,1.9683,1.8954,1.797,1.7049,1.5995,1.4739,1.392,1.306,1.2201,1.2343,1.2179,1.1877,1.1745,1.1372,1.0876,0.0,0.0,0.0,0.7082,0.7104,0.7079,0.7005,0.7055,0.7297,0.7829,0.9028,1.0181,1.1096,1.2293,1.3051,1.3109,1.3089,1.2785,1.215,1.1653,1.1228,1.0852,1.1318,1.1997,1.2922,1.3062,1.3336,1.3773,1.3051,1.2695,1.2705,1.2702,1.2707,1.2726,1.3139,1.3296,1.3268,1.2882,1.2266,1.1531,1.1081,1.0667,1.016,0.0,0.0,0.0,0.0,0.0,0.0,0.0,0.0,0.0,0.0,0.0,0.0,0.0,0.0,0.0,0.0,0.0,0.0,0.0,0.0,0.0,0.0,0.0,0.0,0.0,0.0,0.0,0.0,0.0,0.0,0.0,0.0,0.0,1.9309,2.1351,2.2914,2.3121,2.5893,2.6796,2.4252,2.5399,2.5956,2.5205,2.439,2.4548,2.5977,2.4886,2.4844,2.6095,2.4669,2.4087,2.4392,2.3472,2.2326,2.0905,2.067,1.9642,1.7927,1.7626,1.7257,1.6752,1.5525,1.4202,1.2787,1.146,1.0098,0.9134,1.1395,1.1386,1.0178,1.0174,0.9266,0.8043,0.0,0.0,0.7,0.703,0.703,0.7,0.6937,0.6982,0.7245,0.7829,0.939,1.0637,1.1149,1.2496,1.3293,1.3129,1.2797,1.252,1.2341,1.1612,1.1375,1.1804,1.2953,1.3584,1.3547,1.3582,1.3402,1.2992,1.3099,1.2992,1.2721,1.3008,1.3148,1.3157,1.3241,1.3296,1.3286,1.3167,1.3002,1.2709,1.1733,1.1008,1.044,0.0,0.0,0.0,0.0,0.0,0.0,0.0,0.0,0.0,0.0,0.0,0.0,0.0,0.0,0.0,0.0,0.0,0.0,0.0,0.0,0.0,0.0,0.0,0.0,0.0,0.0,0.0,0.0,0.0,0.0,0.0,0.0,2.0169,2.0711,2.4018,2.6439,2.6539,2.7448,2.7607,2.64,2.6319,2.6218,2.5791,2.5622,2.5838,2.656,2.5796,2.5263,2.5003,2.4538,2.3567,2.1977,2.1512,2.0719,1.9564,1.9007,1.805,1.6914,1.652,1.5223,1.3216,1.258,1.1475,1.0084,0.9371,0.8805,0.8578,0.9464,0.953,0.9178,0.9012,0.8304,0.7348,0.0,0.6997,0.6997,0.6997,0.6997,0.6989,0.6946,0.6974,0.7317,0.8205,0.9708,1.0918,1.1518,1.2826,1.3522,1.3141,1.2768,1.2407,1.2002,1.1533,1.176,1.2901,1.3531,1.3843,1.3787,1.3512,1.3217,1.2936,1.3023,1.3025,1.2964,1.3351,1.3543,1.3552,1.3727,1.38,1.3791,1.3616,1.3543,1.347,1.259,1.1944,1.142,1.0727,1.0281,0.9973,0.9793,0.9515,0.918,0.9061,0.0,0.0,0.0,0.0,0.0,0.0,0.0,0.0,0.0,0.0,0.0,0.0,0.0,0.0,0.0,0.0,0.0,0.0,0.0,0.0,0.0,0.0,0.0,0.0,2.031,2.2339,2.3016,2.545,2.7466,2.8323,2.8317,2.8048,2.7508,2.7321,2.7053,2.6562,2.627,2.6316,2.6765,2.5569,2.4582,2.3873,2.3336,2.2185,2.0411,1.9918,1.9137,1.7972,1.7395,1.6123,1.4245,1.4045,1.259,1.0217,0.9959,0.8964,0.7491,0.7191,0.6695,0.6284,0.0,0.0,0.0,0.0,0.6241,0.5762,0.0,0.6997,0.6997,0.6997,0.6997,0.6997,0.6997,0.7003,0.7454,0.8728,0.9895,1.0971,1.19,1.304,1.355,1.3042,1.2819,1.2389,0.0,1.1652,1.2404,1.3926,1.3496,1.339,1.3705,1.3105,1.2926,1.324,1.2973,1.302,1.3369,1.3772,1.3956,1.3974,1.4341,1.4515,1.4488,1.4112,1.3956,1.3919,1.3516,1.3139,1.2654,1.1654,1.1271,1.1217,1.0811,1.0454,1.0139,1.0173,0.0,0.0,0.0,0.0,0.0,0.0,0.0,0.0,0.0,0.0,0.0,0.0,0.0,0.0,0.0,0.0,0.0,0.0,0.0,0.0,0.0,0.0,0.0,0.0,2.2857,2.5006,2.5433,2.5902,2.6868,2.8696,2.8643,2.8288,2.7916,2.8167,2.8002,2.7306,2.6412,2.616,2.656,0.0,0.0,0.0,0.0,2.0358,1.9152,1.8576,1.7555,1.6213,1.5619,1.3914,1.1163,1.0962,0.9697,0.7698,0.7698,0.6765,0.516,0.5099,0.4288,0.3429,0.6339,0.6746,0.5586,0.438,0.3919,0.3848,0.0,0.6916,0.6916,0.6916,0.6916,0.6937,0.6997,0.7003,0.7454,0.8728,0.9519,1.0328,1.1267,1.2256,1.2717,1.2395,1.2293,1.227,0.0,0.0,1.3431,1.397,1.399,1.3776,1.3338,1.3218,1.3061,1.2818,1.3378,1.3718,1.3801,1.4194,1.4387,1.4396,1.4478,1.4515,1.4476,1.4423,1.4387,1.4359,1.3937,1.3534,1.3121,1.2591,1.2399,1.2353,1.1935,1.1743,1.1631,1.1429,1.125,1.099,1.0352,0.0,0.0,0.0,0.0,0.0,0.0,0.0,0.0,0.0,0.0,0.0,0.0,0.0,0.0,0.0,0.0,0.0,0.0,0.0,0.0,2.1113,2.3045,2.4616,2.5312,2.5797,2.6492,2.7803,2.8209,2.8346,2.8314,2.8061,2.7765,2.7401,2.6731,2.5948,2.5084,2.3633,2.224,2.1108,2.0219,1.8912,1.7114,1.692,1.6078,1.4399,1.2808,0.0,1.0756,0.9293,0.7631,0.5897,0.5897,0.5031,0.3629,0.362,0.3415,0.3208,0.3841,0.3867,0.3674,0.3344,0.3276,0.3082,0.6908,0.6908,0.6908,0.6908,0.6908,0.6916,0.6997,0.7003,0.7437,0.8679,0.9403,1.0167,1.1096,1.1798,1.2086,1.1789,1.1756,0.0,0.0,1.3328,1.3927,1.4518,1.4323,1.3884,1.3208,1.3271,1.319,1.301,1.3608,1.3992,1.4203,1.4414,1.4515,1.4515,1.4515,1.4515,1.4515,1.4515,1.4515,1.4488,1.4286,1.4084,1.3837,1.3213,1.301,1.2955,1.2542,1.2395,1.2342,1.2016,1.1874,1.1722,1.125,1.0942,1.0548,0.0,0.0,0.0,0.0,0.0,0.0,0.0,0.0,0.0,0.0,0.0,0.0,0.0,0.0,1.6911,0.0,0.0,2.154,2.3251,2.4411,2.5323,2.5894,2.6151,2.6509,2.7089,2.7526,2.7807,2.7807,2.7701,2.7553,2.7399,2.621,2.5056,2.4101,2.2507,2.081,1.9088,1.839,1.7173,1.5443,1.5117,1.4132,1.2553,1.1292,0.9829,0.8294,0.7162,0.5698,0.4031,0.4031,0.3091,0.1546,0.0806,0.0537,0.0536,0.0529,0.1185,0.2042,0.125,0.0987,0.0855,0.6908,0.6908,0.6908,0.6908,0.6908,0.6916,0.6997,0.7003,0.7388,0.8478,0.9112,0.9778,1.0649,1.1064,1.1217,1.1043,1.1401,0.0,1.2935,1.3593,1.4294,1.5073,1.457,1.3973,1.3324,1.3373,1.3417,1.3406,1.3809,1.4176,1.4515,1.4515,1.4515,1.4515,1.4515,1.4515,1.4515,1.4515,1.4515,1.4515,1.4515,1.4515,1.4433,1.369,1.336,1.3241,1.2845,1.2643,1.2533,1.2211,1.2101,1.2051,1.1778,1.1661,1.1398,1.0299,1.0362,0.0,0.0,0.0,0.0,0.0,0.0,0.0,0.0,0.0,1.4746,1.6617,1.8168,1.9553,2.0804,2.2126,2.3574,2.5216,2.5874,2.6251,2.6536,2.6591,2.6591,2.6591,2.7004,2.7288,2.712,2.7187,2.7101,2.6864,2.5132,2.3675,2.2776,2.0986,1.9094,1.7162,1.6198,1.5038,1.3809,1.289,1.1828,1.0565,0.9694,0.803,0.5635,0.476,0.3557,0.2154,0.1884,0.0941,-0.047,-0.1745,-0.2215,-0.2282,-0.2617,-0.1677,-0.0269,-0.1007,-0.1275,-0.1342,0.0,0.6908,0.6908,0.6908,0.6908,0.6916,0.6997,0.7003,0.7241,0.7913,0.8111,0.842,0.9004,0.932,0.9614,0.9948,1.156,1.2686,1.2977,1.4163,1.4945,1.5085,1.4686,1.4253,1.3736,1.3812,1.3834,1.3818,1.424,1.4469,1.4515,1.4515,1.4515,1.4515,1.4515,1.4515,1.4515,1.4515,1.4515,1.4515,1.4515,1.4515,1.446,1.3992,1.3598,1.3241,1.2845,1.2468,1.2156,1.2119,1.2101,1.2051,1.1778,1.1841,1.1847,1.088,0.0,1.0851,0.9941,1.0794,1.2382,1.4149,1.4899,1.6117,0.0,0.0,2.0099,2.1725,2.3085,2.4088,2.4221,2.4986,2.5681,2.5911,2.6243,2.6536,2.6582,2.6591,2.6591,2.6591,2.7242,2.7521,2.6893,2.6694,2.615,2.5,2.3274,2.1595,2.0036,1.8628,1.7162,1.5694,1.3783,1.2405,1.156,0.9959,0.8892,0.8363,0.6696,0.5564,0.4832,0.1945,0.047,0.0202,-0.1007,-0.1678,-0.1879,-0.2416,-0.2618,-0.2819,-0.4426,-0.4894,-0.4424,-0.2684,-0.2013,-0.2148,0.0,0.6874,0.6908,0.6908,0.6908,0.6908,0.6937,0.697,0.719,0.771,0.7872,0.8103,0.8524,0.8658,0.8837,0.9083,1.0837,1.216,1.2676,1.4157,1.5112,1.5311,1.5175,1.4874,1.4457,1.4444,1.438,1.4308,1.4451,1.4515,1.4515,1.4515,1.4515,1.4515,1.4515,1.4515,1.4515,1.4515,1.4515,1.4515,1.4515,1.4515,1.4401,1.3633,1.3213,1.3014,1.2608,1.2269,0.0,0.0,1.1619,1.1603,1.1326,1.1427,1.1493,1.0781,1.1181,0.0,1.3374,1.4157,1.4994,0.0,1.7713,1.8969,2.0709,2.1342,2.197,2.3363,2.462,2.5451,2.517,2.5784,2.6453,0.0,2.6811,2.693,2.693,2.693,2.6848,2.6619,2.7077,2.7047,2.6039,2.5703,2.5068,2.3807,2.1734,2.0093,1.8954,1.7227,1.5479,1.3652,1.2343,1.1021,0.9694,0.8762,0.7629,0.6431,0.4416,0.2945,0.1945,-0.067,-0.1878,-0.1945,-0.342,-0.4023,-0.4091,-0.5099,-0.5505,-0.5573,-0.6309,-0.6646,-0.6512,-0.5571,-0.5235,-0.5302,0.0,0.6824,0.6874,0.6874,0.6891,0.6908,0.6908,0.6967,0.7117,0.7436,0.7579,0.7757,0.8042,0.8197,0.8334,0.845,1.0266,1.167,1.2294,1.3906,1.4971,1.5266,1.5289,1.5153,1.4876,1.4743,1.4677,1.4654,1.4568,1.4515,1.4515,1.4515,1.4515,1.4515,1.4515,1.4515,1.4515,1.4515,1.4515,1.4515,1.4515,1.4382,1.4139,1.3243,1.2653,1.2291,1.1936,1.1712,0.0,0.0,1.0948,1.104,1.0689,1.0906,1.1217,1.0866,1.1464,1.2758,1.5119,1.6132,0.0,1.8425,2.0083,2.1368,2.1626,2.2387,2.3353,2.4326,2.5167,2.5753,2.5738,2.6096,2.6582,2.7095,2.7178,2.7215,2.7381,2.7242,2.7031,2.6637,2.6454,2.5889,2.4556,2.4483,2.3802,2.2229,2.0043,1.8384,1.7415,1.5544,1.3652,1.1809,1.0488,0.9229,0.7897,0.6489,0.5153,0.3886,0.1672,0.0134,-0.0939,-0.2882,-0.4089,-0.4625,-0.5566,-0.5969,-0.6038,-0.7185,-0.7658,-0.766,-0.7791,-0.7791,-0.7791,-0.7791,-0.766,-0.7526,0.0,0.0,0.6807,0.6807,0.6858,0.6908,0.6908,0.6967,0.6989,0.6934,0.698,0.7075,0.7227,0.7708,0.8038,0.8104,1.0137,1.1555,1.1913,1.3492,1.4503,1.4731,1.472,1.4756,1.4806,1.4548,1.4542,1.4802,1.4617,1.4515,1.4515,1.4515,1.4515,1.4515,1.4515,1.4515,1.4515,1.4515,1.4515,1.4515,1.4515,1.4121,1.3484,1.3072,1.2039,1.0844,1.0705,0.0,0.0,0.9869,1.007,1.0536,1.0001,1.0516,0.0,1.1353,1.1625,1.2207,1.3442,0.0,1.7156,1.9469,2.1744,2.3508,2.3969,2.4584,2.5067,2.5304,2.5252,2.5442,2.6372,2.6233,2.6296,2.704,2.7178,2.7372,2.7748,2.7473,2.7031,2.6637,2.5296,2.3853,0.0,2.2968,2.2382,1.9833,1.8016,1.6348,1.4642,1.3193,1.1743,1.029,0.7828,0.6366,0.5969,0.2145,0.0201,0.0134,-0.2011,-0.3084,-0.3151,-0.4625,-0.6305,-0.7922,-0.7591,-0.7459,-0.7457,-0.7925,-0.8058,-0.8125,-0.8456,-0.8587,-0.8587,-0.8587,-0.8123,-0.7526,0.0,0.0,0.0,0.6732,0.6748,0.6782,0.6833,0.6849,0.6829,0.6706,0.7064,0.0,0.0,0.0,0.0,0.0,0.9566,1.0587,1.1514,1.2709,1.3606,1.4072,1.4405,1.4535,1.4475,1.4079,1.4001,1.4264,1.3877,1.3699,1.3708,1.3974,1.4093,1.4112,1.4387,1.4515,1.4515,1.4515,1.4515,1.4458,1.4028,1.3685,1.3316,1.1712,1.0862,1.0355,0.0,0.0,0.9385,0.915,0.9211,0.9414,0.9398,0.0,0.0,1.0852,1.1692,1.2862,1.5171,0.0,1.882,2.1074,2.28,2.4035,2.4167,2.4393,2.4513,2.4333,2.3703,2.3221,2.335,2.3731,2.4365,2.5422,2.6482,2.7407,2.8086,2.7703,2.6861,2.5611,2.4758,0.0,0.0,0.0,0.0,1.868,1.6915,1.5284,1.377,1.1937,0.9684,0.702,0.5417,0.3546,0.1273,-0.0537,-0.161,-0.2145,-0.4089,-0.5631,-0.6771,-0.731,-0.7848,-0.8454,-0.925,-0.9117,-0.8387,-1.0366,-1.0697,-0.9908,-1.0958,-1.1417,-1.1417,-1.1417,-1.1219,-1.0889,0.0,0.0,0.0,0.0,0.0,0.0,0.0,0.0,0.0,0.0,0.0,0.0,0.0,0.0,0.0,0.0,0.0,0.9906,1.0871,1.1747,1.2468,1.3053,1.3433,1.3617,1.3632,1.3236,1.3223,1.3646,1.3259,1.3176,1.3387,1.358,1.37,1.3765,1.3984,1.4075,1.4075,1.4075,1.4017,1.3883,1.3309,1.287,1.2335,1.0682,0.9874,0.0,0.0,0.0,0.8067,0.7964,0.8323,0.8795,0.8797,0.9358,1.0233,1.1218,1.2375,1.3908,1.6694,1.8476,2.002,2.2274,2.3544,2.423,2.4239,2.4028,2.3736,2.3418,2.2252,2.1263,2.1298,2.167,2.2274,2.3361,2.4726,2.5982,2.7023,2.6509,2.5677,2.4819,2.3668,2.2297,0.0,0.0,0.0,1.7194,1.5809,1.4101,1.1925,0.9946,0.7486,0.4485,0.2945,0.1005,-0.1409,-0.2683,-0.3889,-0.516,-0.6303,-0.771,-0.9383,-0.9383,-0.9643,-1.017,-1.1028,-1.0962,-1.0233,-1.2072,-1.2274,-1.1552,-1.2467,-1.2795,-1.2795,-1.2795,-1.3128,-1.3325,0.0,0.0,0.0,0.0,0.0,0.0,0.0,0.0,0.0,0.0,0.0,0.0,0.0,0.0,0.0,0.0,0.0,0.0,1.001,1.0606,1.1176,1.171,1.1881,1.2075,1.2308,1.2078,1.226,1.2898,1.2708,1.2878,1.3356,1.3249,1.3294,1.3421,1.3304,1.3277,1.3296,1.3268,1.3113,1.2822,1.2357,1.16,1.0689,0.9967,0.0,0.0,0.0,0.0,0.676,0.6544,0.0,0.0,0.0,0.0,1.1768,1.2536,1.3711,1.5303,1.7868,1.9389,2.0797,2.3019,2.3821,2.4122,2.4167,2.3459,2.272,2.2467,2.0825,1.9582,0.0,0.0,2.013,2.0945,2.2125,2.3367,2.4794,2.4099,2.365,0.0,0.0,0.0,0.0,0.0,0.0,1.5315,0.0,1.2664,0.9166,0.7291,0.5153,0.2546,0.047,-0.1209,-0.2282,-0.4558,-0.6704,-0.872,-0.8784,-0.9513,-1.0833,-1.0833,-1.1556,-1.2861,-1.2927,-1.2927,-1.2861,-1.2992,-1.2992,-1.2927,-1.2992,-1.3058,-1.3058,-1.2992,-1.3853,-1.4842,0.0,0.0,0.0,0.0,0.0,0.0,0.0,0.0,0.0,0.0,0.0,0.0,0.0,0.0,0.0,0.0,0.0,0.0,0.9321,0.9911,1.0407,1.0743,1.1176,1.1369,1.128,1.1226,1.1262,1.1433,1.1375,1.1417,1.1583,1.1825,1.2128,1.2482,1.2716,1.3029,1.3268,1.2858,1.2635,1.2414,0.0,1.0409,1.0003,0.0,0.0,0.0,0.0,0.0,0.0,0.0,0.0,0.0,0.0,1.2635,1.3566,0.0,0.0,1.705,1.902,2.0303,2.1418,2.2826,2.3059,2.2857,2.2643,2.1784,2.0668,1.9336,1.7709,1.6316,0.0,0.0,0.0,1.9565,2.21,0.0,2.4895,2.4603,0.0,2.2147,0.0,2.0038,1.8527,1.6639,0.0,0.0,1.2529,1.0541,0.7289,0.5895,0.3486,-0.0403,-0.1813,-0.3423,-0.53,-0.7966,-0.9637,-1.0174,-1.1222,-1.1944,-1.2274,-1.2537,-1.28,-1.3255,-1.4567,-1.4367,-1.3325,-1.5424,-1.5559,-1.4446,-1.5494,-1.6084,-1.6278,-1.6014,-1.6278,-1.6742,0.0,0.0,0.0,0.0,0.0,0.0,0.0,0.0,0.0,0.0,0.0,0.0,0.0,0.0,0.0,0.0,0.0,0.0,0.0,0.9052,0.9278,0.9424,0.9666,0.975,0.9632,0.9853,1.0055,1.0249,1.0508,1.0757,1.0999,1.1172,1.1403,1.1672,1.1846,1.1978,1.2047,1.1751,1.1393,0.0,0.0,0.0,0.0,0.0,0.0,0.0,0.0,0.0,0.0,0.0,0.0,1.1984,1.3645,1.4452,1.4985,1.6215,0.0,1.877,2.017,2.133,2.2221,2.2871,2.2633,2.2005,2.1095,2.0003,1.8654,1.6794,1.5298,0.0,1.3306,1.4611,0.0,0.0,0.0,0.0,2.3181,2.2989,2.2348,0.0,2.0318,0.0,1.7371,1.5653,1.3696,0.0,1.0211,0.8419,0.5826,0.362,0.1073,-0.2015,-0.3559,-0.557,-0.8041,-1.0426,-1.1618,-1.1618,-1.2405,-1.3189,-1.3975,-1.4171,-1.4628,-1.5414,-1.6398,-1.6268,-1.5479,-1.706,-1.713,-1.6343,-1.7125,-1.7523,-1.7723,-1.7518,-1.7588,-1.7723,0.0,0.0,0.0,0.0,0.0,0.0,0.0,0.0,0.0,0.0,0.0,0.0,0.0,0.0,0.0,0.0,0.0,0.0,0.0,0.0,0.0,0.8188,0.8086,0.8018,0.8,0.8458,0.8876,0.9286,0.9808,1.0316,1.081,1.0701,1.075,1.0894,1.0774,1.0633,1.0454,1.0332,0.9891,0.9196,0.0,0.0,0.0,0.0,0.0,0.0,0.0,0.0,0.0,0.0,1.2867,1.3101,1.5111,1.5975,1.6477,1.7787,1.9097,2.0226,2.1138,2.2111,2.2886,2.2886,2.2355,2.1373,1.9638,1.8271,1.6807,1.4707,0.0,1.2594,1.2308,1.336,1.4609,1.5619,0.0,2.012,2.0911,2.0815,2.0596,2.0422,1.9444,1.8156,1.6517,1.4614,1.2242,0.9206,0.7683,0.6158,0.4428,0.1274,-0.1409,-0.3421,-0.5501,-0.7843,-1.0502,-1.2208,-1.3124,-1.3124,-1.332,-1.4236,-1.5739,-1.5804,-1.6662,-1.8103,-1.8103,-1.8103,-1.8103,-1.8103,-1.8039,-1.7969,-1.7969,-1.8033,-1.8039,-1.8039,-1.8033,-1.8039,0.0,0.0,0.0,0.0,0.0,0.0,0.0,0.0,0.0,0.0,0.9117,0.9036,0.0,0.0,0.0,0.0,0.0,0.0,0.0,0.0,0.0,0.8125,0.8153,0.8121,0.8,0.8096,0.8314,0.0,0.0,0.0,0.9357,0.9336,0.9522,0.9861,0.9839,0.9978,1.0191,0.949,0.9072,0.8793,0.0,0.0,0.0,0.0,0.0,0.0,0.0,0.0,0.0,0.0,1.3857,1.589,1.8017,1.873,1.8947,2.0051,2.0551,2.085,2.1337,2.183,2.2181,2.2181,2.1503,2.0421,1.8722,1.7364,0.0,0.0,1.2081,1.1403,1.0597,1.1589,1.3382,1.592,1.8095,1.9853,2.0863,2.1243,2.0895,0.0,1.815,1.6915,1.5739,1.3443,0.0,0.0,0.5556,0.3285,0.1813,0.0336,-0.2678,-0.7424,-0.9362,-1.0958,-1.2339,-1.3787,-1.4702,-1.4954,-1.6143,-1.6996,-1.7577,-1.791,-1.8238,-1.8507,-1.8822,0.0,-1.8507,-1.8507,-1.8302,-1.7969,-1.7969,-1.8173,-1.8437,-1.8103,-1.8232,-1.8442,0.0,0.0,0.0,0.0,0.0,0.0,0.0,0.7823,0.8511,0.9875,1.0168,1.0162,0.9942,0.9526,0.0,0.0,0.0,0.0,0.0,0.0,0.0,0.0,0.0,0.7445,0.7384,0.0,0.0,0.0,0.0,0.0,0.0,0.0,0.0,0.0,0.0,0.0,0.0,0.0,0.0,0.0,0.0,0.0,0.0,0.0,0.0,0.0,0.0,0.0,0.0,0.0,1.3129,1.5733,1.8287,1.9217,1.9574,2.0615,2.1,2.1301,2.1875,2.2135,2.2261,2.2261,2.1227,1.9626,1.7165,0.0,0.0,0.0,1.0475,1.0342,0.9959,1.0891,0.0,1.4774,1.6617,1.8188,1.9487,2.015,0.0,1.923,1.7829,1.6387,0.0,1.2181,0.9275,0.6025,0.3486,0.1813,0.1142,-0.2009,-0.5482,-0.9027,-1.1545,-1.3643,-1.5175,-1.656,-1.7789,-1.8848,-1.9515,-1.9668,-1.9367,-1.9571,-1.9392,-1.8886,-1.9014,-1.9386,-1.989,-1.989,-2.0195,-2.0556,-1.9871,-2.0125,-2.0759,-1.9188,-1.913,-1.9763,0.0,0.0,0.0,0.0,0.0,0.0,0.0,0.824,0.9074,1.0334,1.0913,1.107,1.0745,1.0052,0.9422,0.0,0.0,0.0,0.0,0.0,0.0,0.0,0.0,0.0,0.0,0.0,0.0,0.0,0.0,0.0,0.0,0.0,0.0,0.0,0.0,0.0,0.0,0.0,0.0,0.0,0.0,0.0,0.0,0.0,0.0,0.0,0.0,0.0,0.0,0.0,1.1725,1.3878,1.6569,1.8149,1.9162,1.9951,2.0621,2.1168,2.1852,2.2151,2.2284,2.2135,2.0851,1.8862,1.5779,1.4179,0.0,0.0,0.9302,0.9517,0.9532,1.0201,1.1337,0.0,1.4477,1.5972,1.7755,1.8659,1.8989,0.0,1.7339,0.0,1.3099,1.059,0.0,0.3622,0.1208,-0.0134,-0.0403,-0.5147,-0.8615,-1.0356,-1.3451,-1.5983,-1.7814,-1.9197,-2.0607,-2.2104,-2.2104,-2.1804,-2.1139,-2.1139,-2.0703,-1.9954,-1.9954,-2.0576,-2.1517,-2.1517,-2.2139,-2.3014,-2.195,-2.2201,-2.282,-2.0703,-2.0639,-2.1391,0.0,0.0,0.0,0.0,0.0,0.0,0.0,0.8026,0.8942,1.0631,1.0849,1.0892,1.1042,1.0445,0.9709,0.0,0.0,0.0,0.0,0.0,0.0,0.0,0.0,0.0,0.0,0.0,0.0,0.0,0.0,0.0,0.0,0.0,0.0,0.0,0.0,0.0,0.0,0.0,0.0,0.0,0.0,0.0,0.0,0.0,0.0,0.0,0.0,0.0,0.0,0.0,0.0,1.0625,1.243,1.5135,1.7715,1.7932,0.0,0.0,2.0295,2.1093,2.1587,2.0971,1.9814,1.8193,1.5398,0.0,0.0,0.968,0.9211,0.9133,0.8784,0.8898,0.9578,1.1276,0.0,1.3612,1.6275,1.735,1.7604,1.6934,0.0,0.0,1.0257,0.8291,0.5698,0.2083,-0.1677,-0.4226,-0.523,-0.8753,-1.1472,-1.2927,-1.5739,-1.7882,-1.9273,-2.043,-2.151,-2.257,-2.257,-2.2632,-2.2889,-2.2889,-2.2827,-2.2702,-2.2702,-2.2827,-2.2952,-2.2952,-2.3007,-2.3076,-2.2944,-2.3007,-2.3076,-2.2827,-2.2827,-2.2889,0.0,0.0,0.0,0.0,0.0,0.0,0.7748,0.8124,0.8953,1.0932,1.1176,1.1176,1.1214,1.0727,0.9938,0.0,0.0,0.0,0.0,0.0,0.0,0.0,0.0,0.0,0.0,0.0,0.0,0.0,0.0,0.0,0.0,0.0,0.0,0.0,0.0,0.0,0.0,0.0,0.0,0.0,0.0,0.0,0.0,0.0,0.0,0.0,0.0,0.0,0.0,0.0,0.0,0.0,0.9118,1.0914,0.0,0.0,1.6888,1.7586,2.0061,2.0413,2.0091,2.0318,1.9128,1.7103,1.3881,0.0,1.0635,0.8049,0.7797,0.801,0.7851,0.7631,0.7903,0.9215,0.9606,1.0526,1.2746,1.3609,1.4179,1.4504,1.3294,0.0,0.0,0.0,0.3751,-0.094,-0.4353,-0.676,-0.803,-1.1055,-1.3221,-1.4218,-1.7789,-2.0423,-2.193,-2.2805,-2.3931,-2.5325,-2.5325,-2.4949,-2.4324,-2.4324,-2.3884,-2.3076,-2.3076,-2.3574,-2.4324,-2.4324,-2.4764,-2.5448,-2.4633,-2.4818,-2.5325,-2.3698,-2.3636,-2.4193,0.0,0.0,0.0,0.0,0.0,0.6238,0.7506,0.7934,0.8727,1.0438,1.0924,1.1108,1.1096,1.0585,0.9855,0.889,0.8538,0.0,0.0,0.0,0.0,0.0,0.0,0.0,0.0,0.0,0.0,0.0,0.0,0.0,0.0,0.0,0.0,0.0,0.0,0.0,0.0,0.0,0.0,0.0,0.0,0.0,0.0,0.0,0.0,0.0,0.0,0.0,0.0,0.0,0.0,0.0,0.0,0.0,0.0,0.0,1.4369,1.5048,1.8135,1.85,1.8155,1.8573,1.7429,1.5364,0.0,1.076,0.9273,0.7069,0.6945,0.7208,0.7047,0.6756,0.6747,0.7395,0.7573,0.8287,1.007,1.0607,1.1232,0.0,0.0,0.9431,0.0,0.4425,0.0804,-0.3221,-0.6752,-0.9275,-1.0468,-1.3787,-1.5614,-1.5634,-1.9509,-2.232,-2.3876,-2.4679,-2.5745,-2.7073,-2.7073,-2.6631,-2.5806,-2.5806,-2.537,-2.4556,-2.4556,-2.5056,-2.5806,-2.5928,-2.6432,-2.7012,-2.612,-2.6311,-2.6882,-2.501,-2.4887,-2.557,0.0,0.0,0.0,0.0,0.0,0.0,0.6443,0.7307,0.8149,0.8833,0.9799,1.0469,1.0592,0.9892,0.9372,0.9305,0.8677,0.0,0.0,0.0,0.0,0.0,0.0,0.0,0.0,0.0,0.0,0.0,0.0,0.0,0.0,0.0,0.0,0.0,0.0,0.0,0.0,0.0,0.0,0.0,0.0,0.0,0.0,0.0,0.0,0.0,0.0,0.0,0.0,0.0,0.0,0.0,0.0,0.0,0.0,0.0,1.1207,1.247,1.3661,1.4824,1.5674,1.5309,1.4242,1.2806,1.1164,0.9713,0.8417,0.7313,0.7112,0.695,0.649,0.6408,0.6277,0.5877,0.6267,0.7199,0.8867,0.9123,0.9416,0.0,0.0,0.6576,0.4184,-0.0322,-0.3423,-0.4227,-0.8863,0.0,-1.26,-1.7284,-1.9127,-1.744,-2.0777,-2.3248,-2.4594,-2.5554,-2.6449,-2.7073,-2.7073,-2.7246,-2.7461,-2.7461,-2.7642,-2.796,-2.796,-2.7771,-2.7521,-2.7831,-2.7608,-2.7133,-2.7409,-2.7289,-2.7073,-2.7073,-2.7073,-2.7073,0.0,0.0,0.0,0.0,0.0,0.0,0.0,0.675,0.7363,0.8544,0.8703,0.9097,1.0137,0.9413,0.8919,0.9078,0.8395,0.0,0.0,0.0,0.0,0.0,0.0,0.0,0.0,0.0,0.7448,0.8,0.8104,0.0,0.0,0.0,0.0,0.0,0.0,0.0,0.0,0.0,0.0,0.0,0.0,0.0,0.0,0.0,0.0,0.0,0.0,0.0,0.0,0.0,0.0,0.0,0.0,0.0,0.0,0.6215,0.7636,0.0,1.1828,1.2307,1.2182,1.27,1.2046,1.0821,0.9097,0.781,0.676,0.5899,0.5723,0.5727,0.565,0.5654,0.5708,0.5852,0.6087,0.6507,0.7269,0.0,0.0,0.7111,0.4921,0.3175,0.0,0.0,-0.4229,-0.5631,-0.9462,-1.2427,-1.4079,-1.7901,-2.0093,-2.0195,-2.2875,-2.471,-2.5623,-2.638,-2.6995,-2.7409,-2.8283,-2.8801,-2.9098,-2.9944,-3.0412,-3.0539,-3.0539,-3.0471,-3.0412,-3.048,-3.0422,-3.0188,-2.9384,-2.9048,-2.8879,-2.8011,-2.7728,-2.7659,0.0,0.0,0.0,0.0,0.0,0.0,0.0,0.6388,0.6848,0.7799,0.7761,0.8154,0.9503,0.881,0.8474,0.8992,0.8292,0.0,0.0,0.0,0.0,0.0,0.0,0.0,0.0,0.7291,0.7517,0.8158,0.8158,0.8002,0.7737,0.7444,0.0,0.0,0.0,0.0,0.0,0.0,0.0,0.0,0.0,0.0,0.0,0.0,0.0,0.0,0.0,0.0,0.0,0.0,0.0,0.0,0.0,0.0,0.0,0.0,0.5059,0.6396,0.0,0.9567,0.9346,0.9897,0.9406,0.8499,0.7324,0.6363,0.5578,0.5116,0.5014,0.5069,0.5211,0.5215,0.5314,0.5624,0.5797,0.5969,0.0,0.0,0.0,0.3688,0.0,0.0,0.0,-0.3113,-0.5828,-0.8413,-1.176,-1.4581,-1.6754,-2.0011,-2.2298,-2.3336,-2.4517,-2.5533,-2.6449,-2.7237,-2.7719,-2.7873,-2.9266,-3.009,-3.0392,-3.1409,-3.1917,-3.2021,-3.2021,-3.1974,0.0,-3.2031,-3.1917,-3.1562,-3.0432,-2.9914,-2.963,-2.8421,-2.802,-2.796,0.0,0.0,0.0,0.0,0.0,0.0,0.0,0.6158,0.6527,0.6746,0.6969,0.7543,0.8664,0.811,0.8031,0.8914,0.0,0.0,0.0,0.0,0.0,0.0,0.0,0.0,0.0,0.6887,0.7038,0.7609,0.763,0.7386,0.691,0.6868,0.67,0.0,0.0,0.0,0.0,0.0,0.0,0.0,0.0,0.0,0.0,0.0,0.0,0.0,0.0,0.0,0.0,0.0,0.0,0.0,0.0,0.0,0.0,0.0,0.0,0.0,0.0,0.6696,0.7102,0.7102,0.6597,0.6067,0.592,0.5374,0.0,0.4873,0.4873,0.4932,0.5085,0.5105,0.5144,0.525,0.5449,0.0,0.0,0.427,0.0,0.0,0.0351,0.0,-0.3995,-0.5769,-0.8281,-1.1899,-1.5235,-1.7976,-2.01,-2.3054,-2.524,-2.6572,-2.5815,-2.6022,-2.7366,-2.8241,-2.871,-2.8769,-3.0315,-3.1197,-3.1564,-3.2187,-3.2623,0.0,-3.284,-3.2737,-3.2519,-3.2783,-3.2545,-3.1907,-3.0946,-3.0441,-2.9973,-2.8769,-2.825,-2.8199,0.0,0.0,0.0,0.0,0.0,0.0,0.0,0.0,0.0,0.0,0.6408,0.6621,0.751,0.7439,0.7504,0.0,0.0,0.0,0.0,0.0,0.0,0.0,0.0,0.0,0.0,0.7173,0.7408,0.7759,0.7949,0.8045,0.8009,0.7443,0.7057,0.6824,0.5821,0.0,0.0,0.0,0.0,0.0,0.0,0.0,0.0,0.0,0.0,0.0,0.0,0.3347,0.0,0.0,0.0,0.0,0.0,0.0,0.0,0.0,0.3443,0.3596,0.4204,0.0,0.5041,0.5122,0.51,0.5042,0.0,0.4791,0.4629,0.4715,0.0,0.4807,0.5068,0.5102,0.5068,0.4938,0.0,0.0,0.5054,0.0,0.0,0.2176,-0.0764,-0.3106,-0.4138,-0.7796,-1.0649,-1.2096,-1.6136,-1.937,-2.1442,-2.3707,-2.5818,-2.788,-2.7958,-2.8614,-2.9914,-3.0149,-3.0616,-3.1371,-3.2613,-3.3417,-3.3797,-3.4847,-3.5356,-3.5411,-3.5411,-3.5411,-3.5356,-3.5411,-3.5356,-3.5124,-3.3944,-3.3438,-3.3258,-3.1984,-3.0907,-3.0119,0.0,0.0,0.0,0.0,0.0,0.0,0.0,0.0,0.0,0.0,0.0,0.0,0.0,0.0,0.0,0.0,0.0,0.0,0.0,0.0,0.0,0.0,0.0,0.0,0.6892,0.7204,0.7478,0.7699,0.8041,0.8129,0.7969,0.7588,0.716,0.669,0.5664,0.0,0.0,0.0,0.0,0.0,0.0,0.0,0.0,0.0,0.0,0.0,0.3184,0.3058,0.0,0.3044,0.2827,0.2548,0.0,0.0,0.0,0.0,0.2705,0.2807,0.3015,0.3597,0.4186,0.4264,0.4377,0.4459,0.4459,0.4374,0.4298,0.0,0.0,0.0,0.0,0.0,0.0,0.0,0.5287,0.0,0.0,0.0,0.1375,0.0498,-0.2183,-0.4681,0.0,-0.9853,-1.2616,-1.4265,-1.825,-2.1379,-2.3065,-2.5595,-2.7743,-2.9248,-3.0256,-3.0839,-3.0781,-3.1245,-3.1822,-3.2623,-3.3989,-3.4736,-3.4925,-3.5872,-3.632,-3.632,-3.632,-3.632,-3.632,-3.632,-3.632,-3.6157,-3.498,-3.448,-3.4357,-3.3077,-3.2166,-3.1602,0.0,0.0,0.0,0.0,0.0,0.0,0.0,0.0,0.0,0.0,0.0,0.0,0.0,0.0,0.0,0.0,0.0,0.0,0.0,0.0,0.0,0.0,0.0,0.6459,0.6812,0.7035,0.7277,0.7571,0.7832,0.7789,0.7437,0.7391,0.6962,0.6159,0.5324,0.0,0.0,0.0,0.0,0.0,0.0,0.0,0.0,0.0,0.0,0.0,0.0,0.0,0.0,0.2741,0.2322,0.1812,0.2096,0.0,0.0,0.0,0.0,0.0,0.2226,0.3112,0.3952,0.3926,0.4069,0.4193,0.4172,0.0,0.0,0.0,0.0,0.0,0.0,0.484,0.0,0.0,0.0,0.0,0.3189,0.1821,0.0114,-0.224,-0.3793,0.0,-0.9695,-1.2049,-1.4568,-1.7532,-2.0876,-2.3507,-2.5061,-2.7922,-2.9905,-3.0888,-3.2519,-3.2907,-3.1896,-3.2442,-3.2975,-3.3586,-3.5068,-3.5697,-3.5751,-3.6254,-3.6483,-3.6483,-3.632,-3.632,-3.632,-3.632,-3.632,-3.6211,-3.5146,-3.4758,-3.4636,-3.3529,-3.3077,-3.2851,0.0,0.0,0.0,0.0,0.0,0.0,0.0,0.0,0.0,0.0,0.0,0.0,0.0,0.0,0.0,0.0,0.0,0.0,0.0,0.0,0.0,0.0,0.6399,0.6481,0.6883,0.6611,0.6777,0.7437,0.7107,0.7008,0.7161,0.694,0.6284,0.5271,0.4561,0.4183,0.4056,0.0,0.0,0.0,0.0,0.0,0.0,0.0,0.0,0.0,0.0,0.0,0.0,0.222,0.2131,0.1992,0.1787,0.0,0.0,0.0,0.0,0.0,0.2188,0.2971,0.3672,0.367,0.3932,0.4169,0.4054,0.4011,0.0,0.0,0.0,0.0,0.0,0.4976,0.4996,0.0,0.0,0.3347,0.0,0.0,-0.0376,-0.27,0.0,-0.8042,-1.1802,-1.4666,-1.7622,-2.0989,-2.3095,-2.5452,-2.8092,-2.9257,-3.1062,-3.3666,-3.4359,-3.5343,-3.6788,-3.5542,-3.5201,-3.5806,-3.6719,-3.7192,-3.7192,-3.7245,-3.7311,-3.7257,-3.658,-3.632,-3.632,-3.632,-3.632,-3.6266,-3.6102,-3.6036,-3.5993,-3.5806,-3.508,-3.4067,0.0,0.0,0.0,0.0,0.0,0.0,0.0,0.0,0.0,0.0,0.0,0.0,0.0,0.0,0.0,0.0,0.0,0.0,0.0,0.0,0.0,0.6929,0.6666,0.663,0.6841,0.698,0.7141,0.7295,0.723,0.7092,0.6871,0.6178,0.5429,0.4701,0.4031,0.3677,0.3619,0.0,0.0,0.0,0.0,0.0,0.0,0.0,0.0,0.0,0.0,0.0,0.0,0.0,0.1557,0.1299,0.1411,0.0,0.0,0.0,0.0,0.0,0.1475,0.2291,0.3121,0.3427,0.4022,0.4495,0.4436,0.4401,0.0,0.0,0.0,0.0,0.0,0.0,0.5201,0.508,0.0,0.3793,0.1395,-0.0179,-0.2076,0.0,0.0,-1.0445,-1.3545,-1.7144,-2.013,-2.2096,-2.5465,-2.8059,-2.9347,-3.1263,-3.3046,-3.4626,-3.589,-3.6972,-3.7902,-3.7447,-3.7352,-3.7643,-3.8056,-3.8202,-3.8202,-3.7725,-3.7512,-3.7471,-3.6634,-3.632,-3.632,-3.632,-3.632,-3.632,-3.632,-3.632,-3.632,-3.632,-3.5927,-3.5367,0.0,0.0,0.0,0.0,0.0,0.0,0.0,0.0,0.0,0.0,0.0,0.0,0.0,0.0,0.0,0.0,0.0,0.0,0.0,0.0,0.7081,0.7263,0.7056,0.7038,0.7293,0.7551,0.7623,0.7485,0.7487,0.7134,0.6426,0.5456,0.4749,0.4249,0.3602,0.3296,0.3265,0.2932,0.0,0.0,0.0,0.0,0.0,0.0,0.0,0.0,0.0,0.0,0.0,0.0,0.0,0.0,0.0,0.0,0.0,0.0339,0.0537,0.0697,0.094,0.1758,0.2688,0.3196,0.0,0.4519,0.4758,0.4741,0.0,0.0,0.0,0.0,0.0,0.5452,0.0,0.468,0.4944,0.4032,0.0359,-0.1675,-0.399,-0.7149,-1.0144,-1.3069,-1.5858,-1.9676,-2.2489,-2.3686,-2.7681,-3.0305,-3.0848,-3.3251,-3.5013,-3.589,-3.74,-3.8376,-3.869,-3.9144,-3.9208,-3.8792,-3.9013,-3.9117,-3.9052,-3.8425,-3.8096,-3.8043,-3.7215,-3.6796,-3.658,-3.658,-3.6483,-3.632,-3.632,-3.632,-3.632,-3.632,-3.632,-3.632,0.0,0.0,0.0,0.0,0.0,0.0,0.0,0.0,0.0,0.0,0.0,0.0,0.0,0.0,0.0,0.0,0.0,0.0,0.0,0.0,0.7394,0.7474,0.7577,0.7981,0.8731,0.8061,0.7893,0.8301,0.7533,0.6629,0.5668,0.5035,0.4452,0.391,0.3306,0.2997,0.2912,0.264,0.0,0.0,0.0,0.0,0.0,0.0,0.0,0.0,0.0,0.0,0.0,0.0,0.0,0.0,0.0,0.0,0.0429,0.027,0.0359,0.0639,0.1203,0.1868,0.2523,0.2994,0.3252,0.3638,0.4572,0.4741,0.0,0.5243,0.0,0.0,0.0,0.6308,0.5963,0.3755,0.3939,0.2922,-0.1424,0.0,-0.5554,-0.9425,-1.2592,-1.589,-1.9288,-2.2082,-2.4921,-2.7734,-2.9613,-3.1637,-3.3935,-3.4792,-3.6368,-3.8795,-3.9015,-3.9699,-4.1047,-4.111,-4.0313,-3.8792,-3.9595,-4.0019,-4.0019,-3.9968,-3.9904,-3.9853,-3.9013,-3.8161,-3.7406,-3.7406,-3.7,-3.632,-3.632,-3.632,-3.632,-3.632,-3.632,-3.632,0.0,0.0,0.0,0.0,0.0,0.0,0.0,0.0,0.0,0.0,0.0,0.0,0.0,0.0,0.0,0.0,0.0,0.0,0.0,0.0,0.7223,0.7787,0.7499,0.7589,0.8137,0.8055,0.801,0.8036,0.7026,0.6151,0.5408,0.4837,0.4267,0.3699,0.3173,0.2841,0.0,0.0,0.0,0.0,0.0,0.0,0.0,0.0,0.0,0.0,0.0,0.0,0.0,0.0,0.0678,0.059,0.0703,0.0638,0.0494,0.0405,0.045,0.0543,0.077,0.1401,0.2172,0.3007,0.3387,0.0,0.0,0.4481,0.4612,0.4964,0.4924,0.0,0.0,0.0,0.4962,0.369,0.3329,0.178,-0.2252,-0.4598,-0.7197,-1.067,-1.4628,-1.8047,-2.0365,-2.4277,-2.7458,-2.9456,-3.2266,-3.427,-3.5245,-3.6811,-3.8206,-3.9171,-4.0679,-4.1703,-4.2235,-4.2854,-4.2827,-4.219,-4.1295,-4.0858,-4.0846,-4.0338,-4.007,-4.007,-3.9169,-3.8635,-3.8319,-3.8319,-3.8108,-3.7791,-3.7269,-3.7054,-3.7,-3.6483,-3.632,-3.632,0.0,0.0,0.0,0.0,0.0,0.0,0.0,0.0,0.0,0.0,0.0,0.0,0.0,0.0,0.0,0.0,0.0,0.0,0.0,0.7767,0.7375,0.7819,0.745,0.7454,0.7909,0.7838,0.7739,0.7604,0.6592,0.5778,0.5161,0.4783,0.4252,0.3635,0.316,0.2794,0.0,0.0,0.0,0.0,0.0,0.0,0.0,0.0,0.0,0.0,0.0,0.0,0.0,0.0,0.0541,0.0446,0.0744,0.071,0.0574,0.0604,0.067,0.0738,0.0738,0.1223,0.188,0.2693,0.0,0.0,0.3748,0.4318,0.4796,0.4947,0.4966,0.0,0.5012,0.0,0.0,0.0,0.1904,0.0,-0.3875,-0.6606,-0.9309,-1.232,-1.7097,-2.0674,-2.2221,-2.6533,-2.9859,-3.1454,-3.4371,-3.6294,-3.6823,-3.881,-4.0058,-4.0414,-4.2266,-4.3307,-4.3388,-4.397,-4.4312,-4.4266,-4.2902,-4.2065,-4.172,-4.0883,-4.0491,-4.044,-3.9853,-3.9428,-3.9221,-3.9221,-3.9065,-3.8739,-3.8149,-3.7725,-3.7406,-3.6893,-3.6538,-3.632,0.0,0.0,0.0,0.0,0.0,0.0,0.0,0.0,0.0,0.0,0.0,0.0,0.0,0.0,0.0,0.0,0.0,0.0,0.823,0.8201,0.799,0.7513,0.7491,0.7772,0.8374,0.7405,0.6988,0.7194,0.6329,0.5544,0.4902,0.4839,0.4443,0.3773,0.3239,0.0,0.0,0.0,0.0,0.0,0.0,0.0,0.0,0.0,0.0,0.0,0.0,0.0,0.0,0.0,0.0601,0.0612,0.0675,0.0695,0.0723,0.0866,0.1027,0.1198,0.1278,0.1486,0.1751,0.0,0.0,0.0,0.2882,0.4311,0.5473,0.5408,0.5691,0.5757,0.4912,0.0,0.0,0.0931,-0.0371,-0.2465,-0.6477,-0.939,-1.2069,-1.4614,-2.003,-2.3993,-2.527,-2.8996,-3.2156,-3.416,-3.5759,-3.7412,-3.9119,-4.0678,-4.2003,-4.3074,-4.3909,-4.4438,-4.4642,-4.4438,-4.4312,-4.4359,-4.4312,-4.3782,-4.2792,-4.1782,-4.1311,-4.1311,-4.1311,-4.0846,-4.0134,-4.0134,-3.9595,-3.8844,-3.8792,-3.8255,-3.7512,-3.7512,-3.7,-3.632,0.0,0.0,0.0,0.0,0.0,0.0,0.0,0.0,0.0,0.0,0.0,0.0,0.0,0.0,0.0,0.0,0.0,0.0,0.0,0.8361,0.7778,0.7448,0.7342,0.7265,0.72,0.683,0.6539,0.6358,0.6056,0.5652,0.5189,0.5059,0.4601,0.3841,0.3418,0.0,0.0,0.0,0.0,0.0,0.0,0.0,0.0,0.0,0.0,0.0,0.0,0.0,0.0,0.0,0.0,0.0,0.0413,0.0483,0.0509,0.0582,0.0695,0.079,0.092,0.131,0.0,0.2053,0.0,0.0,0.0,0.339,0.0,0.0,0.484,0.5159,0.3921,0.0,0.0,0.047,-0.0687,-0.276,-0.6487,-0.939,-1.251,-1.6245,-2.0717,-2.4539,-2.7159,-3.0654,-3.3602,-3.5679,-3.8622,-4.0726,-4.161,-4.3102,-4.4107,-4.4414,-4.5178,-4.5705,-4.5929,-4.6255,-4.658,-4.6915,-4.5869,-4.4808,-4.3829,-4.3559,-4.3416,-4.3416,-4.3416,-4.2889,-4.1914,-4.1235,-4.0795,-4.0478,-3.9955,-3.9544,-3.9272,-3.8635,-3.8267,-3.8056,0.0,0.0,0.0,0.0,0.0,0.0,0.0,0.0,0.0,0.0,0.0,0.0,0.0,0.0,0.0,0.0,0.0,0.0,0.0,0.0,0.7637,0.7257,0.7054,0.6771,0.6342,0.6584,0.6318,0.556,0.5612,0.5426,0.5068,0.5052,0.4635,0.3844,0.3554,0.2903,0.0,0.0,0.0,0.0,0.0913,0.0777,0.0658,0.0,0.0,0.0,0.0,0.0,0.0,0.0,0.0,0.0,0.0244,0.0159,0.0021,0.0552,0.0664,0.0734,0.1218,0.0,0.0,0.2212,0.2529,0.2854,0.346,0.0,0.0,0.0,0.0,0.4964,0.3433,0.2152,0.0,-0.0609,-0.1963,-0.4196,-0.8145,-1.0906,-1.4068,-1.8152,-2.2496,-2.6386,-2.9353,-3.273,-3.5754,-3.8153,-4.0737,-4.2622,-4.3543,-4.4875,-4.5631,-4.5706,-4.6329,-4.6857,-4.7204,-4.7279,-4.7553,-4.8007,-4.6974,-4.6196,-4.5598,-4.4716,-4.4312,-4.4312,-4.4312,-4.3735,-4.2744,-4.215,-4.1634,-4.1261,-4.0744,-4.0389,-4.007,-3.9712,-3.939,-3.9144,0.0,0.0,0.0,0.0,0.0,0.0,0.0,0.0,0.0,0.0,0.0,0.0,0.0,0.0,0.0,0.0,0.0,0.0,0.0,0.0,0.7574,0.7032,0.6785,0.6419,0.592,0.6585,0.6306,0.4977,0.5136,0.5035,0.4709,0.4907,0.4565,0.3778,0.3639,0.298,0.0,0.0,0.1122,0.0887,0.082,0.0712,0.0605,0.0595,0.0,0.0,0.0,0.0,0.0,0.0,0.0,0.0,0.0161,-0.0182,-0.0516,0.0588,0.0798,0.0871,0.1817,0.0,0.0,0.2302,0.217,0.0,0.4235,0.4838,0.4993,0.5018,0.0,0.5143,0.3382,0.2073,0.049,-0.1976,-0.3596,-0.609,-1.055,-1.3232,-1.6231,-2.0161,-2.4939,-2.8985,-3.1708,-3.5153,-3.8402,-4.1162,-4.2415,-4.3732,-4.5149,-4.6152,-4.6827,-4.7073,-4.745,-4.7922,-4.8453,-4.7709,-4.7596,-4.8049,-4.7752,-4.7624,-4.7581,-4.5553,-4.4591,-4.4591,-4.4499,-4.3923,-4.3067,-4.2889,-4.2333,-4.1547,-4.1411,-4.0997,-4.0465,-4.0869,-4.0503,-3.9956,0.0,0.0,0.0,0.0,0.0,0.0,0.0,0.0,0.0,0.0,0.0,0.0,0.0,0.0,0.0,0.0,0.0,0.0,0.0,0.0,0.7637,0.711,0.7082,0.6968,0.6743,0.6593,0.6221,0.5602,0.5322,0.5035,0.4709,0.4907,0.4516,0.3644,0.3568,0.2837,0.0,0.0,0.0961,0.0803,0.0686,0.0632,0.0602,0.0609,0.0552,0.0,0.0,0.0,0.0,0.0,0.0,0.0,0.0108,-0.0037,-0.0177,0.0257,0.042,0.0568,0.097,0.1393,0.0,0.0,0.2526,0.4032,0.6531,0.7175,0.7006,0.6261,0.5945,0.5327,0.3632,0.2296,0.0501,-0.2461,-0.3191,-0.5082,-1.0082,-1.2855,-1.6195,-2.1176,-2.5839,-3.0239,-3.4252,-3.7907,-4.0867,-4.3047,-4.4924,-4.6256,-4.7016,-4.7734,-4.849,-4.9197,-4.8547,-4.8604,-4.9566,-4.8396,-4.8049,-4.8453,-4.8091,-4.7922,-4.788,-4.7206,-4.6814,-4.6594,-4.5838,-4.5358,-4.5024,-4.345,-4.3129,-4.3511,-4.2395,-4.2311,-4.2819,-4.2555,-4.2324,-4.2213,0.0,0.0,0.0,0.0,0.0,0.0,0.0,0.0,0.0,0.0,0.0,0.0,0.0,0.0,0.0,0.0,0.0,0.0,0.0,0.0,0.7225,0.6697,0.6792,0.6733,0.6486,0.6396,0.617,0.5793,0.5424,0.5137,0.0,0.0,0.4703,0.4072,0.3835,0.3054,0.0,0.0,0.1029,0.0739,0.0605,0.0577,0.0583,0.0492,0.0459,0.0437,0.037,0.0,0.0,0.0,0.0,0.0,0.0,0.0,-0.0544,0.0105,0.0211,0.0264,0.0945,0.0,0.0,0.2265,0.0,0.579,0.7225,0.8063,0.8227,0.6879,0.6634,0.6145,0.4614,0.3161,0.1186,-0.1944,-0.3534,-0.6339,-1.1772,-1.4705,-1.8325,-2.3921,-2.8389,-3.2448,-3.6323,-4.0683,-4.3842,-4.5245,-4.7346,-4.8823,-4.9336,-4.971,-5.0057,-5.0461,-4.9797,-4.9797,-5.0477,-4.9213,-4.8984,-4.9757,-4.8671,-4.8133,-4.8133,-4.7681,-4.7381,-4.7266,-4.6741,-4.6255,-4.5734,-4.4656,-4.4331,-4.4377,-4.3592,-4.3464,-4.381,-4.4139,-4.4059,-4.379,0.0,0.0,0.0,0.0,0.0,0.0,0.0,0.0,0.0,0.0,0.0,0.0,0.0,0.0,0.0,0.0,0.0,0.0,0.0,0.7302,0.6766,0.6301,0.642,0.6367,0.6075,0.6161,0.6101,0.5879,0.5478,0.0,0.0,0.0,0.0,0.4573,0.4157,0.0,0.0,0.1648,0.1161,0.0722,0.0546,0.0504,0.0521,0.036,0.0332,0.037,0.0286,0.0185,0.0084,0.005,0.0,0.0,0.0,0.0,-0.0961,0.0,0.0066,0.0024,0.1011,0.0,0.1543,0.322,0.5148,0.0,0.7287,0.815,0.8476,0.715,0.7111,0.682,0.5226,0.3816,0.179,-0.162,-0.4358,-0.8032,-1.3802,-1.7066,-2.1045,-2.6801,-3.1264,-3.5113,-3.8271,-4.3213,-4.6509,-4.7086,-4.9095,-5.0482,-5.0945,-5.1038,-5.112,-5.1136,-5.0898,-5.0941,-5.1294,-5.0135,-5.0057,-5.107,-4.9479,-4.8563,-4.8286,-4.7822,-4.7538,-4.7439,-4.7396,-4.6873,-4.6107,-4.5913,-4.5584,-4.5115,-4.4872,-4.4656,-4.4563,-4.5539,-4.5553,-4.5067,0.0,0.0,0.0,0.0,0.0,0.0,0.0,0.0,0.0,0.0,0.0,0.6752,0.6366,0.6867,0.0,0.0,0.0,0.0,0.7393,0.0,0.0,0.6647,0.6543,0.6579,0.6767,0.618,0.5981,0.6236,0.0,0.0,0.0,0.0,0.0,0.4488,0.0,0.0,0.0,0.0,0.1252,0.0851,0.0531,0.0376,0.034,0.0306,0.0304,0.0286,0.0101,0.0034,-0.0017,-0.0185,-0.0303,0.0,0.0,0.0,-0.0478,-0.0276,-0.0169,-0.0024,0.0,0.0,0.1434,0.0,0.4689,0.5467,0.0,0.0,0.6869,0.0,0.6878,0.6149,0.3384,0.2709,0.1107,-0.3324,-0.5282,-0.8193,-1.3715,-1.7902,-2.2336,-2.7536,-3.3185,-3.7816,-4.0659,-4.4814,-4.7431,-4.7745,-4.8828,-4.9485,-4.9573,-5.0066,-5.0641,-5.1348,-5.1153,-5.1406,-5.2112,-5.1257,-5.0919,-5.1107,-5.0621,-4.9662,-4.8328,-4.8754,-4.8547,-4.788,-4.7681,-4.7495,-4.7307,-4.6403,-4.6491,-4.7119,-4.6048,-4.6078,-4.674,-4.6476,-4.6344,-4.6181,0.0,0.0,0.0,0.0,0.0,0.0,0.0,0.0,0.0,0.0,0.0,0.7019,0.7028,0.6962,0.0,0.0,0.0,0.0,0.6624,0.6307,0.0,0.0,0.6226,0.6196,0.6281,0.5967,0.5972,0.6304,0.0,0.0,0.0,0.6035,0.5545,0.0,0.0,0.0,0.0,0.0,0.0,0.1333,0.1104,0.0847,0.059,0.0756,0.0687,0.0491,0.0298,0.0219,0.0168,0.0,-0.0326,-0.035,-0.0356,0.0,0.0,0.0,-0.0349,0.0,0.0141,0.118,0.2356,0.0,0.432,0.5419,0.6798,0.0,0.5172,0.5505,0.5101,0.4501,0.3683,0.2089,-0.0123,-0.2882,-0.653,-1.0628,-1.5151,-1.9685,-2.4511,-2.9746,-3.4925,-3.9213,-4.2075,-4.6203,-4.8742,-4.8828,-5.0159,-5.0888,-5.0807,-5.0978,-5.1162,-5.1445,-5.1261,-5.1341,-5.1681,-5.0892,-5.0468,-5.0455,-5.121,-5.0978,-4.9876,-5.0135,-4.9439,-4.8007,-4.788,-4.7837,-4.7794,-4.7364,-4.7493,-4.7949,-4.7407,-4.7306,-4.7435,-4.7591,-4.742,-4.7075,0.0,0.0,0.0,0.0,0.0,0.0,0.0,0.0,0.0,0.0,0.0,0.0,0.7313,0.0,0.0,0.0,0.0,0.0,0.5965,0.0,0.0,0.0,0.0,0.5865,0.5796,0.5796,0.5913,0.0,0.0,0.0,0.696,0.6637,0.6294,0.0,0.5118,0.4332,0.0,0.0,0.0,0.0,0.1663,0.1392,0.1089,0.1478,0.1261,0.0747,0.0743,0.0,0.0,0.0,0.0,0.0,0.0,0.0,0.0,0.0,0.0,0.0,0.0,0.0,0.2275,0.2275,0.3323,0.4497,0.0,0.0,0.3582,0.0,0.3005,0.2386,0.2542,0.0854,-0.1287,-0.3365,-0.8205,-1.3168,-1.7526,-2.2204,-2.7208,-3.2457,-3.6897,-4.0584,-4.3367,-4.705,-4.9367,-4.9495,-5.082,-5.1649,-5.1691,-5.167,-5.1603,-5.148,-5.1432,-5.1361,-5.1185,-5.061,-5.0281,-5.0225,-5.1621,-5.1878,-5.1107,-5.1294,-5.0445,-4.878,-4.8506,-4.8271,-4.8091,-4.8091,-4.816,-4.8286,-4.837,-4.8145,-4.7919,-4.8396,-4.8271,-4.7834,0.0,0.0,0.0,0.0,0.0,0.0,0.0,0.0,0.0,0.0,0.0,0.0,0.0,0.0,0.0,0.0,0.0,0.0,0.0,0.0,0.0,0.0,0.0,0.0,0.5796,0.5796,0.0,0.0,0.0,0.0,0.6638,0.6653,0.6748,0.6816,0.6457,0.5419,0.3961,0.0,0.0,0.0,0.0,0.1825,0.1816,0.2527,0.2003,0.0959,0.1448,0.0,0.0,0.0,0.0,0.0,0.0,0.0,-0.0506,0.0,0.0,0.0,0.0,-0.0343,0.0,0.1087,0.1292,0.0,0.0,0.0,0.0,0.1256,0.0863,0.0,-0.1937,-0.1565,-0.2326,-0.6415,-1.0359,-1.4961,-2.0996,-2.5711,-3.0429,-3.5459,-3.9255,-4.2421,-4.4855,-4.7139,-4.8656,-4.9185,-4.9799,-5.031,-5.0834,-5.1266,-5.1477,-5.1396,-5.1812,-5.1799,-5.1217,-5.1153,-5.1111,-5.1061,-5.1917,-5.1858,-5.1145,-5.1878,-5.1769,-5.0881,-4.9844,-4.8994,-4.8286,-4.8286,-4.8286,-4.8328,-4.8495,-4.8578,-4.8537,-4.8578,-4.8578,-4.8438,0.0,0.0,0.0,0.0,0.0,0.0,0.0,0.0,0.0,0.0,0.0,0.0,0.0,0.6261,0.5715,0.5437,0.0,0.0,0.0,0.0,0.0,0.0,0.0,0.0,0.0,0.0,0.0,0.0,0.0,0.626,0.6415,0.656,0.6617,0.6571,0.6195,0.5469,0.4546,0.4015,0.0,0.0,0.0,0.0,0.0,0.2785,0.2261,0.1311,0.0,0.0,0.0,0.0,0.0,0.0,-0.0551,-0.0762,-0.0993,-0.0911,-0.0813,0.0,0.0,0.0,0.0,0.01,0.0309,0.078,0.1581,0.0817,0.0219,0.1275,-0.0452,-0.2184,-0.2426,-0.3089,-0.4719,-0.792,-1.1833,-1.6253,-2.1379,-2.6474,-3.1545,-3.65,-4.0406,-4.3554,-4.5842,-4.7605,-4.89,-4.9658,-4.9895,-5.0387,-5.1262,-5.0984,-5.0752,-5.0711,-5.1039,-5.0939,-5.036,-5.084,-5.1114,-5.1178,-5.1931,-5.2421,-5.2661,-5.2938,-5.2642,-5.1842,-5.1443,-5.0538,-4.9284,-4.8728,-4.8495,-4.8495,-4.8578,-4.862,-4.862,-4.862,-4.862,-4.8578,0.0,0.0,0.0,0.0,0.0,0.0,0.0,0.0,0.0,0.66,0.0,0.0,0.0,0.0,0.5702,0.5397,0.5086,0.5073,0.5481,0.0,0.0,0.0,0.0,0.0,0.0,0.0,0.0,0.0,0.0,0.0,0.0,0.6312,0.6465,0.6572,0.6019,0.5437,0.0,0.0,0.0,0.3137,0.0,0.0,0.2891,0.0,0.2727,0.0,0.0,0.0,0.0,0.0,0.0,0.0,0.0,-0.096,-0.1219,-0.1118,-0.1059,0.0,-0.1094,0.0,0.0,0.0,0.0,-0.0504,-0.0171,0.0,-0.0878,-0.0053,-0.1583,-0.3358,-0.4268,-0.5506,-0.7196,-0.973,-1.3682,-1.8218,-2.3232,-2.7883,-3.2716,-3.7954,-4.1561,-4.4487,-4.6613,-4.8158,-4.9338,-5.0202,-5.0278,-5.0739,-5.1799,-5.1288,-5.0893,-5.0733,-5.0697,-5.0535,-5.017,-5.0477,-5.0807,-5.1145,-5.1686,-5.235,-5.3112,-5.3382,-5.3212,-5.2677,-5.2414,-5.1549,-5.0245,-4.9694,-4.9454,-4.9414,-4.9163,-4.9056,-4.9,-4.8687,-4.862,-4.862,0.0,0.0,0.0,0.0,0.0,0.0,0.0,0.0,0.5392,0.6174,0.0,0.0,0.0,0.0,0.0,0.4961,0.4931,0.5097,0.5482,0.5441,0.0,0.0,0.0,0.0,0.0,0.0,0.0,0.0,0.0,0.0,0.0,0.0,0.6335,0.6918,0.6056,0.5375,0.4854,0.0,0.389,0.3008,0.0,0.3184,0.2859,0.0,0.0,0.0,0.1886,0.0918,0.0,-0.061,0.0,0.0,0.0,-0.1053,-0.1118,-0.1117,-0.1179,-0.1284,0.0,0.0,0.0,0.0,0.0,0.0,-0.2666,0.0,-0.1323,-0.2918,-0.2737,-0.361,-0.7877,-0.8876,-0.9708,-1.1973,-1.5975,-2.0927,-2.6772,-3.013,-3.4198,-3.9997,-4.2824,-4.5135,-4.7342,-4.8798,-4.9953,-5.0776,-5.083,-5.1288,-5.2361,-5.2155,-5.1891,-5.1619,-5.1034,-5.0724,-5.0697,-5.0198,-5.0298,-5.1016,-5.1145,-5.1589,-5.2366,-5.3129,-5.3501,-5.3467,-5.2677,-5.1878,-5.1182,-5.1107,-5.1107,-5.1032,-5.0206,-4.9908,-4.9789,-4.8918,-4.862,-4.8604,0.0,0.0,0.0,0.0,0.0,0.0,0.5381,0.5428,0.5516,0.0,0.0,0.0,0.5982,0.5912,0.5834,0.5716,0.5741,0.5747,0.5717,0.5694,0.5738,0.5827,0.5763,0.5732,0.5732,0.0,0.0,0.0,0.0,0.0,0.5267,0.5419,0.5615,0.5817,0.5438,0.4914,0.4306,0.3923,0.0,0.0,0.2965,0.3147,0.0,0.0,0.0,0.0,0.0,-0.004,-0.0598,0.0,-0.172,-0.0992,0.0,0.0,-0.1557,-0.1655,-0.1897,-0.2134,-0.2149,0.0,0.0,0.0,0.0,0.0,0.0,0.0,-0.3221,-0.38,-0.5325,-0.6859,-0.7917,-1.1119,-1.3912,-1.4838,-1.7895,-2.1711,-2.6202,-3.0473,-3.4948,-3.983,-4.2423,-4.4996,-4.8075,-4.9423,-5.046,0.0,-5.1391,-5.1866,-5.2912,-5.2417,-5.1934,-5.1601,-5.1533,-5.1243,-5.0724,-5.0999,-5.1316,-5.1664,-5.1787,-5.2255,-5.2978,-5.3328,-5.3501,-5.3501,-5.328,-5.3058,-5.2747,-5.157,-5.1107,-5.1032,-5.0206,-4.9908,-4.9789,-4.8918,-4.862,-4.8702,0.0,0.0,0.0,0.0,0.0,0.5618,0.5845,0.5718,0.5612,0.0,0.0,0.0,0.5864,0.5845,0.5808,0.5675,0.5774,0.578,0.5611,0.5647,0.5671,0.5671,0.5631,0.5615,0.5615,0.5695,0.5551,0.0,0.5272,0.5176,0.4852,0.484,0.4972,0.5171,0.4782,0.4272,0.3682,0.0,0.0,0.0,0.2775,0.0,0.0,0.3008,0.2655,0.0,0.0,0.0,-0.0042,-0.1302,-0.1321,0.0,0.0,-0.1448,-0.1869,-0.1694,-0.2156,0.0,-0.2723,-0.3105,0.0,0.0,0.0,0.0,-0.4078,-0.4159,0.0,0.0,-0.6548,-0.8048,-0.92,-1.2379,-1.5282,-1.659,-1.9788,-2.3413,-2.7163,-3.1414,-3.5798,-4.0324,-4.2295,-4.4399,-4.716,-4.8157,-4.9081,-5.0071,-5.0423,-5.1173,-5.2465,-5.2502,-5.2325,-5.2,-5.2084,-5.1904,-5.1457,-5.1551,-5.1655,-5.1776,-5.1686,-5.2019,-5.2747,-5.2917,-5.3179,-5.3501,-5.3501,-5.3501,-5.3433,-5.2485,-5.2095,-5.2023,-5.1199,-5.0897,-5.0783,-4.9955,-4.9654,-4.9734,0.0,0.0,0.5923,0.6331,0.5989,0.5927,0.664,0.6132,0.5735,0.0,0.6025,0.6046,0.6009,0.572,0.5459,0.5319,0.5432,0.5435,0.5278,0.5379,0.5428,0.5397,0.5412,0.5428,0.5428,0.5374,0.5183,0.4825,0.4759,0.4657,0.4545,0.4323,0.4451,0.4808,0.4162,0.3595,0.3083,0.0,0.0,0.2104,0.2573,0.2596,0.0,0.0,0.2565,0.2115,0.1261,0.0816,0.0573,0.0097,-0.0551,0.0,0.0,-0.1425,-0.2203,-0.1605,-0.2258,0.0,-0.3283,-0.3764,0.0,0.0,-0.5514,0.0,-0.5691,-0.5425,-0.5423,0.0,-0.7196,-0.8348,-1.1093,-1.314,-1.5107,-1.7433,-2.1347,-2.5253,-2.8622,-3.2384,-3.6354,-4.0719,-4.2194,-4.3585,-4.55,-4.6229,-4.703,-4.8128,-4.8935,-4.9942,-5.1271,-5.2316,-5.2696,-5.2284,-5.2504,-5.2559,-5.241,-5.1933,-5.1694,-5.1712,-5.1347,-5.1533,-5.2178,-5.2345,-5.2788,-5.3466,-5.35,-5.3501,-5.3501,-5.3501,-5.3501,-5.3433,-5.2607,-5.2307,-5.22,-5.1422,-5.1107,-5.1107,0.0,0.5767,0.5914,0.6255,0.6228,0.6353,0.6929,0.644,0.61,0.6352,0.6067,0.6041,0.6579,0.61,0.5792,0.5919,0.572,0.5437,0.5076,0.5089,0.4969,0.4702,0.4845,0.4941,0.4941,0.5033,0.5039,0.4956,0.4887,0.4856,0.4809,0.4569,0.443,0.44,0.3948,0.329,0.256,0.0,0.0,0.1873,0.1909,0.0,0.3123,0.2649,0.2441,0.2197,0.1026,-0.005,-0.0898,-0.1129,-0.1658,-0.1994,0.0,0.0,-0.3028,-0.2385,-0.322,-0.4314,-0.4009,-0.4854,-0.592,-0.6156,0.0,0.0,-0.6462,-0.7321,-0.8086,0.0,-0.9359,-1.1018,-1.2094,-1.4358,-1.6472,-1.7754,-2.124,-2.4592,-2.6991,-3.1381,-3.557,-3.8649,-4.1091,-4.3513,-4.6072,-4.706,-4.7945,-4.8913,-4.9908,-5.024,-4.9706,-5.1263,-5.1756,-5.0844,-5.2082,-5.2431,-5.1768,-5.2138,-5.2322,-5.234,-5.2335,-5.2449,-5.2591,-5.2869,-5.3089,-5.3278,-5.3429,-5.3501,-5.3501,-5.3501,-5.3501,-5.3433,-5.2607,-5.2307,-5.22,-5.1422,-5.1107,-5.1182,0.0,0.5552,0.5568,0.5942,0.5998,0.6194,0.6809,0.6421,0.6132,0.6377,0.6028,0.5935,0.6406,0.598,0.5603,0.5518,0.5599,0.5364,0.4704,0.4899,0.4901,0.457,0.4494,0.459,0.4884,0.4804,0.473,0.4704,0.4602,0.4452,0.4242,0.414,0.4105,0.4077,0.3576,0.3075,0.0,0.0,0.2313,0.2517,0.2042,0.0,0.2884,0.2341,0.2219,0.2212,0.1448,0.0738,0.0152,-0.0621,-0.0906,0.0,0.0,-0.1562,-0.2867,0.0,-0.3664,-0.4835,-0.4491,-0.5482,-0.6693,-0.7134,0.0,0.0,0.0,-0.8831,-0.9576,-1.0413,-1.1254,-1.2269,-1.3817,-1.5574,-1.711,-1.8014,-2.1118,-2.3984,-2.5477,-3.0341,-3.457,-3.6734,-3.9089,-4.136,-4.3569,-4.4425,-4.5762,-4.7885,-4.9392,-4.9731,-4.8669,-5.0369,-5.0858,-4.9693,-5.1302,-5.1964,-5.1455,-5.2165,-5.2498,-5.2498,-5.2254,-5.2335,-5.2719,-5.2982,-5.3326,-5.3731,-5.4223,-5.4269,-5.3946,-5.3946,-5.3799,-5.3534,-5.3076,-5.2921,-5.2939,-5.254,-5.24,-5.2454,0.0,0.5223,0.5203,0.5535,0.5718,0.6005,0.663,0.633,0.6102,0.6204,0.6312,0.6384,0.6364,0.6299,0.619,0.5989,0.6074,0.5852,0.0,0.5297,0.5257,0.4958,0.442,0.4488,0.5229,0.4717,0.4419,0.4366,0.4183,0.3918,0.3602,0.3602,0.3674,0.3774,0.3222,0.0,0.0,0.0,0.0,0.3026,0.0,0.2341,0.2839,0.2162,0.2064,0.2256,0.1639,0.1538,0.1526,0.0206,0.0,0.0215,-0.0297,-0.1492,0.0,0.0,0.0,0.0,0.0,0.0,0.0,0.0,0.0,-0.8851,0.0,0.0,0.0,-1.2762,-1.2796,0.0,0.0,0.0,0.0,0.0,0.0,0.0,0.0,-2.8694,0.0,-3.4363,-3.6733,-3.8714,-4.0103,-4.0849,-4.257,-4.5744,-4.7377,-4.8028,-4.7614,-4.9473,-5.0069,-4.8974,-5.0529,-5.1348,-5.1307,-5.1937,-5.2353,-5.2498,-5.2,-5.2083,-5.2684,-5.2864,-5.3384,-5.4176,-5.4881,-5.4959,-5.4606,-5.4606,-5.4405,-5.4042,-5.3701,-5.3634,-5.3733,-5.37,-5.37,-5.3717,0.4686,0.5007,0.5132,0.5237,0.5748,0.6296,0.671,0.6486,0.6185,0.5968,0.7607,0.8426,0.0,0.0,0.0,0.0,0.0,0.0,0.8167,0.0,0.6366,0.6194,0.4958,0.4869,0.6127,0.4886,0.4226,0.4226,0.3858,0.3651,0.3602,0.3356,0.3334,0.3441,0.308,0.0,0.0,0.0,0.2224,0.0,0.1832,0.2779,0.0,0.2565,0.2275,0.2612,0.0816,0.0727,0.1218,0.0,-0.0342,-0.0506,0.0,-0.2125,-0.3666,-0.3272,0.0,0.0,0.0,0.0,0.0,0.0,-1.0284,0.0,0.0,0.0,-1.2846,-1.3287,0.0,0.0,0.0,0.0,0.0,0.0,0.0,0.0,-2.3182,-2.5561,-2.8106,-3.0593,-3.436,-3.6939,-3.7401,-3.837,-4.0017,-4.2534,-4.3032,-4.4048,-4.5955,-4.8396,-4.9525,-4.9083,-5.0044,-5.078,-5.1307,-5.1375,-5.1792,-5.2498,-5.2434,-5.2423,-5.2526,-5.2673,-5.3184,-5.3958,-5.4215,-5.4747,-5.5367,-5.5367,-5.5408,-5.535,-5.4154,-5.3783,-5.3948,-5.3783,-5.37,-5.3684,0.4253,0.4584,0.0,0.4531,0.5051,0.5596,0.5885,0.6142,0.6225,0.6037,0.6813,0.0,0.0,0.0,0.0,0.0,0.0,0.8443,0.0,0.0,0.6833,0.6317,0.4706,0.4367,0.5519,0.4438,0.3762,0.356,0.3401,0.3159,0.2845,0.2775,0.2929,0.3262,0.2741,0.0,0.2882,0.0,0.2305,0.0,0.0,0.0,0.0,0.232,0.188,0.1654,-0.0718,-0.0895,-0.0277,0.0,-0.2197,0.0,0.0,0.0,0.0,0.0,0.0,0.0,0.0,0.0,0.0,0.0,0.0,0.0,-1.1783,0.0,-1.4127,0.0,0.0,0.0,0.0,0.0,0.0,0.0,-2.2035,0.0,0.0,0.0,-2.5729,0.0,0.0,0.0,-3.6331,-3.8262,-4.0048,-4.1722,-4.176,-4.2603,-4.465,-4.6028,-4.7073,-4.7749,-4.8571,-4.9331,-5.0018,-5.0877,-5.1466,-5.181,-5.2281,-5.2498,-5.2516,-5.3075,-5.3778,-5.4571,-5.5194,-5.5758,-5.6213,-5.6213,-5.6085,-5.5826,-5.5238,-5.5034,-5.5022,-5.4961,-5.487,-5.4782,0.3649,0.0,0.0,0.0,0.4195,0.4638,0.4875,0.5487,0.5901,0.5862,0.0,0.0,0.692,0.7336,0.0,0.0,1.0174,1.0153,0.0,0.0,0.8152,0.7453,0.5239,0.0,0.0,0.4324,0.3509,0.3163,0.3024,0.2757,0.2353,0.2367,0.2584,0.2928,0.2437,0.2521,0.2975,0.0,0.0,0.2798,0.2194,0.232,0.2741,0.2065,0.1559,0.0897,-0.1399,-0.1678,-0.1331,-0.3404,-0.3433,0.0,-0.4458,0.0,0.0,0.0,0.0,0.0,-0.8644,0.0,0.0,0.0,0.0,0.0,0.0,0.0,0.0,0.0,0.0,0.0,0.0,0.0,0.0,0.0,0.0,-2.359,0.0,-2.2945,0.0,0.0,0.0,0.0,0.0,-3.5917,-3.7577,-3.9423,-3.9346,-4.0443,-4.3244,-4.4017,-4.5132,-4.6809,-4.741,-4.8172,-4.9128,-5.0185,-5.0961,-5.1397,-5.1978,-5.2377,-5.2613,-5.3226,-5.409,-5.5091,-5.5785,-5.6418,-5.7007,-5.7007,-5.6817,-5.6545,-5.651,-5.6412,-5.6322,-5.5991,-5.5794,-5.5641,0.2794,0.2947,0.0,0.0,0.0,0.3566,0.3885,0.4516,0.5016,0.0,0.0,0.0,0.0,0.0,0.0,0.0,0.0,1.3869,1.5112,0.0,1.0921,1.0568,0.7203,0.5839,0.0,0.4941,0.3684,0.329,0.2839,0.257,0.2496,0.236,0.2305,0.2336,0.2312,0.231,0.234,0.2296,0.2329,0.2411,0.2236,0.1872,0.1428,0.0,0.1561,0.0729,-0.0504,0.0,0.0,-0.2579,-0.3213,0.0,0.0,0.0,0.0,0.0,0.0,0.0,0.0,0.0,0.0,-1.2225,0.0,0.0,0.0,0.0,-1.7725,0.0,0.0,0.0,0.0,0.0,0.0,-2.313,0.0,0.0,0.0,0.0,0.0,0.0,0.0,0.0,0.0,-2.9539,-3.0536,0.0,-3.4316,-3.6468,-4.1596,-4.2919,-4.46,-4.6925,-4.7016,-4.7744,-4.9195,-4.9229,-5.0049,-5.1602,-5.162,-5.2036,-5.2783,-5.282,-5.3695,-5.5212,-5.5231,-5.6213,-5.7768,-5.7768,-5.7839,-5.7909,-5.7792,-5.7745,-5.7589,-5.6412,-5.5984,-5.589,0.0,0.0,0.0,0.0,0.0,0.3359,0.3591,0.4464,0.0,0.0,0.0,0.0,0.0,0.9806,1.1056,0.0,0.0,1.252,1.3312,1.164,0.0,0.0,0.0,0.585,0.0,0.0,0.3601,0.3093,0.2637,0.2282,0.2023,0.1852,0.0,0.1985,0.2116,0.2362,0.0,0.0,0.0,0.0,0.0,0.131,0.2023,0.0,0.0492,-0.0728,-0.2182,-0.3244,0.0,-0.5331,-0.5598,-0.5751,-0.7376,-0.7658,-0.7923,-1.0785,-1.1726,0.0,0.0,0.0,-1.6171,-1.4782,0.0,0.0,0.0,0.0,0.0,0.0,0.0,0.0,0.0,0.0,0.0,-2.3854,-2.4751,0.0,0.0,0.0,0.0,0.0,0.0,0.0,0.0,0.0,-3.0596,-3.1985,-3.4006,-3.6778,-4.0418,-4.1938,-4.4049,-4.6964,-4.6524,-4.6961,-4.8512,-4.8981,-4.9868,-5.1216,-5.175,-5.243,-5.3201,-5.3247,-5.402,-5.535,-5.5418,-5.6401,-5.7927,-5.7927,-5.7973,-5.7997,-5.795,-5.7927,-5.7862,-5.7358,-5.7134,-5.6964,0.2514,0.0,0.0,0.0,0.0,0.0,0.0,0.0,0.0,0.0,0.7487,0.0,0.9813,0.0,1.1053,0.0,1.2597,1.2683,1.3153,1.1821,0.0,0.9787,0.7757,0.0,0.0,0.0,0.4148,0.342,0.2915,0.2391,0.1869,0.0,0.0,0.0,0.0,0.209,0.2475,0.0,0.1674,0.0,0.0,-0.0104,0.0,0.0,-0.0609,-0.12,0.0,-0.4756,-0.5594,-0.6821,-0.7217,-0.7577,-0.9066,-0.9622,-1.0236,-1.3034,-1.3846,-1.4349,-1.6633,-1.8101,0.0,-1.8197,-1.9606,0.0,-1.8995,0.0,0.0,0.0,0.0,0.0,0.0,0.0,0.0,-2.6091,-2.6052,0.0,0.0,-2.2142,0.0,0.0,0.0,0.0,0.0,0.0,-2.9161,-3.0607,-3.2685,-3.5426,0.0,-4.0884,-4.3205,-4.614,-4.625,-4.6762,-4.7806,-4.8515,-4.9629,-5.112,-5.1639,-5.2529,-5.372,-5.3758,-5.4535,-5.5868,-5.5949,-5.6829,-5.8213,-5.8369,-5.8326,-5.8213,-5.8213,-5.8213,-5.8186,-5.7955,-5.7679,-5.7394,0.0,0.0,0.0,0.0,0.2472,0.0,0.0,0.0,0.5448,0.0,0.7708,0.9238,1.021,1.1084,1.2073,1.3303,1.3864,0.0,1.4643,1.3054,0.0,0.0,0.9247,0.8003,0.7443,0.0,0.0,0.0,0.3604,0.2841,0.201,0.0,0.0,0.0,0.1268,0.0,0.1651,0.0727,0.0463,0.0427,-0.1215,-0.2179,-0.2618,-0.2793,-0.1839,-0.0831,-0.417,-0.5427,-0.565,-0.6874,-0.7983,-0.914,-1.0398,-1.2132,-1.4132,-1.6187,-1.7411,-1.8245,-1.9099,-1.9965,-2.1014,-2.2418,-2.3974,0.0,0.0,0.0,-2.6687,0.0,0.0,0.0,0.0,0.0,0.0,0.0,-2.7565,0.0,0.0,0.0,0.0,0.0,0.0,0.0,0.0,0.0,-2.626,-2.9721,-3.0306,0.0,0.0,-3.9792,-4.2141,-4.4544,-4.6232,-4.7094,-4.7094,-4.7901,-4.9306,-5.1266,-5.1322,-5.2356,-5.4276,-5.4313,-5.5179,-5.67,-5.67,-5.7435,-5.8669,-5.9027,-5.8969,-5.8628,-5.8607,-5.8586,-5.8503,-5.8142,-5.7637,-5.7141,0.1533,0.1536,0.1662,0.0,0.2457,0.255,0.0,0.0,0.0,0.0,0.7904,0.9231,1.0112,1.1206,1.1785,1.1746,1.2275,0.0,0.0,0.0,0.0,1.0603,0.937,0.8513,0.7989,0.6441,0.0,0.4788,0.0,0.0,0.2211,0.0,0.0,0.0,0.0,0.0,0.0658,0.0,-0.0599,-0.1194,-0.2606,-0.2457,-0.1797,0.0,-0.4329,-0.3113,-0.4773,-0.5984,-0.693,-0.8094,-0.8644,-0.9251,-1.1324,-1.2788,-1.4234,-1.7095,-1.8523,-1.9897,-2.3066,-2.406,-2.468,-2.6388,-2.7618,-2.8512,0.0,0.0,0.0,0.0,0.0,0.0,0.0,0.0,0.0,0.0,0.0,0.0,0.0,0.0,0.0,-2.3635,0.0,0.0,0.0,-2.5366,-2.6679,-2.6832,-3.0216,0.0,-3.6575,-3.9004,-4.1381,-4.3718,-4.5938,-4.7094,-4.7094,-4.7901,-4.9122,-5.0785,-5.1401,-5.2409,-5.38,-5.4405,-5.5414,-5.67,-5.67,-5.7584,-5.9046,-5.9159,-5.914,-5.9008,-5.873,-5.8434,-5.8142,-5.8042,-5.7909,-5.7774,0.1258,0.0,0.0,0.1429,0.0,0.0,0.3048,0.0,0.0,0.7031,0.8374,0.0,1.035,1.1305,1.1735,1.1405,1.1867,0.0,1.1792,0.0,0.0,1.0526,0.9797,0.9158,0.8744,0.7261,0.0,0.5396,0.0,0.0,0.1996,0.0,0.0,0.0,0.0,0.0682,0.0,-0.0777,-0.2074,-0.349,-0.4514,-0.4881,0.0,-0.69,-0.7285,-0.6898,-0.7613,-0.7911,-0.8039,-0.8702,-0.9849,-1.1206,-1.2571,-1.4486,-1.6594,-1.8338,-2.0177,-2.2322,-2.5469,-2.7238,-2.8802,-3.1062,-3.2938,-3.4085,-3.3671,-3.5251,-3.6877,0.0,-3.6913,-3.6753,0.0,0.0,0.0,0.0,0.0,0.0,0.0,0.0,0.0,0.0,-2.433,0.0,0.0,0.0,-2.6204,-2.5865,-2.8807,0.0,0.0,-3.7381,-4.0114,-4.135,-4.5287,-4.7112,-4.6581,-4.8048,-4.9394,-5.061,-5.1559,-5.2654,-5.3848,-5.4685,-5.5858,-5.7226,-5.7226,-5.8075,-5.9485,-5.9639,-5.9605,-5.9432,-5.9008,-5.85,-5.7997,-5.7997,-5.7997,-5.7997,0.0,0.0,0.0,0.0,0.0,0.0,0.0,0.5374,0.0,0.7342,0.0,0.9756,1.0425,1.1227,1.1696,1.1816,0.0,1.2184,1.1955,1.1486,1.1057,1.0771,1.0258,0.9851,0.9459,0.8111,0.0,0.0,0.0,0.0,0.0,0.0,0.0,0.0,0.0,0.0,0.0,-0.1943,-0.3858,-0.5933,-0.6601,-0.7873,-0.942,-0.9544,-1.0154,-1.0945,-1.1286,-1.0456,-0.9227,-0.9521,-1.1494,-1.3898,-1.4321,-1.6868,-1.9821,-2.0315,-2.2584,-2.5402,-2.7634,-3.025,-3.3068,-3.5993,-3.8545,-3.9928,-3.8436,-3.9058,-4.0209,-4.1121,-3.8984,-3.8923,0.0,0.0,0.0,0.0,0.0,0.0,0.0,0.0,0.0,0.0,0.0,0.0,0.0,0.0,0.0,0.0,0.0,0.0,0.0,0.0,-3.851,-3.9148,-4.4594,-4.7075,-4.6139,-4.8314,-4.9766,-5.0519,-5.1716,-5.287,-5.397,-5.5059,-5.6415,-5.7905,-5.8001,-5.8744,-5.9906,-6.027,-6.0159,-5.9758,-5.9415,-5.8811,-5.8142,-5.8142,-5.8142,-5.8142,0.0,0.0,0.0,0.0,0.0,0.3748,0.5101,0.5179,0.5187,0.5455,0.7107,0.8529,0.9437,1.0399,1.1212,1.1756,1.2298,0.0,0.0,0.0,0.0,1.0983,1.0364,0.9921,0.9567,0.7516,0.615,0.0,0.0,0.0,0.1591,0.0,0.0,0.0,0.0,0.0,-0.356,-0.4499,0.0,-0.7538,-0.7676,-0.842,-0.9482,-1.0421,-1.1359,-1.2228,-1.325,-1.2356,-1.0903,-1.2847,-1.3918,-1.4865,-1.7615,-1.9434,-2.1086,-2.4074,-2.6386,-2.8876,-3.2759,-3.4757,-3.6633,-4.0278,-4.1313,-4.1958,-4.4012,-4.4439,-4.4792,-4.6277,-4.6093,-4.5297,-4.3974,0.0,0.0,0.0,0.0,0.0,0.0,0.0,0.0,0.0,0.0,-2.7712,0.0,0.0,0.0,0.0,0.0,0.0,0.0,0.0,-3.6393,0.0,-4.4881,-4.6861,0.0,-4.8655,-4.9539,-5.0044,-5.158,-5.2566,-5.3091,-5.5365,-5.6931,-5.7944,-5.8612,-5.9425,-6.0299,-6.0375,-6.0159,-5.9791,-5.9725,-5.9415,-5.8988,-5.8988,-5.8988,-5.8949,0.0,0.0,0.0,0.0,0.0,0.0,0.0,0.3698,0.0,0.63,0.7278,0.8208,0.9121,0.9999,1.0789,1.1454,1.2118,1.2303,1.2005,1.1579,1.1178,1.0917,1.034,0.0,0.8564,0.7023,0.5643,0.4473,0.0,0.0,0.0877,0.0605,0.0,0.0,0.0,-0.32,0.0,0.0,0.0,-1.0144,-1.0603,-1.168,-1.3068,-1.3664,-1.4799,-1.6147,-1.6844,-1.6838,-1.6383,-1.553,-1.6319,-1.7984,-1.9597,-2.2299,-2.5237,-2.7002,-3.0094,-3.3538,-3.6074,-3.8349,-4.0614,-4.3174,-4.4347,-4.5185,-4.648,-4.7137,-4.7557,-4.7927,-4.8329,-4.7567,-4.4094,-3.9919,0.0,0.0,0.0,0.0,0.0,0.0,0.0,0.0,0.0,0.0,0.0,0.0,0.0,0.0,0.0,0.0,-3.0132,0.0,-3.5184,0.0,0.0,0.0,-4.791,0.0,-4.987,-4.9876,-5.1686,-5.2654,-5.2881,-5.5441,-5.7084,-5.7944,-5.8746,-5.96,-6.0444,-6.0444,-6.0217,-5.9855,-5.9807,-5.9554,-5.9215,-5.9215,-5.9215,-5.9159,0.0,0.045,0.0,0.0,0.0761,0.0,0.0603,0.2512,0.4798,0.6763,0.7502,0.8248,0.9192,0.9672,1.0325,1.1331,1.1687,1.1671,1.1402,1.0967,1.0479,0.9866,0.9351,0.8487,0.7231,0.6204,0.4817,0.0,0.0,0.0,0.0,-0.0588,0.0,0.0,0.0,0.0,0.0,0.0,-1.1419,-1.3607,-1.4213,-1.5532,-1.7148,-1.7427,-1.8657,-2.0274,-2.07,-2.163,-2.2214,-1.9354,-1.9711,-2.1387,-2.2306,-2.5548,-2.9296,-3.0448,-3.3975,-3.7813,-3.927,-4.1736,-4.4267,-4.5846,-4.7135,-4.8076,-4.8269,-4.884,-4.9211,-4.8842,-4.9234,-4.8466,-4.4718,-4.1862,0.0,0.0,0.0,0.0,0.0,0.0,0.0,0.0,0.0,0.0,-2.8667,0.0,0.0,0.0,0.0,0.0,-2.8623,-3.0552,-3.4027,-3.9432,0.0,-4.5938,-4.7486,0.0,-5.0353,-5.0078,-5.1821,-5.285,-5.3283,-5.561,-5.7289,-5.8354,-5.9088,-5.9827,-6.0499,-6.0499,-6.0289,-6.0015,-5.9953,-5.9741,-5.945,-5.945,-5.945,-5.945,0.0,0.0,0.0,0.0,0.0,0.0,0.2227,0.3181,0.4078,0.4425,0.6601,0.8554,0.9553,0.91,0.9588,1.1642,1.1063,1.0374,0.998,0.9367,0.8395,0.6869,0.649,0.6101,0.5766,0.4375,0.2898,0.0,0.0,-0.0911,-0.2229,-0.1844,0.0,0.0,0.0,0.0,0.0,-1.2776,-1.5014,-1.8035,-1.8087,-1.8707,-1.9664,-2.0783,-2.1806,-2.2816,-2.3853,-2.5,-2.6018,-2.6514,-2.5054,-2.3751,-2.7559,-2.926,-3.0828,-3.5802,-3.8341,-4.0236,-4.3464,-4.5243,-4.6743,-4.8992,-4.9169,-4.9223,-5.0937,-5.0265,-4.9621,-5.0768,-5.0813,-4.9393,-4.5214,-4.6706,-4.6519,0.0,0.0,0.0,0.0,0.0,-3.8108,-3.5626,0.0,0.0,0.0,-2.6707,0.0,0.0,-2.541,0.0,-2.9655,-2.9392,-3.2348,-3.9375,-4.111,-4.3102,-4.5537,-4.9084,-5.0852,-5.0905,-5.1768,-5.298,-5.4584,-5.6213,-5.7941,-5.9641,-6.0223,-6.0475,-6.0499,-6.0499,-6.0444,-6.0342,-6.0361,-6.0313,-6.0299,-6.0299,-6.0299,-6.0299,0.0,0.0,0.0,0.0,0.0,0.0,0.0,0.2038,0.2864,0.2911,0.5281,0.7454,0.8854,0.8791,0.8958,0.9787,0.9337,0.8806,0.8438,0.7809,0.7091,0.641,0.61,0.5367,0.4292,0.2732,0.1231,0.0,0.0,-0.2409,-0.3177,-0.4038,0.0,0.0,0.0,-1.3311,-1.5698,-1.7773,-1.9939,-2.2007,-2.2873,-2.3648,-2.4371,-2.5004,-2.6015,-2.7208,-2.8308,-2.9673,-3.1113,-3.2104,-3.0499,-2.8573,-3.1201,-3.3719,-3.6279,-3.9107,-4.177,-4.4207,-4.5879,-4.7441,-4.8897,-5.0164,-5.0886,-5.1447,-5.2051,-5.1617,-5.114,-5.1269,-5.1123,-5.0468,-4.878,-4.7561,-4.6406,-4.516,0.0,0.0,0.0,0.0,0.0,0.0,0.0,-3.3099,0.0,0.0,0.0,0.0,0.0,0.0,-2.917,-3.0637,-3.3876,-3.9315,0.0,-4.5052,-4.7088,-4.9632,-5.092,-5.0953,-5.1721,-5.302,-5.476,-5.6372,-5.8355,-6.0503,-6.0276,-6.0432,-6.0845,-6.0734,-6.0669,-6.0622,-6.0466,-6.0403,-6.0403,-6.0403,-6.0403,-6.0403,-0.2893,0.0,-0.2887,0.0,-0.1029,-0.1105,-0.013,0.0856,0.1656,0.2053,0.3671,0.553,0.7478,0.7674,0.7726,0.7948,0.7555,0.7283,0.7255,0.6803,0.6517,0.6387,0.6074,0.0,0.2912,0.1636,-0.0347,-0.3062,-0.3845,-0.4734,-0.5736,-0.7379,0.0,0.0,-1.5924,-1.8025,-1.9675,-2.2448,-2.4621,-2.6346,-2.7454,-2.8351,-2.9081,-2.9559,-3.0464,-3.1605,-3.248,-3.3837,-3.5365,-3.634,-3.5721,-3.4661,-3.5211,-3.7519,-4.0322,-4.1981,-4.4495,-4.6851,-4.7589,-4.8887,-5.0178,-5.0867,-5.1986,-5.2931,-5.3067,-5.2718,-5.2157,-5.1406,-5.1196,-5.1155,-5.1155,-4.8762,-4.7011,-4.7713,0.0,0.0,0.0,-4.1348,0.0,0.0,-3.5053,-3.3355,-3.3261,-3.0425,0.0,0.0,0.0,0.0,0.0,-3.2341,0.0,0.0,0.0,0.0,-4.7703,-4.9939,-5.1053,-5.1053,-5.1883,-5.3327,-5.5336,-5.7527,-5.9445,-6.1027,-6.0544,-6.0626,-6.1092,-6.0954,-6.0834,-6.0754,-6.0572,-6.0453,-6.0403,-6.0403,-6.0403,-6.0403,-0.4284,-0.4275,-0.3795,-0.2342,-0.2061,-0.1611,-0.0202,0.0,0.0538,0.1949,0.1814,0.2618,0.5168,0.5441,0.581,0.6634,0.6043,0.5942,0.6684,0.6677,0.6549,0.0,0.0,0.4467,0.1569,0.1097,-0.1721,-0.7114,0.0,0.0,-1.0724,0.0,-1.4065,-1.655,-1.8745,-2.1399,-2.4358,-2.6323,-2.8643,-3.1046,-3.1563,-3.2397,-3.3452,-3.4534,-3.5102,-3.5503,-3.6133,-3.7098,-3.8203,-3.9139,-4.0673,-4.1872,-4.0026,-4.0237,-4.1733,-4.462,-4.6303,-4.7474,-4.879,-4.9588,-5.0251,-5.1312,-5.2263,-5.3185,-5.422,-5.3449,-5.2242,-5.1294,-5.1211,-5.1296,-5.1296,-5.1261,-5.0088,-4.6591,0.0,0.0,0.0,0.0,0.0,-3.6138,-3.2825,-3.1445,-3.3233,-3.1016,0.0,0.0,0.0,0.0,0.0,0.0,0.0,-4.0815,-4.2763,0.0,-4.6318,-4.9694,-5.1392,-5.1392,-5.2271,-5.4066,-5.6682,-6.0098,-6.1487,-6.1193,-6.1334,-6.1265,-6.1101,-6.1098,-6.0935,-6.0707,-6.0708,-6.0565,-6.0403,-6.0403,-6.0403,-6.0403,-0.6191,-0.7061,-0.7238,-0.4783,-0.5147,-0.4961,-0.2552,-0.2016,-0.1411,-0.0269,0.0471,0.1076,0.1681,0.3292,0.4491,0.0,0.5333,0.5856,0.0,0.6679,0.6454,0.6396,0.4168,0.2392,0.1211,-0.2019,-0.4959,-0.7603,0.0,0.0,0.0,-1.6156,-1.9084,-2.2713,-2.433,-2.6546,-2.9256,-3.1456,-3.2964,-3.4221,-3.7034,-3.84,-3.8863,-3.9989,-4.0519,-4.0605,-4.0445,-4.0923,-4.1718,-4.2735,-4.3768,-4.4609,-4.4495,-4.4652,-4.5203,-4.6974,-4.8266,-4.9278,-5.0085,-5.1128,-5.2062,-5.2409,-5.346,-5.4496,-5.4822,-5.4054,-5.3023,-5.2162,-5.1624,-5.13,-5.13,-5.13,-5.0544,-4.8229,-4.7075,0.0,-4.3037,0.0,-3.937,-3.8555,-3.7015,-3.6238,-3.6812,-3.5091,0.0,0.0,0.0,0.0,0.0,0.0,0.0,0.0,-4.4733,0.0,-4.7998,-5.0262,-5.1394,-5.1414,-5.2897,-5.4927,-5.7504,-5.9788,-6.0762,-6.0664,-6.0701,-6.1019,-6.15,-6.1348,-6.1232,-6.1084,-6.0815,-6.0654,-6.0578,-6.0453,-6.0487,-6.0603,-0.8136,-0.9254,-0.9573,-0.67,-0.69,-0.67,-0.436,-0.3824,-0.3289,-0.2017,-0.1412,-0.1076,-0.1009,0.0672,0.0,0.2482,0.2683,0.3687,0.5826,0.5223,0.5471,0.6949,0.4425,0.2301,0.0847,-0.309,0.0,-0.8901,-1.2273,-1.5955,-1.9903,-2.1813,-2.441,-2.7645,-2.9798,-3.1768,-3.3549,-3.621,-3.7635,-3.8333,-4.1352,-4.2773,-4.3177,-4.4463,-4.4898,-4.4923,-4.4827,-4.5211,-4.584,-4.6475,-4.7323,-4.8162,-4.8628,-4.8939,-4.9093,-4.8781,-4.9465,-5.0452,-5.1104,-5.2092,-5.2939,-5.3134,-5.4156,-5.5077,-5.5047,-5.4607,-5.3869,-5.2708,-5.2115,-5.169,-5.1359,-5.13,-5.0728,-4.8978,-4.7244,-4.5508,-4.3779,0.0,-3.9503,0.0,0.0,0.0,0.0,-3.7791,-3.7929,0.0,0.0,0.0,0.0,0.0,-4.1505,-4.2689,-4.7002,-4.9442,-4.9774,-5.0867,-5.1726,-5.2409,-5.4459,-5.6606,-5.8812,-5.9905,-6.0588,-6.09,-6.0895,-6.1203,-6.1682,-6.1545,-6.1376,-6.1199,-6.0925,-6.0737,-6.0622,-6.0533,-6.059,-6.0716,-1.012,-1.0899,-1.0948,0.0,-0.7702,0.0,-0.5832,-0.5631,-0.5096,-0.3624,-0.3761,-0.3762,-0.3091,-0.2419,-0.168,-0.0873,0.0,0.0,0.0,0.3147,0.4016,0.7629,0.6028,0.3547,0.0267,-0.2725,-0.6607,-1.1355,-1.8179,-2.3364,-2.6987,-2.8258,-2.9748,-3.1568,-3.4976,-3.68,-3.7465,-4.0545,-4.2301,-4.3128,-4.4684,-4.577,-4.6594,-4.7882,-4.8391,-4.8464,-4.8904,-4.9511,-5.0093,-5.0093,-5.0922,-5.2013,-5.2107,-5.2739,-5.2919,-5.0258,-5.0192,-5.1201,-5.1968,-5.2601,-5.3167,-5.3668,-5.4496,-5.5162,-5.5045,-5.5107,-5.4745,-5.3112,-5.2684,-5.2353,-5.1538,-5.1304,-5.0649,-4.8896,-4.7164,-4.5433,-4.3759,-4.1474,-3.9409,0.0,0.0,0.0,-3.6699,-3.9551,-4.1387,0.0,0.0,0.0,0.0,0.0,-4.1704,-4.7512,-4.9325,-5.0575,-5.1396,-5.1513,-5.2487,-5.4283,-5.6723,-5.8734,-6.0315,-6.0432,-6.09,-6.1601,-6.1666,-6.1707,-6.1698,-6.1631,-6.1413,-6.1131,-6.1065,-6.0836,-6.0565,-6.0681,-6.0719,-6.0765,0.0,0.0,-1.2022,-1.0243,-0.9915,-0.9446,-0.8038,-0.7567,-0.7096,-0.6229,-0.5897,-0.5964,-0.6293,-0.5964,-0.523,-0.3887,-0.0402,0.2747,0.536,0.5162,0.5295,0.5964,0.3211,0.0267,-0.266,-0.6082,-1.0841,-1.6926,-2.2169,-2.5743,-2.7796,-2.9575,-3.2581,-3.6591,-3.7881,-4.0056,-4.2898,-4.4605,-4.5511,-4.6012,-4.8386,-4.9491,-4.987,-5.0886,-5.1295,-5.1178,-5.0191,-5.027,-5.0857,-5.0857,-5.136,-5.2162,-5.3086,-5.3602,-5.3624,-5.2373,-5.2574,-5.3158,-5.3171,-5.3757,-5.4412,-5.4705,-5.5355,-5.5962,-5.6085,-5.5647,-5.5076,-5.4667,-5.3541,-5.254,-5.233,-5.1241,-4.9808,-4.8062,-4.6355,-4.4663,-4.2928,-4.2168,-4.164,0.0,-4.2363,-4.3105,-4.2891,-4.3613,-4.3535,0.0,0.0,-4.3085,-4.3962,-4.3688,-4.5053,-4.8486,-5.0222,-5.1196,-5.1407,-5.2713,-5.4564,-5.6918,-5.8187,-5.9007,-5.9456,-6.0783,-6.1134,-6.0744,-6.1403,-6.1696,-6.1698,-6.1674,-6.1628,-6.1541,-6.137,-6.1239,-6.1103,-6.0972,-6.1027,-6.1158,-1.3661,-1.3144,-1.2557,-1.1769,-1.1244,-1.0651,-0.9911,-0.9573,-0.9169,-0.8294,-0.7897,-0.77,-0.7964,-0.7836,-0.69,-0.4756,-0.2077,0.0737,0.3752,0.3352,0.2745,0.2202,-0.0133,-0.2865,-0.6039,-1.0362,-1.6265,-2.381,-2.701,-2.9669,-3.1623,-3.4302,-3.7152,-4.0039,-4.2189,-4.4341,-4.6472,-4.8276,-4.916,-4.9494,-5.1728,-5.2705,-5.2901,-5.3501,-5.3725,-5.3621,-5.2795,-5.2937,-5.3517,-5.371,-5.4198,-5.4856,-5.5716,-5.6067,-5.6045,-5.5491,-5.5073,-5.4792,-5.4633,-5.5023,-5.5508,-5.559,-5.5971,-5.6377,-5.6474,-5.6132,-5.5684,-5.5271,-5.4461,-5.3553,-5.2757,-5.1564,-4.9981,-4.7849,-4.5761,-4.4082,-4.3121,-4.2318,-4.2259,-4.345,-4.4783,-4.5585,-4.5585,-4.668,-4.6641,-4.4902,-4.5449,0.0,-4.7167,-4.7675,-4.8396,-4.9427,-5.0715,-5.1593,-5.1999,-5.4518,-5.6665,-5.8398,-5.9276,-5.9899,-6.0309,-6.085,-6.1063,-6.1026,-6.1488,-6.1698,-6.1698,-6.1698,-6.166,-6.16,-6.1442,-6.131,-6.1204,-6.1147,-6.1206,-6.131,-1.5233,-1.4058,-1.3079,-1.2816,-1.1901,-1.1181,-1.1181,-1.1247,-1.0975,-1.0098,-0.9766,-0.9504,-0.9238,-0.9105,-0.7897,-0.5285,-0.4959,-0.3284,0.0536,-0.0737,-0.1938,-0.2591,-0.3795,-0.6055,-0.9554,-1.5418,-2.2325,-3.0213,-3.2242,-3.4532,-3.6964,-4.0259,-4.2331,-4.344,-4.6933,-4.8767,-4.9473,-5.1579,-5.2584,-5.2876,-5.4353,-5.5009,-5.5142,-5.5325,-5.5385,-5.5385,-5.5385,-5.583,-5.6465,-5.6873,-5.7461,-5.809,-5.8566,-5.8752,-5.8762,-5.8547,-5.7563,-5.65,-5.6266,-5.6316,-5.643,-5.64,-5.645,-5.6507,-5.6507,-5.6496,-5.6285,-5.5541,-5.5295,-5.4745,-5.3266,-5.2114,-5.0467,-4.7596,-4.5427,-4.3862,-4.3201,0.0,-4.2759,-4.51,-4.6381,-4.7127,-4.7244,-4.9277,-5.0019,-4.8672,-5.0449,-5.1601,-5.1601,-5.1601,-5.1191,-5.0326,-5.1146,-5.2201,-5.347,-5.6418,-5.837,-5.9308,-6.005,-6.0791,-6.1475,-6.0861,-6.0995,-6.1699,-6.1705,-6.1701,-6.1703,-6.1701,-6.1631,-6.1528,-6.1471,-6.1334,-6.1199,-6.133,-6.1353,-6.1368,-1.6915,-1.5554,-1.4189,-1.3013,-1.1901,-1.1181,-1.1181,-1.1516,-1.178,-1.1839,-1.1839,-1.1905,-1.2103,-1.1365,-1.0157,-0.8477,-0.8074,-0.6402,-0.307,-0.5391,-0.7042,-0.7436,-0.7639,-0.9291,-1.253,-2.1708,-2.8413,-3.2572,-3.6993,-4.0173,-4.2109,-4.4052,-4.6667,-4.9775,-5.0636,-5.2131,-5.3972,-5.4158,-5.4485,-5.4932,-5.5029,-5.5189,-5.5355,-5.5385,-5.5385,-5.5385,-5.5385,-5.6057,-5.6906,-5.6964,-5.7661,-5.8586,-5.9121,-5.9271,-5.9361,-5.9706,-5.9722,-5.9315,-5.7953,-5.7332,-5.7098,-5.7254,-5.6897,-5.6507,-5.6507,-5.6507,-5.6458,-5.6322,-5.571,-5.5129,-5.4843,-5.2949,-5.0076,-4.6037,-4.5662,-4.4606,-4.0912,0.0,-4.5922,-4.7053,-4.9213,-5.0896,-5.1638,-5.207,-5.2519,-5.2969,-5.2695,-5.25,-5.25,-5.25,-5.2109,-5.123,-5.2031,-5.3983,-5.7067,-5.763,-5.8663,-6.0207,-6.0342,-6.0479,-6.0616,-6.1214,-6.1564,-6.1707,-6.1709,-6.1705,-6.1694,-6.1703,-6.1693,-6.1666,-6.1666,-6.1627,-6.161,-6.1635,-6.1607,-6.1561,-1.8343,-1.6068,-1.4184,-1.4446,-1.2688,-1.1449,-1.171,-1.1978,-1.2177,-1.2507,-1.2441,-1.2441,-1.277,-1.2371,-1.149,-1.0072,-1.1194,-1.0975,-0.8764,-0.8231,-0.8824,-1.0747,-1.2495,-1.6764,-2.3932,-2.978,-3.4617,-3.8498,-4.2308,-4.4663,-4.5627,-4.7907,-4.9858,-5.1458,-5.284,-5.4015,-5.5049,-5.5543,-5.5842,-5.5978,-5.6358,-5.6606,-5.6755,-5.6755,-5.6899,-5.7114,-5.7114,-5.743,-5.789,-5.8116,-5.8514,-5.9026,-5.9558,-5.9746,-5.9828,-6.0122,-5.9921,-5.9502,-5.9,-5.8374,-5.7918,-5.8239,-5.7717,-5.7158,-5.7189,-5.6842,-5.6494,-5.6495,-5.6185,-5.5762,-5.5292,-5.3509,-5.1292,-4.8859,-4.6846,-4.5382,-4.4738,-4.56,-4.7126,-4.9389,-5.11,-5.2434,-5.3315,-5.3396,-5.3574,-5.3965,-5.3183,-5.289,-5.3312,-5.2499,-5.2226,-5.2726,-5.3583,-5.5243,-5.7767,-5.8725,-5.9821,-6.1051,-6.1074,-6.1092,-6.1111,-6.1517,-6.1692,-6.1694,-6.1699,-6.1694,-6.1699,-6.1669,-6.1652,-6.1633,-6.1601,-6.1582,-6.1601,-6.162,-6.1621,-6.1601,-1.9884,-1.7157,-1.4958,-1.6193,-1.3993,-1.2235,-1.2696,-1.2568,-1.2507,-1.277,-1.27,-1.2766,-1.3034,-1.3161,-1.282,-1.1801,-1.3792,-1.4688,-1.3669,-1.2244,-1.2471,-1.4809,-1.8643,-2.4865,-3.3765,-3.6634,-4.0181,-4.4473,-4.7304,-4.893,-4.9528,-5.1908,-5.3063,-5.3188,-5.4928,-5.5758,-5.5842,-5.6729,-5.7066,-5.7021,-5.7645,-5.7978,-5.8046,-5.8046,-5.8289,-5.8607,-5.8607,-5.8669,-5.8791,-5.9103,-5.927,-5.9433,-5.9864,-6.0057,-6.0133,-6.0264,-5.9874,-5.9485,-5.9959,-5.9439,-5.887,-5.9212,-5.8652,-5.7966,-5.7841,-5.7289,-5.6735,-5.6537,-5.6504,-5.6321,-5.5658,-5.4319,-5.2819,-5.1336,0.0,-4.7198,-4.8369,-4.8096,-4.8837,-5.1668,-5.277,-5.3656,-5.4521,-5.4604,-5.4529,-5.4316,-5.3672,-5.3473,-5.3877,-5.2686,-5.2744,-5.4404,-5.5133,-5.6413,-5.8318,-5.9441,-6.0536,-6.1619,-6.1459,-6.1483,-6.1699,-6.168,-6.1699,-6.1698,-6.1708,-6.1701,-6.1683,-6.164,-6.1601,-6.1582,-6.1523,-6.1508,-6.1514,-6.1571,-6.1606,-6.1612,-2.1643,-1.9591,-1.7683,-1.7812,-1.5809,-1.4189,-1.4254,-1.3416,-1.277,-1.277,-1.3354,-1.3814,-1.3809,-1.4338,-1.467,-1.46,-1.5383,-1.5878,-1.5847,-1.9499,-2.1484,-2.1234,-2.6837,-3.1776,-3.5791,-4.0189,-4.4473,-4.8638,-5.1349,-5.3509,-5.5135,-5.6205,-5.7048,-5.7634,-5.7798,-5.7965,-5.815,-5.805,-5.827,-5.8713,-5.8568,-5.8545,-5.8545,-5.8545,-5.8566,-5.8607,-5.8607,-5.8832,-5.9159,-5.9178,-5.9488,-5.9869,-5.9963,-6.0057,-6.0133,-6.0264,-6.0416,-6.0668,-6.1062,-6.0551,-5.9931,-6.0141,-5.955,-5.8705,-5.7974,-5.7753,-5.7479,-5.6678,-5.655,-5.6569,-5.6511,-5.5749,-5.4029,-5.0729,0.0,0.0,-4.8113,-5.0301,-5.2624,-5.3678,-5.4586,-5.5451,-5.6328,-5.6414,-5.6068,-5.5252,-5.5134,-5.4758,-5.393,-5.3776,-5.4454,-5.6078,-5.6302,-5.764,-6.0175,-5.9476,-5.9965,-6.1679,-6.0824,-6.0866,-6.1699,-6.1632,-6.1634,-6.1699,-6.1694,-6.1708,-6.169,-6.1621,-6.1601,-6.1582,-6.1523,-6.1493,-6.1508,-6.1576,-6.161,-6.1609,-2.2083,-2.081,-1.9297,-1.8716,-1.7683,-1.6392,-1.4903,-1.439,-1.3809,-1.2902,-1.342,-1.3875,-1.3875,-1.4469,-1.5062,-1.5513,-1.5719,-1.7003,-2.0011,-2.4742,-2.8453,-3.0591,-3.4385,-3.847,-4.2882,-4.6242,-4.935,-5.2196,-5.501,-5.6662,-5.7224,-5.8118,-5.8482,-5.8409,-5.8581,-5.8697,-5.8775,-5.8968,-5.8987,-5.8891,-5.895,-5.8969,-5.8969,-5.8969,-5.914,-5.9399,-5.9399,-5.9488,-5.9628,-5.9628,-5.9748,-5.9902,-5.9982,-6.0057,-6.0184,-6.0613,-6.0895,-6.1134,-6.1401,-6.1162,-6.0838,-6.1065,-6.045,-5.9749,-5.9471,-5.8984,-5.851,-5.8188,-5.8137,-5.7992,-5.7445,-5.6665,-5.5669,-5.434,0.0,-5.2626,-5.2409,-5.3034,-5.3834,-5.4693,-5.5576,-5.6243,-5.6561,-5.6117,-5.5653,-5.5326,-5.4799,-5.4273,-5.3806,-5.4709,-5.5833,-5.7078,-5.76,-5.8603,-6.0144,-6.0322,-6.0775,-6.1454,-6.1124,-6.1166,-6.1504,-6.1485,-6.1549,-6.1647,-6.1635,-6.166,-6.1691,-6.1621,-6.1577,-6.1545,-6.1514,-6.148,-6.1448,-6.1513,-6.153,-6.1549,-2.3076,-2.2201,-2.0886,-1.9877,-1.9042,-1.8075,-1.6581,-1.6003,-1.5294,-1.4128,-1.459,-1.4893,-1.4507,-1.5084,-1.5749,-1.6196,-1.7194,-1.9212,-2.2532,-2.9435,-3.5002,-3.8717,-4.1201,-4.4322,-4.8317,-5.0861,-5.3254,-5.5461,-5.7434,-5.8559,-5.8878,-5.9469,-5.9535,-5.9168,-5.9353,-5.9375,-5.9305,-5.9592,-5.9539,-5.9323,-5.9466,-5.9534,-5.9618,-5.9618,-5.9774,-6.001,-6.0068,-6.001,-5.9902,-5.9963,-5.9947,-5.9902,-5.9982,-6.0114,-6.0343,-6.0845,-6.1134,-6.1337,-6.1539,-6.1495,-6.1436,-6.1562,-6.1154,-6.0643,-6.0447,-5.9932,-5.9439,-5.9167,-5.9102,-5.8929,-5.8324,-5.7758,-5.7309,-5.7016,-5.5474,-5.4635,-5.5571,-5.5181,-5.5044,-5.563,-5.6235,-5.6608,-5.6596,-5.6052,-5.5586,-5.5321,-5.4708,-5.4362,-5.443,-5.5957,-5.7268,-5.8227,-5.9025,-5.9708,-6.0305,-6.0711,-6.1039,-6.1337,-6.1359,-6.1383,-6.1393,-6.1378,-6.1422,-6.154,-6.1549,-6.158,-6.164,-6.1563,-6.1517,-6.1491,-6.1481,-6.1446,-6.1414,-6.1489,-6.149,-6.1524,-2.4748,-2.4,-2.2709,-2.1355,-1.9941,-1.91,-1.9477,-1.8378,-1.7286,-1.6576,-1.7103,-1.7027,-1.5793,-1.6476,-1.6974,-1.681,-2.0453,-2.2784,-2.2931,-3.3634,-4.1522,-4.494,-4.7179,-4.9183,-5.0976,-5.3466,-5.5928,-5.8409,-5.8409,-5.9136,-6.0492,-6.0492,-6.0474,-6.0403,-6.0403,-6.0218,-5.9899,-5.9918,-6.0026,-6.0194,-6.0194,-6.0321,-6.0495,-6.0495,-6.0376,-6.0242,-6.043,-6.0242,-5.9934,-6.0125,-6.0068,-5.9902,-5.9979,-6.0279,-6.0661,-6.0925,-6.1142,-6.1356,-6.1539,-6.16,-6.1593,-6.1606,-6.1592,-6.1384,-6.0585,-6.0412,-6.0159,-5.93,-5.9122,-5.9122,-5.9102,-5.9102,-5.8812,-5.7953,-5.7816,-5.7523,-5.6723,-5.6626,-5.6626,-5.6606,-5.6606,-5.6606,-5.6606,-5.6584,-5.6237,-5.5368,-5.5187,-5.538,-5.5971,-5.7534,-5.8807,-5.9675,-6.0543,-6.0999,-6.1002,-6.0344,-6.0481,-6.1408,-6.1331,-6.1337,-6.1408,-6.1331,-6.1343,-6.1393,-6.1393,-6.1439,-6.1494,-6.1436,-6.144,-6.15,-6.1434,-6.14,-6.1414,-6.1489,-6.149,-6.1524,-2.6156,-2.4617,-2.2952,-2.2584,-2.1587,-2.0513,-1.9668,-1.9337,-1.8754,-1.7362,-1.8515,-1.9349,-1.9075,-2.0429,-2.1855,-2.2941,-2.4152,-2.7769,-3.456,-4.2342,-4.8239,-5.1662,-5.179,-5.2371,-5.3552,-5.5737,-5.7379,-5.8409,-5.9567,-6.0313,-6.0644,-6.0937,-6.0997,-6.0884,-6.0677,-6.0552,-6.0457,-6.037,-6.0357,-6.0416,-6.0416,-6.0443,-6.0495,-6.0495,-6.0469,-6.0416,-6.0482,-6.0335,-6.011,-6.0184,-6.0068,-5.9947,-6.0199,-6.0619,-6.1046,-6.1166,-6.1344,-6.1528,-6.1578,-6.16,-6.1593,-6.1606,-6.1638,-6.16,-6.1377,-6.131,-6.1232,-6.0976,-6.0917,-6.0742,-6.0119,-6.0002,-5.9729,-5.8851,-5.8714,-5.8636,-5.8382,-5.8341,-5.8128,-5.7504,-5.7445,-5.7211,-5.6645,-5.5964,-5.5661,-5.5977,-5.6354,-5.6676,-5.69,-5.8385,-5.9393,-5.9694,-6.0543,-6.0997,-6.0999,-6.0809,-6.087,-6.1186,-6.1175,-6.1175,-6.1186,-6.1167,-6.1221,-6.1331,-6.1331,-6.1397,-6.1497,-6.1471,-6.1489,-6.1505,-6.1475,-6.1476,-6.1466,-6.1485,-6.1532,-6.1584,-2.6627,-2.5084,-2.3503,-2.2948,-2.2039,-2.1173,-2.0456,-2.0645,-2.0384,-1.9075,-2.0383,-2.1285,-2.1033,-2.2532,-2.4104,-2.5625,-2.8644,-3.3928,-4.2097,-4.7358,-5.1508,-5.4556,-5.4746,-5.5221,-5.6137,-5.7379,-5.848,-5.9402,-6.0431,-6.096,-6.1029,-6.1264,-6.1285,-6.1126,-6.0974,-6.0832,-6.0739,-6.0657,-6.0621,-6.0621,-6.0621,-6.0669,-6.0739,-6.0739,-6.0692,-6.0633,-6.0704,-6.0559,-6.0335,-6.0416,-6.0343,-6.0241,-6.0366,-6.0787,-6.1255,-6.1283,-6.1448,-6.1608,-6.1608,-6.1627,-6.1647,-6.1638,-6.168,-6.1694,-6.1707,-6.1698,-6.1698,-6.1698,-6.1698,-6.1542,-6.1017,-6.092,-6.0627,-5.9768,-5.9319,-5.8987,-5.8636,-5.8304,-5.7914,-5.7387,-5.7328,-5.725,-5.7094,-5.6244,-5.5977,-5.6674,-5.7021,-5.7476,-5.8134,-5.9055,-5.9733,-6.0113,-6.0652,-6.0933,-6.0955,-6.0959,-6.0991,-6.107,-6.1089,-6.1099,-6.1099,-6.1099,-6.1143,-6.1213,-6.1213,-6.129,-6.1426,-6.1426,-6.1434,-6.1462,-6.1462,-6.1476,-6.1509,-6.149,-6.1541,-6.1602,-2.6575,-2.5559,-2.4251,-2.2868,-2.1907,-2.143,-2.1539,-2.1867,-2.1942,-2.13,-2.2381,-2.2914,-2.223,-2.3428,-2.4984,-2.6688,-3.4114,-4.0945,-4.6275,-4.9603,-5.2438,-5.4769,-5.635,-5.7617,-5.8557,-5.8574,-5.934,-6.0895,-6.1019,-6.1217,-6.1514,-6.1513,-6.1408,-6.1223,-6.1221,-6.1074,-6.085,-6.0828,-6.0836,-6.0836,-6.0836,-6.0951,-6.1099,-6.1099,-6.0992,-6.0858,-6.1022,-6.0858,-6.0559,-6.0716,-6.0745,-6.0676,-6.0505,-6.0848,-6.1317,-6.1324,-6.1452,-6.1601,-6.1601,-6.1649,-6.1697,-6.1697,-6.1696,-6.1692,-6.1707,-6.1698,-6.1679,-6.1601,-6.1581,-6.1562,-6.1483,-6.1464,-6.121,-6.0412,-5.9612,-5.8812,-5.8031,-5.7289,-5.6782,-5.6723,-5.6704,-5.6977,-5.7621,-5.7148,-5.6991,-5.745,-5.7528,-5.8105,-5.9427,-5.9569,-5.9973,-6.0762,-6.08,-6.0835,-6.088,-6.0911,-6.0927,-6.1002,-6.107,-6.1089,-6.1099,-6.1099,-6.1099,-6.1099,-6.1099,-6.1173,-6.1297,-6.1297,-6.1318,-6.1359,-6.1359,-6.1401,-6.1466,-6.1465,-6.15,-6.1565,-2.7492,-2.6418,-2.5127,-2.3874,-2.3058,-2.2295,-2.1406,-2.1976,-2.2359,-2.2007,-2.3248,-2.4463,-2.5345,-2.6592,-2.9441,-3.4643,-4.1964,-4.7159,-4.9095,-5.2387,-5.4869,-5.6142,-5.767,-5.8912,-5.9804,-5.9923,-6.0259,-6.0895,-6.1346,-6.1596,-6.1664,-6.1607,-6.1563,-6.151,-6.1343,-6.1247,-6.1186,-6.1079,-6.1032,-6.1032,-6.1032,-6.107,-6.1099,-6.1099,-6.108,-6.1032,-6.1089,-6.0932,-6.0716,-6.0608,-6.07,-6.0856,-6.0867,-6.1139,-6.1472,-6.1523,-6.1564,-6.1601,-6.1601,-6.1649,-6.1697,-6.1697,-6.1708,-6.1709,-6.1701,-6.1698,-6.1503,-6.0822,-6.0686,-6.0471,-5.9785,-5.9668,-5.959,-5.9417,-5.9222,-5.9024,-5.8831,-5.8675,-5.8304,-5.7621,-5.7543,-5.7367,-5.6899,-5.7792,-5.8353,-5.8272,-5.9462,-5.9978,-5.9523,-6.0146,-6.0589,-6.0781,-6.08,-6.0812,-6.0823,-6.0869,-6.0927,-6.1002,-6.1012,-6.1041,-6.1099,-6.1099,-6.1099,-6.1099,-6.1099,-6.1173,-6.1297,-6.1297,-6.125,-6.1164,-6.1164,-6.1173,-6.1189,-6.1194,-6.123,-6.1298,-2.8067,-2.7048,-2.5973,-2.5251,-2.4668,-2.4023,-2.3359,-2.4432,-2.5247,-2.5125,-2.681,-2.8385,-2.9237,-3.062,-3.3483,-3.8573,-4.4479,-4.8654,-5.0378,-5.387,-5.6322,-5.7333,-5.8743,-5.9808,-6.0427,-6.082,-6.1109,-6.1286,-6.1557,-6.1704,-6.1704,-6.1663,-6.1635,-6.159,-6.1417,-6.1331,-6.1296,-6.1161,-6.1099,-6.1099,-6.1099,-6.1099,-6.1099,-6.1099,-6.1099,-6.1099,-6.1099,-6.1022,-6.0911,-6.0704,-6.0811,-6.1039,-6.1008,-6.1228,-6.1515,-6.1573,-6.1598,-6.159,-6.159,-6.1659,-6.1705,-6.1705,-6.1694,-6.1581,-6.1174,-6.1076,-6.0822,-5.9963,-5.9788,-5.9631,-5.918,-5.9102,-5.9102,-5.9102,-5.8753,-5.848,-5.848,-5.8148,-5.7738,-5.7289,-5.7231,-5.7211,-5.7172,-5.8597,-5.9459,-5.9328,-6.0005,-6.0374,-6.0226,-6.0599,-6.08,-6.08,-6.08,-6.08,-6.08,-6.0835,-6.0914,-6.1,-6.0992,-6.1022,-6.1041,-6.1089,-6.1099,-6.1099,-6.1099,-6.1173,-6.1297,-6.1297,-6.1214,-6.1103,-6.1103,-6.1103,-6.1103,-6.1103,-6.1147,-6.1206,-2.8345,-2.7562,-2.6774,-2.6513,-2.616,-2.5805,-2.5551,-2.7082,-2.8321,-2.8321,-3.0295,-3.1942,-3.2457,-3.4736,-3.7524,-4.0769,-4.5347,-4.907,-5.1378,-5.4788,-5.7097,-5.8067,-5.9486,-6.0417,-6.0692,-6.1369,-6.1701,-6.1703,-6.1702,-6.1709,-6.1691,-6.1698,-6.1677,-6.1614,-6.146,-6.1362,-6.1311,-6.1159,-6.1099,-6.1099,-6.1099,-6.1099,-6.1099,-6.1099,-6.1099,-6.1099,-6.1099,-6.1099,-6.108,-6.0901,-6.1003,-6.1173,-6.1062,-6.1247,-6.1515,-6.1563,-6.1592,-6.1592,-6.1592,-6.1658,-6.1698,-6.1698,-6.1581,-6.1252,-6.0373,-6.0295,-6.0119,-5.9085,-5.889,-5.8831,-5.8692,-5.8673,-5.8673,-5.8673,-5.807,-5.7582,-5.7582,-5.7016,-5.6645,-5.6782,-5.6938,-5.7348,-5.8168,-5.9453,-6.0285,-6.0414,-6.018,-6.0323,-6.0963,-6.0877,-6.08,-6.08,-6.08,-6.08,-6.08,-6.08,-6.0858,-6.0976,-6.0981,-6.1021,-6.1022,-6.108,-6.1099,-6.1099,-6.1099,-6.1173,-6.1297,-6.1297,-6.1214,-6.1094,-6.1076,-6.1058,-6.1049,-6.104,-6.1072,-6.1124,-2.8199,-2.8085,-2.7715,-2.6982,-2.6982,-2.6809,-2.5751,-2.7138,-2.8321,-2.8321,-2.9776,-3.1217,-3.2365,-3.8001,-4.2255,-4.349,-4.8773,-5.2497,-5.3609,-5.5766,-5.7235,-5.7657,-5.9579,-6.0645,-6.0692,-6.1369,-6.1705,-6.1696,-6.1705,-6.1692,-6.1696,-6.1699,-6.1699,-6.1678,-6.1485,-6.1383,-6.1378,-6.1189,-6.1099,-6.1099,-6.1099,-6.1099,-6.1099,-6.1099,-6.1099,-6.1099,-6.1099,-6.1099,-6.1089,-6.107,-6.1125,-6.12,-6.1173,-6.1327,-6.1503,-6.1515,-6.1552,-6.1592,-6.1592,-6.1658,-6.1698,-6.1698,-6.1134,-6.0354,-5.9475,-5.9866,-5.9944,-5.8304,-5.7972,-5.7758,-5.7074,-5.6938,-5.6938,-5.6938,-5.684,-5.6762,-5.6762,-5.6665,-5.686,-5.7543,-5.8304,-5.9104,-5.9963,-6.0251,-6.0633,-6.1281,-6.1136,-6.1019,-6.1011,-6.0877,-6.08,-6.08,-6.08,-6.08,-6.08,-6.08,-6.0835,-6.0903,-6.0976,-6.104,-6.1089,-6.1099,-6.1099,-6.1099,-6.1099,-6.1173,-6.1297,-6.1297,-6.1214,-6.1085,-6.0973,-6.0892,-6.0839,-6.0842,-6.0842,-6.0845,-2.9422,-2.9247,-2.9006,-2.9316,-2.921,-2.8872,-2.8388,-3.0208,-3.1686,-3.1686,-3.3497,-3.5165,-3.6318,-4.0428,-4.4089,-4.6653,-4.9556,-5.2242,-5.4564,-5.6222,-5.7524,-5.8451,-5.9913,-6.0786,-6.0984,-6.1448,-6.1686,-6.164,-6.1675,-6.1693,-6.1697,-6.1699,-6.1699,-6.1699,-6.1564,-6.146,-6.1383,-6.1276,-6.1178,-6.1099,-6.1099,-6.1099,-6.1099,-6.1099,-6.1099,-6.1099,-6.1099,-6.1099,-6.1108,-6.1143,-6.1186,-6.1217,-6.1327,-6.1434,-6.152,-6.1539,-6.1588,-6.1614,-6.1659,-6.1672,-6.1698,-6.1698,-6.1037,-6.0178,-5.93,-5.9026,-5.8597,-5.7387,-5.7133,-5.7016,-5.6665,-5.6606,-5.6606,-5.6606,-5.6606,-5.6762,-5.7211,-5.727,-5.7582,-5.8421,-5.93,-5.9983,-6.0354,-6.0842,-6.1261,-6.1582,-6.1365,-6.1177,-6.11,-6.0902,-6.08,-6.08,-6.08,-6.08,-6.08,-6.08,-6.0835,-6.0911,-6.0965,-6.102,-6.1061,-6.1089,-6.1099,-6.1099,-6.1099,-6.1173,-6.1297,-6.1297,-6.1214,-6.1085,-6.0953,-6.0814,-6.0702,-6.0769,-6.08,-6.08]},{"header":{"parameterUnit":"m.s-1","parameterCategory":1,"la1":30.6,"la2":28.766,"lo1":-90.7593,"lo2":-88.6598,"dy":0.0162,"dx":0.0183,"nx":116,"ny":114,"refTime":"2024-06-07T12:00:00:Z","depth":0,"parameterNumber":3,"parameterNumberName":"V-component_of_WINDS"},"data":[0.0,0.0,0.0,0.0,0.0,0.0,0.0,0.0,0.0,0.0,0.0,0.0,0.0,0.0,0.0,0.0,0.0,0.0,0.0,0.0,0.0,0.0,0.0,0.0,0.0,0.0,0.0,0.0,0.0,0.0,0.0,0.0,0.0,0.0,0.0,0.0,0.0,0.0,0.0,0.0,0.0,0.0,0.0,0.0,0.0,0.0,0.0,0.0,0.0,0.0,0.0,0.0,0.0,0.0,0.0,0.0,0.0,0.0,0.0,0.0,0.0,0.0,0.0,0.0,0.0,0.0,0.0,0.0,0.0,0.0,0.0,0.0,0.0,0.0,0.0,0.0,0.0,0.0,0.0,0.0,0.0,0.0,0.0,0.0,0.0,0.0,0.0,0.0,0.0,0.0,0.0,0.0,0.0,0.0,0.0,0.0,0.0,0.0,0.0,0.0,0.0,0.0,0.0,0.0,0.0,0.0,0.0,0.0,0.0,0.0,0.0,0.0,0.0,0.0,0.0,0.0,0.0,0.0,0.0,0.0,0.0,0.0,0.0,0.0,0.0,0.0,0.0,0.0,0.0,0.0,0.0,0.0,0.0,0.0,0.0,0.0,0.0,0.0,0.0,0.0,0.0,0.0,0.0,0.0,0.0,0.0,0.0,0.0,0.0,0.0,0.0,0.0,0.0,0.0,0.0,0.0,0.0,0.0,0.0,0.0,0.0,0.0,0.0,0.0,0.0,0.0,0.0,0.0,0.0,0.0,0.0,0.0,0.0,0.0,0.0,0.0,0.0,0.0,0.0,0.0,0.0,0.0,0.0,0.0,0.0,0.0,0.0,0.0,0.0,0.0,0.0,0.0,0.0,0.0,0.0,0.0,0.0,0.0,0.0,0.0,0.0,0.0,0.0,0.0,0.0,0.0,0.0,0.0,0.0,0.0,0.0,0.0,0.0,0.0,0.0,0.0,0.0,0.0,0.0,0.0,0.0,0.0,0.0,0.0,0.0,0.0,0.0,0.0,0.0,0.0,0.0,0.0,0.0,0.0,0.0,0.0,0.0,0.0,0.0,0.0,0.0,0.0,0.0,0.0,0.0,0.0,0.0,0.0,0.0,0.0,0.0,0.0,0.0,0.0,0.0,0.0,0.0,0.0,0.0,0.0,0.0,0.0,0.0,0.0,0.0,0.0,0.0,0.0,0.0,0.0,0.0,0.0,0.0,0.0,0.0,0.0,0.0,0.0,0.0,0.0,0.0,0.0,0.0,0.0,0.0,0.0,0.0,0.0,0.0,0.0,0.0,0.0,0.0,0.0,0.0,0.0,0.0,0.0,0.0,0.0,0.0,0.0,0.0,0.0,0.0,0.0,0.0,0.0,0.0,0.0,0.0,0.0,0.0,0.0,0.0,0.0,0.0,0.0,0.0,0.0,0.0,0.0,0.0,0.0,0.0,0.0,0.0,0.0,0.0,0.0,0.0,0.0,0.0,0.0,0.0,0.0,0.0,0.0,0.0,0.0,0.0,0.0,0.0,0.0,0.0,0.0,0.0,0.0,0.0,0.0,0.0,0.0,0.0,0.0,0.0,0.0,0.0,0.0,0.0,0.0,0.0,0.0,0.0,0.0,0.0,0.0,0.0,0.0,0.0,0.0,0.0,0.0,0.0,0.0,0.0,0.0,0.0,0.0,0.0,0.0,0.0,0.0,0.0,0.0,0.0,0.0,0.0,0.0,0.0,0.0,0.0,0.0,0.0,0.0,0.0,0.0,0.0,0.0,0.0,0.0,0.0,0.0,0.0,0.0,0.0,0.0,0.0,0.0,0.0,0.0,0.0,0.0,0.0,0.0,0.0,0.0,0.0,0.0,0.0,0.0,0.0,0.0,0.0,0.0,0.0,0.0,0.0,0.0,0.0,0.0,0.0,0.0,0.0,0.0,0.0,0.0,0.0,0.0,0.0,0.0,0.0,0.0,0.0,0.0,0.0,0.0,0.0,0.0,0.0,0.0,0.0,0.0,0.0,0.0,0.0,0.0,0.0,0.0,0.0,0.0,0.0,0.0,0.0,0.0,0.0,0.0,0.0,0.0,0.0,0.0,0.0,0.0,0.0,0.0,0.0,0.0,0.0,0.0,0.0,0.0,0.0,0.0,0.0,0.0,0.0,0.0,0.0,0.0,0.0,0.0,0.0,0.0,0.0,0.0,0.0,0.0,0.0,0.0,0.0,0.0,0.0,0.0,0.0,0.0,0.0,0.0,0.0,0.0,0.0,0.0,0.0,0.0,0.0,0.0,0.0,0.0,0.0,0.0,0.0,0.0,0.0,0.0,0.0,0.0,0.0,0.0,0.0,0.0,0.0,0.0,0.0,0.0,0.0,0.0,0.0,0.0,0.0,0.0,0.0,0.0,0.0,0.0,0.0,0.0,0.0,0.0,0.0,0.0,0.0,0.0,0.0,0.0,0.0,0.0,0.0,0.0,0.0,0.0,0.0,0.0,0.0,0.0,0.0,0.0,0.0,0.0,0.0,0.0,0.0,0.0,0.0,0.0,0.0,0.0,0.0,0.0,0.0,0.0,0.0,0.0,0.0,0.0,0.0,0.0,0.0,0.0,0.0,0.0,0.0,0.0,0.0,0.0,0.0,0.0,0.0,0.0,0.0,0.0,0.0,0.0,0.0,0.0,0.0,0.0,0.0,0.0,0.0,0.0,0.0,0.0,0.0,0.0,0.0,0.0,0.0,0.0,0.0,0.0,0.0,0.0,0.0,0.0,0.0,0.0,0.0,0.0,0.0,0.0,0.0,0.0,0.0,0.0,0.0,0.0,0.0,0.0,0.0,0.0,0.0,0.0,0.0,0.0,0.0,0.0,0.0,0.0,0.0,0.0,0.0,0.0,0.0,0.0,0.0,0.0,0.0,0.0,0.0,0.0,0.0,0.0,0.0,0.0,0.0,0.0,0.0,0.0,0.0,0.0,0.0,0.0,0.0,0.0,0.0,0.0,0.0,0.0,0.0,0.0,0.0,0.0,0.0,0.0,0.0,0.0,0.0,0.0,0.0,0.0,0.0,0.0,0.0,0.0,0.0,0.0,0.0,0.0,0.0,0.0,0.0,0.0,0.0,0.0,0.0,0.0,0.0,0.0,0.0,0.0,0.0,0.0,0.0,0.0,0.0,0.0,0.0,0.0,0.0,0.0,0.0,0.0,0.0,0.0,0.0,0.0,0.0,0.0,0.0,0.0,0.0,0.0,0.0,0.0,0.0,0.0,0.0,0.0,0.0,0.0,0.0,0.0,0.0,0.0,0.0,0.0,0.0,0.0,0.0,0.0,0.0,0.0,0.0,0.0,0.0,0.0,0.0,0.0,0.0,0.0,0.0,0.0,0.0,0.0,0.0,0.0,0.0,0.0,0.0,0.0,0.0,0.0,0.0,0.0,0.0,0.0,0.0,0.0,0.0,0.0,0.0,0.0,0.0,0.0,0.0,0.0,0.0,0.0,0.0,0.0,0.0,0.0,0.0,0.0,0.0,0.0,0.0,0.0,0.0,0.0,0.0,0.0,0.0,0.0,0.0,0.0,0.0,0.0,0.0,0.0,0.0,0.0,0.0,0.0,0.0,0.0,0.0,0.0,0.0,0.0,0.0,0.0,0.0,0.0,0.0,0.0,0.0,0.0,0.0,0.0,0.0,0.0,0.0,0.0,0.0,0.0,0.0,0.0,0.0,0.0,0.0,0.0,0.0,0.0,0.0,0.0,0.0,0.0,0.0,0.0,0.0,0.0,0.0,0.0,0.0,0.0,0.0,0.0,0.0,0.0,0.0,0.0,0.0,0.0,0.0,0.0,0.0,0.0,0.0,0.0,0.0,0.0,0.0,0.0,0.0,0.0,0.0,0.0,0.0,0.0,0.0,0.0,0.0,0.0,0.0,0.0,0.0,0.0,0.0,0.0,0.0,0.0,0.0,0.0,0.0,0.0,0.0,0.0,0.0,0.0,0.0,0.0,0.0,0.0,0.0,0.0,0.0,0.0,0.0,0.0,0.0,0.0,0.0,0.0,0.0,0.0,0.0,0.0,0.0,0.0,0.0,0.0,0.0,0.0,0.0,0.0,0.0,0.0,0.0,0.0,0.0,0.0,0.0,0.0,0.0,0.0,0.0,0.0,0.0,0.0,0.0,0.0,0.0,0.0,0.0,0.0,0.0,0.0,0.0,0.0,0.0,0.0,0.0,0.0,0.0,0.0,0.0,0.0,0.0,0.0,0.0,0.0,0.0,0.0,0.0,0.0,0.0,0.0,0.0,0.0,0.0,0.0,0.0,0.0,0.0,0.0,0.0,0.0,0.0,0.0,0.0,0.0,0.0,0.0,0.0,0.0,0.0,0.0,0.0,0.0,0.0,0.0,0.0,0.0,0.0,0.0,0.0,0.0,0.0,0.0,0.0,0.0,0.0,0.0,0.0,0.0,0.0,0.0,0.0,0.0,0.0,0.0,0.0,0.0,0.0,0.0,0.0,0.0,0.0,0.0,0.0,0.0,0.0,0.0,0.0,0.0,0.0,0.0,0.0,0.0,0.0,0.0,0.0,0.0,0.0,0.0,0.0,0.0,0.0,0.0,0.0,0.0,0.0,0.0,0.0,0.0,0.0,0.0,0.0,0.0,0.0,0.0,0.0,0.0,0.0,0.0,0.0,0.0,0.0,0.0,0.0,0.0,0.0,0.0,0.0,0.0,0.0,0.0,0.0,0.0,0.0,0.0,0.0,0.0,0.0,0.0,0.0,0.0,0.0,0.0,0.0,0.0,0.0,0.0,0.0,0.0,0.0,0.0,0.0,0.0,0.0,0.0,0.0,0.0,0.0,0.0,0.0,0.0,0.0,0.0,0.0,0.0,0.0,0.0,0.0,0.0,0.0,0.0,0.0,0.0,0.0,0.0,0.0,0.0,0.0,0.0,0.0,0.0,0.0,0.0,0.0,0.0,0.0,0.0,0.0,0.0,0.0,0.0,0.0,0.0,0.0,0.0,0.0,0.0,0.0,0.0,0.0,0.0,0.0,0.0,0.0,0.0,0.0,0.0,0.0,0.0,0.0,0.0,0.0,0.0,0.0,0.0,0.0,0.0,0.0,0.0,0.0,0.0,0.0,0.0,0.0,0.0,0.0,0.0,0.0,0.0,0.0,0.0,0.0,0.0,0.0,0.0,0.0,0.0,0.0,0.0,0.0,0.0,0.0,0.0,0.0,0.0,0.0,0.0,0.0,0.0,0.0,0.0,0.0,0.0,0.0,0.0,0.0,0.0,0.0,0.0,0.0,0.0,0.0,0.0,0.0,0.0,0.0,0.0,0.0,0.0,0.0,0.0,0.0,0.0,0.0,0.0,0.0,0.0,0.0,0.0,0.0,0.0,0.0,0.0,0.0,0.0,0.0,0.0,0.0,0.0,0.0,0.0,0.0,0.0,0.0,0.0,0.0,0.0,0.0,0.0,0.0,0.0,0.0,0.0,0.0,0.0,0.0,0.0,0.0,0.0,0.0,0.0,0.0,0.0,0.0,0.0,0.0,0.0,0.0,0.0,0.0,0.0,0.0,0.0,0.0,0.0,0.0,0.0,0.0,0.0,0.0,0.0,0.0,0.0,0.0,0.0,0.0,0.0,0.0,0.0,0.0,0.0,0.0,0.0,0.0,0.0,0.0,0.0,0.0,0.0,0.0,0.0,0.0,0.0,0.0,0.0,0.0,0.0,0.0,0.0,0.0,0.0,0.0,0.0,0.0,0.0,0.0,0.0,0.0,0.0,0.0,0.0,0.0,0.0,0.0,0.0,0.0,0.0,0.0,0.0,0.0,0.0,0.0,0.0,0.0,0.0,0.0,0.0,0.0,0.0,0.0,0.0,0.0,0.0,0.0,0.0,0.0,0.0,0.0,0.0,0.0,0.0,0.0,0.0,0.0,0.0,0.0,0.0,0.0,0.0,0.0,0.0,0.0,0.0,0.0,0.0,0.0,0.0,0.0,0.0,0.0,0.0,0.0,0.0,0.0,0.0,0.0,0.0,0.0,0.0,0.0,0.0,0.0,0.0,0.0,0.0,0.0,0.0,0.0,0.0,0.0,0.0,0.0,0.0,0.0,0.0,1.99,1.7473,0.0,0.0,0.0,0.0,0.0,0.0,0.0,0.0,0.0,0.0,0.0,0.0,0.0,0.0,0.0,0.0,0.0,0.0,0.0,0.0,0.0,0.0,0.0,0.7702,0.7768,0.7934,0.7884,0.7949,0.8182,0.0,0.0,0.0,0.0,0.0,0.8502,0.8523,0.8857,0.9497,0.9918,1.0599,1.1498,1.1212,1.061,0.9705,0.0,0.0,0.0,0.0,0.0,0.0,0.0,0.0,0.0,0.0,0.0,0.0,0.0,0.0,0.0,0.0,0.0,0.0,0.0,0.0,0.0,0.0,0.0,0.0,0.0,0.0,0.0,0.0,0.0,0.0,0.0,0.0,0.0,0.0,0.0,0.0,0.0,0.0,0.0,0.0,0.0,0.0,0.0,0.0,0.0,0.0,0.0,0.0,0.0,0.0,0.0,0.0,0.0,0.0,0.0,0.0,0.0,0.0,0.0,0.0,0.0,0.0,0.0,0.0,0.0,0.0,0.0,0.0,0.0,0.0,2.5324,2.3163,0.0,0.0,0.0,0.0,0.0,0.0,0.0,0.0,0.0,0.0,0.0,0.0,0.0,0.0,0.0,0.0,0.0,0.0,0.0,0.0,0.0,0.7653,0.7777,0.7855,0.802,0.8325,0.8281,0.8309,0.8478,0.8431,0.0,0.0,0.0,0.855,0.8686,0.8794,0.952,1.0873,1.1295,1.2506,1.4411,1.4489,1.3622,1.1984,1.1906,0.0,0.0,0.0,0.0,0.0,0.0,0.0,0.0,0.0,0.0,0.0,0.0,0.0,0.0,0.0,0.0,0.0,0.0,0.0,0.0,0.0,0.0,0.0,0.0,0.0,0.0,0.0,0.0,0.0,0.0,0.0,0.0,0.0,0.0,0.0,0.0,0.0,0.0,0.0,0.0,0.0,0.0,0.0,0.0,0.0,0.0,0.0,0.0,0.0,0.0,0.0,0.0,0.0,0.0,0.0,0.0,0.0,0.0,0.0,0.0,0.0,0.0,0.0,2.9237,3.0578,3.1813,3.2941,3.445,3.5958,3.1511,3.0105,3.0657,2.6939,0.0,0.0,0.0,0.0,0.0,0.0,0.0,0.0,0.0,0.0,0.0,0.0,0.0,0.0,0.0,0.0,0.0,0.0,0.0,0.7843,0.8478,0.8406,0.8708,0.9655,0.9628,0.9463,0.9268,0.9244,0.0,0.0,0.8495,0.8799,0.9442,0.9472,1.0176,1.1577,1.3376,1.5043,1.6518,1.6625,1.6552,1.6205,1.4499,1.423,1.4905,0.0,0.0,0.0,0.0,0.0,0.0,0.0,0.0,0.0,0.0,0.0,0.0,0.0,0.0,0.0,0.0,0.0,0.0,0.0,0.0,0.0,0.0,0.0,0.0,0.0,0.0,0.0,0.0,0.0,0.0,0.0,0.0,0.0,0.0,0.0,0.0,0.0,0.0,0.0,0.0,0.0,1.636,1.8948,0.0,0.0,0.0,0.0,0.0,0.0,0.0,0.0,0.0,0.0,0.0,0.0,0.0,2.7145,2.9369,3.3094,3.4718,3.4324,3.8389,3.9657,3.8498,4.0078,4.1162,4.1718,4.0994,0.0,3.3803,3.2139,0.0,0.0,0.0,0.0,0.0,0.0,0.0,0.0,0.0,0.0,0.0,0.0,0.0,0.0,0.0,0.0,0.0,0.0,0.0,0.0,0.0,0.9085,0.9681,1.022,1.0649,1.073,1.0427,1.008,0.9668,0.9138,0.9112,0.9274,0.9588,1.0441,1.1979,1.4165,1.6245,1.7857,1.8982,1.9037,1.9345,1.9793,1.8552,1.7494,1.6551,1.4967,0.0,0.0,0.0,0.0,0.0,0.0,0.0,0.0,0.0,0.0,0.0,0.0,0.0,0.0,0.0,0.0,0.0,0.0,0.0,0.0,0.0,0.0,0.0,0.0,0.0,0.0,0.0,0.0,0.0,0.0,0.0,0.0,0.0,0.0,0.0,0.0,0.0,0.0,0.0,1.5186,1.7973,1.9249,1.8967,1.8447,0.0,0.0,0.0,0.0,0.0,0.0,0.0,0.0,0.0,2.9697,3.1828,3.3762,3.5531,3.8673,4.0307,4.0424,4.2988,4.4154,4.408,4.5455,4.6164,4.6366,4.6593,4.4932,4.1768,3.7864,3.467,3.2009,0.0,0.0,0.0,0.0,2.9735,3.0352,0.0,0.0,0.0,0.0,0.0,0.0,0.0,0.0,0.0,0.0,0.0,0.0,0.8836,0.9897,1.08,1.1286,1.1941,1.2178,1.1864,1.1244,1.0669,1.017,0.9967,1.0048,1.0404,1.2273,1.4435,1.6889,1.8681,2.0005,2.0885,2.0926,2.1337,2.1979,2.1547,2.0387,1.8662,1.7269,1.617,0.0,0.0,0.0,0.0,0.0,0.0,0.0,0.0,0.0,0.0,0.0,0.0,0.0,0.0,0.0,0.0,0.0,0.0,0.0,0.0,0.0,0.0,0.0,0.0,0.0,0.0,0.0,0.0,0.0,0.0,0.0,0.0,0.0,0.0,0.0,0.0,0.0,0.0,1.759,1.992,2.0256,2.115,2.1215,0.0,0.0,0.0,0.0,0.0,0.0,2.9999,3.0686,3.2439,3.5688,3.8193,4.0034,4.124,4.3423,4.478,4.5338,4.6174,4.7004,4.7886,4.8821,4.9257,4.9281,4.968,4.9419,4.8336,4.3178,4.0217,3.8643,3.6147,3.4965,3.4794,3.6005,3.6224,3.6612,0.0,0.0,0.0,0.0,0.0,0.0,0.0,0.0,0.0,0.0,0.0,0.8827,0.9993,1.0908,1.2007,1.3421,1.3809,1.386,0.0,1.2888,1.2217,1.1617,1.0978,1.1262,1.2616,1.5405,1.7562,1.9037,2.0047,2.0904,2.1643,2.1832,2.1948,2.2013,2.2226,2.2258,2.2004,1.9782,1.8523,1.7811,0.0,0.0,0.0,0.0,0.0,0.0,0.0,0.0,0.0,0.0,0.0,0.0,0.0,0.0,0.0,0.0,0.0,0.0,0.0,0.0,0.0,0.0,0.0,0.0,0.0,0.0,0.0,0.0,0.0,0.0,0.0,0.0,0.0,0.0,0.0,0.0,0.0,0.0,0.0,2.4485,2.6149,0.0,0.0,0.0,0.0,2.8956,3.0166,3.2568,3.6593,3.686,3.852,4.2116,4.3718,4.5015,4.6038,4.7544,4.8355,4.838,4.8749,4.8964,4.9041,4.9471,4.967,4.9693,5.0094,5.0421,5.0446,4.7587,4.4509,4.1512,4.0652,3.9051,3.7494,3.9834,4.1229,4.2332,0.0,0.0,0.0,0.0,0.0,0.7482,0.7557,0.7527,0.7504,0.7535,0.8722,0.9725,1.0151,1.2021,1.3443,1.3974,1.477,1.5049,1.4575,1.3642,1.3278,1.3626,1.3061,1.3848,1.6155,1.7679,1.8993,2.0096,2.0907,2.1593,2.2149,2.222,2.2329,2.245,2.2552,2.2592,2.251,2.1215,2.0184,1.9235,1.7082,1.5349,0.0,0.0,0.0,0.0,0.0,0.0,0.0,0.0,0.0,0.0,0.0,0.0,0.0,0.0,0.0,0.0,0.0,0.0,0.0,0.0,0.0,0.0,0.0,0.0,0.0,0.0,0.0,0.0,0.0,0.0,0.0,0.0,0.0,0.0,0.0,0.0,0.0,2.7545,2.8974,0.0,2.9161,3.0898,3.2796,3.4577,3.6451,3.8925,4.221,4.1959,4.2968,4.5637,4.6753,4.7693,4.8521,4.981,5.0705,5.1165,5.1608,5.2192,5.2964,5.3185,5.3478,5.3766,5.4038,5.439,5.4611,5.319,5.0965,4.8376,4.7097,4.6486,4.6323,4.6619,4.6941,4.7428,0.0,0.0,0.0,0.0,0.7504,0.7526,0.7587,0.7549,0.7567,0.7783,0.9213,1.0395,1.0883,1.2892,1.4356,1.473,1.5473,1.5802,1.5558,1.4662,1.4433,1.511,1.5041,1.607,1.8424,1.927,2.0101,2.0968,2.161,2.2092,2.2408,2.2729,2.2942,2.3078,2.3353,2.3488,2.3422,2.2664,2.1657,2.0448,1.8817,1.7438,1.619,0.0,0.0,0.0,0.0,0.0,0.0,0.0,0.0,0.0,0.0,0.0,0.0,0.0,0.0,0.0,0.0,0.0,0.0,0.0,0.0,0.0,0.0,0.0,0.0,0.0,0.0,0.0,0.0,0.0,0.0,0.0,0.0,0.0,0.0,0.0,2.9155,3.018,3.2269,3.361,3.3585,3.5927,3.8178,3.9927,4.1886,4.4014,4.6281,4.6187,4.6906,4.8756,4.9545,5.0305,5.1079,5.2029,5.2834,5.3448,5.3815,5.4477,5.5438,5.5583,5.5835,5.6139,5.6426,5.6713,5.6992,5.6353,5.5195,5.3649,5.1912,5.1469,5.17,5.1129,5.0773,5.0622,0.0,0.0,0.0,0.7496,0.7502,0.7526,0.7595,0.7549,0.7723,0.8322,0.9473,1.0775,1.2243,1.3504,1.4687,1.5797,1.5914,1.6109,1.657,1.5965,1.5742,1.6051,1.682,1.787,1.9248,2.0162,2.0984,2.1724,2.2211,2.2439,2.2456,2.3395,2.3836,2.3871,2.4646,2.5005,2.4954,2.4163,2.3009,2.163,2.0785,2.001,1.9107,0.0,0.0,0.0,0.0,0.0,0.0,0.0,0.0,0.0,0.0,0.0,0.0,0.0,0.0,0.0,0.0,0.0,0.0,0.0,0.0,0.0,0.0,0.0,0.0,0.0,0.0,0.0,0.0,0.0,0.0,0.0,0.0,0.0,2.6215,2.9053,3.1684,3.264,3.6301,3.8627,3.8345,4.0945,4.3305,4.4892,4.6358,4.7663,4.8855,4.9507,5.0379,5.1632,5.2306,5.3007,5.3833,5.4305,5.4743,5.5177,5.5285,5.5659,5.6215,5.633,5.6444,5.6555,5.6945,5.7229,5.7381,5.6964,5.6904,5.6869,5.4784,5.3569,5.2976,5.2957,5.2549,5.188,0.0,0.0,0.7573,0.7572,0.7572,0.7573,0.7604,0.7536,0.7718,0.8322,0.983,1.1258,1.2301,1.4031,1.5359,1.5856,1.6125,1.6316,1.6452,1.6019,1.6283,1.7458,1.9204,2.0427,2.1011,2.1268,2.1657,2.2223,2.2861,2.3258,2.3429,2.4273,2.4663,2.4681,2.4902,2.5005,2.4988,2.4764,2.4453,2.3902,2.2009,2.0868,2.0108,0.0,0.0,0.0,0.0,0.0,0.0,0.0,0.0,0.0,0.0,0.0,0.0,0.0,0.0,0.0,0.0,0.0,0.0,0.0,0.0,0.0,0.0,0.0,0.0,0.0,0.0,0.0,0.0,0.0,0.0,0.0,0.0,3.1057,2.9441,3.344,3.6896,3.7902,4.0218,4.2108,4.3082,4.4793,4.634,4.7625,4.9351,5.0711,5.157,5.2022,5.2521,5.3164,5.338,5.388,5.4737,5.4963,5.5601,5.6617,5.6807,5.7466,5.8502,5.8574,5.8864,5.9307,5.9505,5.9728,5.986,5.9165,5.8916,5.8712,5.6181,5.51,5.4843,5.4217,5.3954,5.3994,0.0,0.7602,0.7602,0.7602,0.7602,0.761,0.7596,0.7544,0.7812,0.8665,1.0119,1.153,1.2652,1.4339,1.5522,1.5871,1.6123,1.6206,1.6072,1.6244,1.711,1.8814,2.0251,2.1215,2.1693,2.1888,2.2272,2.2864,2.3374,2.3864,2.4319,2.5109,2.5471,2.5488,2.5816,2.5954,2.5937,2.5609,2.5471,2.5333,2.3677,2.2583,2.1821,2.0773,2.0123,1.9732,1.9429,1.8826,1.8163,1.8223,0.0,0.0,0.0,0.0,0.0,0.0,0.0,0.0,0.0,0.0,0.0,0.0,0.0,0.0,0.0,0.0,0.0,0.0,0.0,0.0,0.0,0.0,0.0,0.0,3.3801,3.6454,3.5868,3.836,4.0913,4.2689,4.4023,4.5324,4.67,4.7802,4.8804,4.9694,5.128,5.2352,5.2672,5.3306,5.394,5.4577,5.4809,5.5432,5.6463,5.6639,5.7196,5.8104,5.8259,5.8887,5.9912,5.9939,6.0201,6.0649,6.0732,6.0887,6.1007,6.0197,5.992,5.9788,0.0,0.0,0.0,0.0,5.5863,5.5993,0.0,0.7602,0.7602,0.7602,0.7602,0.7602,0.7602,0.7543,0.7924,0.9138,1.0292,1.1561,1.3044,1.4356,1.5316,1.5751,1.6008,1.6072,0.0,1.6757,1.809,1.9934,2.0438,2.1019,2.1721,2.2247,2.2847,2.3522,2.3893,2.4422,2.5143,2.5902,2.6247,2.6281,2.6971,2.7299,2.7247,2.654,2.6247,2.6178,2.5419,2.4646,2.3798,2.2448,2.1943,2.1838,2.1103,2.0408,1.9845,1.9806,0.0,0.0,0.0,0.0,0.0,0.0,0.0,0.0,0.0,0.0,0.0,0.0,0.0,0.0,0.0,0.0,0.0,0.0,0.0,0.0,0.0,0.0,0.0,0.0,3.969,4.2665,4.3501,4.3429,4.4169,4.6485,4.7318,4.8144,4.9216,5.0039,5.0779,5.1356,5.2544,5.3193,5.3125,0.0,0.0,0.0,0.0,5.7291,5.8508,5.8693,5.9027,5.947,5.9588,5.9969,6.0601,6.0618,6.0794,6.104,6.104,6.115,6.1287,6.0567,6.0375,6.0391,5.9075,5.8637,5.868,5.8077,5.7856,5.7743,0.0,0.7597,0.7597,0.7597,0.7597,0.7604,0.7602,0.7543,0.7924,0.9138,0.9922,1.0931,1.2404,1.3853,1.4824,1.5069,1.5949,1.6772,0.0,0.0,1.8873,1.9951,2.079,2.1468,2.1926,2.2837,2.3443,2.3732,2.5028,2.5732,2.5887,2.6695,2.7057,2.7075,2.723,2.7299,2.7297,2.7126,2.7057,2.7006,2.6212,2.5454,2.4678,2.3743,2.3381,2.3294,2.2565,2.2203,2.2107,2.2191,2.1668,2.0834,2.0153,0.0,0.0,0.0,0.0,0.0,0.0,0.0,0.0,0.0,0.0,0.0,0.0,0.0,0.0,0.0,0.0,0.0,0.0,0.0,0.0,3.8385,4.2115,4.5218,4.6618,4.7266,4.7306,4.6502,4.8371,4.9848,5.0045,5.1148,5.2218,5.3202,5.376,5.4554,5.5685,5.6359,5.7007,5.7602,5.7899,5.8421,5.9197,5.9252,5.9486,5.9975,6.0255,0.0,6.0615,6.0817,6.1048,6.124,6.124,6.1356,6.1534,6.1378,6.1331,6.1205,5.9603,5.8994,5.9007,5.8889,5.8834,5.8806,0.7605,0.7605,0.7605,0.7605,0.7605,0.7597,0.7602,0.7543,0.794,0.9185,0.9844,1.0761,1.2243,1.3423,1.4182,1.4429,1.5425,0.0,0.0,1.8345,1.9214,2.0353,2.1036,2.1584,2.1982,2.2987,2.3796,2.4405,2.5525,2.6316,2.6713,2.7109,2.7299,2.7299,2.7299,2.7299,2.7299,2.7299,2.7299,2.7247,2.6868,2.6488,2.6023,2.485,2.4405,2.4301,2.3526,2.325,2.3212,2.2898,2.2509,2.2104,2.1843,2.1189,2.0316,0.0,0.0,0.0,0.0,0.0,0.0,0.0,0.0,0.0,0.0,0.0,0.0,0.0,0.0,3.2659,0.0,0.0,4.0618,4.3159,4.5551,4.75,4.87,4.9183,4.9079,4.8247,4.9658,5.0686,5.0686,5.2097,5.3211,5.3774,5.4796,5.5784,5.6606,5.7321,5.7959,5.8528,5.8772,5.9159,5.9715,5.9798,6.0019,6.0349,6.0558,6.0773,6.0942,6.1085,6.1278,6.1509,6.1509,6.1543,6.1602,6.1557,6.154,6.1462,6.0623,6.032,6.0356,6.0319,6.0304,6.0306,0.7605,0.7605,0.7605,0.7605,0.7605,0.7597,0.7602,0.7543,0.7905,0.9052,0.9581,1.0349,1.1673,1.256,1.3279,1.3852,1.4959,0.0,1.752,1.8369,1.9405,2.0747,2.1151,2.162,2.2231,2.3221,2.4206,2.5212,2.5971,2.6661,2.7299,2.7299,2.7299,2.7299,2.7299,2.7299,2.7299,2.7299,2.7299,2.7299,2.7299,2.7299,2.7144,2.5747,2.5126,2.4902,2.4095,2.3715,2.3509,2.2905,2.2699,2.2725,2.2868,2.24,2.1722,2.1292,2.1544,0.0,0.0,0.0,0.0,0.0,0.0,0.0,0.0,0.0,2.894,3.2612,3.5087,3.7361,3.9858,4.1944,4.4337,4.7424,4.8534,4.924,4.9907,5.0011,5.0011,5.0011,5.0787,5.1321,5.141,5.307,5.4208,5.4326,5.5792,5.6807,5.7089,5.7854,5.8547,5.9122,5.9413,5.9758,6.0114,6.0318,6.0495,6.0689,6.0775,6.0997,6.1324,6.1339,6.146,6.1681,6.167,6.1633,6.158,6.1518,6.1503,6.1501,6.1468,6.1481,6.1542,6.1515,6.1491,6.1509,0.0,0.7605,0.7605,0.7605,0.7605,0.7597,0.7602,0.7543,0.7748,0.843,0.8566,0.8892,0.9656,1.0557,1.1767,1.3413,1.5133,1.6533,1.7537,1.8625,1.9699,2.0763,2.1023,2.174,2.3031,2.3983,2.4957,2.5988,2.6782,2.7213,2.7299,2.7299,2.7299,2.7299,2.7299,2.7299,2.7299,2.7299,2.7299,2.7299,2.7299,2.7299,2.7195,2.6316,2.5574,2.4902,2.4095,2.3388,2.2802,2.2733,2.2699,2.2725,2.2868,2.2747,2.2457,2.1943,0.0,2.1586,2.0901,2.2441,2.497,2.8148,2.8774,3.0473,0.0,0.0,3.8,4.1183,4.3646,4.5303,4.5674,4.6993,4.8172,4.8603,4.9355,4.9907,4.9993,5.0011,5.0011,5.0011,5.1235,5.217,5.2497,5.4279,5.5603,5.6151,5.6888,5.7567,5.819,5.8635,5.9122,5.9609,6.0,6.03,6.0527,6.0732,6.0858,6.0952,6.1138,6.1291,6.1392,6.1453,6.1522,6.1601,6.1554,6.152,6.1514,6.1495,6.1507,6.1498,6.1364,6.1328,6.1344,6.1465,6.149,6.1505,0.0,0.7635,0.7605,0.7605,0.7605,0.7605,0.7604,0.7574,0.7796,0.8432,0.8442,0.8708,0.9487,1.048,1.1387,1.2109,1.4382,1.61,1.686,1.8408,1.9694,2.0597,2.0697,2.1391,2.2748,2.3745,2.4782,2.5878,2.6824,2.7299,2.7299,2.7299,2.7299,2.7299,2.7299,2.7299,2.7299,2.7299,2.7299,2.7299,2.7299,2.7299,2.7227,2.6613,2.5863,2.4999,2.4219,2.3757,0.0,0.0,2.2927,2.2957,2.3095,2.3045,2.2925,2.2859,2.3707,0.0,2.7572,2.8472,2.9428,0.0,3.3937,3.577,3.9467,4.0458,4.1319,4.394,4.6303,4.7741,4.7338,4.8493,4.962,0.0,5.0424,5.0649,5.0649,5.0649,5.0493,5.0062,5.0925,5.1956,5.2947,5.4345,5.5649,5.6773,5.7556,5.815,5.8551,5.9103,5.9585,6.003,6.0332,6.0568,6.0775,6.0896,6.1029,6.1186,6.1228,6.1316,6.1453,6.1442,6.1456,6.1473,6.1409,6.1372,6.1387,6.137,6.1375,6.1388,6.1317,6.1301,6.1315,6.1369,6.1379,6.1373,0.0,0.7679,0.7635,0.7635,0.762,0.7605,0.7605,0.7603,0.7784,0.8259,0.8235,0.8521,0.9416,1.0375,1.1059,1.129,1.3906,1.5807,1.6463,1.8329,1.9777,2.063,2.0662,2.1243,2.2476,2.3537,2.4608,2.5639,2.6761,2.7299,2.7299,2.7299,2.7299,2.7299,2.7299,2.7299,2.7299,2.7299,2.7299,2.7299,2.7299,2.7192,2.6945,2.6417,2.5729,2.4993,2.4405,2.408,0.0,0.0,2.3017,2.3146,2.3053,2.3059,2.3191,2.3638,2.5082,2.7281,3.0828,3.2092,0.0,3.5679,3.8273,4.04,4.1213,4.2777,4.4388,4.5751,4.7582,4.8819,4.8407,4.9079,4.9993,5.0959,5.1114,5.1183,5.136,5.1235,5.0838,5.0097,5.0414,5.1364,5.3114,5.4349,5.5736,5.7346,5.8208,5.8753,5.9028,5.9568,6.003,6.0399,6.0643,6.0847,6.1014,6.1102,6.1209,6.1342,6.1286,6.1328,6.1477,6.1397,6.1368,6.133,6.131,6.1292,6.1305,6.1279,6.1261,6.1281,6.1245,6.1245,6.1245,6.1245,6.1281,6.1297,0.0,0.0,0.7694,0.7694,0.765,0.7605,0.7605,0.7603,0.761,0.7633,0.7618,0.7979,0.8925,0.9691,1.0523,1.1493,1.4049,1.594,1.674,1.8613,2.0099,2.1039,2.1071,2.1521,2.2476,2.3681,2.4688,2.5509,2.6712,2.7299,2.7299,2.7299,2.7299,2.7299,2.7299,2.7299,2.7299,2.7299,2.7299,2.7299,2.7299,2.6911,2.6251,2.5518,2.5029,2.4718,2.4693,0.0,0.0,2.2629,2.2818,2.3187,2.2528,2.2681,0.0,2.4208,2.5073,2.603,2.7408,0.0,3.4222,3.7801,4.1438,4.4328,4.5079,4.7226,4.8802,4.7841,4.8508,4.9399,4.9861,4.9338,4.9327,5.0856,5.1114,5.1343,5.205,5.1533,5.0838,5.0097,4.9781,5.0575,0.0,5.4604,5.6279,5.8218,5.8928,5.9453,5.9836,6.0132,6.0412,6.0676,6.1004,6.1213,6.1292,6.1427,6.1484,6.1484,6.1432,6.1407,6.1403,6.133,6.1278,6.1208,6.127,6.1306,6.1286,6.1227,6.121,6.1201,6.1137,6.1099,6.1099,6.1099,6.1182,6.1297,0.0,0.0,0.0,0.7761,0.7746,0.7717,0.7672,0.7657,0.7702,0.7783,0.8144,0.0,0.0,0.0,0.0,0.0,1.3136,1.4808,1.5921,1.7492,1.8988,2.0379,2.0861,2.16,2.2667,2.3258,2.4008,2.4894,2.5491,2.5764,2.5781,2.6281,2.6506,2.654,2.7057,2.7299,2.7299,2.7299,2.7299,2.7263,2.6805,2.6499,2.6205,2.5334,2.454,2.3887,0.0,0.0,2.294,2.2719,2.2799,2.3012,2.3335,0.0,0.0,2.5183,2.6415,2.8223,3.2168,0.0,3.9127,4.2852,4.5855,4.7945,4.8207,4.8924,4.93,4.8408,4.7282,4.6322,4.5951,4.5953,4.668,4.8706,5.0201,5.1545,5.2822,5.2935,5.2294,5.0673,5.1615,0.0,0.0,0.0,0.0,5.8578,5.9234,5.9635,5.9942,6.0354,6.0717,6.1023,6.1147,6.1265,6.1432,6.1482,6.1483,6.1427,6.1368,6.1285,6.1209,6.1186,6.1159,6.1117,6.0982,6.1002,6.1126,6.0723,6.0666,6.0839,6.0599,6.0494,6.0494,6.0494,6.0531,6.0592,0.0,0.0,0.0,0.0,0.0,0.0,0.0,0.0,0.0,0.0,0.0,0.0,0.0,0.0,0.0,0.0,0.0,1.4213,1.5276,1.6738,1.814,1.9443,2.0199,2.0919,2.1606,2.2192,2.2902,2.3695,2.4293,2.4715,2.4979,2.5473,2.5697,2.5685,2.6232,2.6471,2.6471,2.6471,2.6502,2.6528,2.6121,2.5883,2.5645,2.4788,2.3985,0.0,0.0,0.0,2.2089,2.2105,2.241,2.2838,2.3067,2.3834,2.4935,2.6428,2.8291,3.0965,3.6006,3.9398,4.2449,4.6178,4.8406,4.9679,4.9697,4.9539,4.9073,4.7881,4.5624,4.3716,4.3069,4.2992,4.3715,4.5726,4.7879,5.0044,5.2188,5.2736,5.2646,5.1889,5.3003,5.3995,0.0,0.0,0.0,5.899,5.9518,5.9885,6.0297,6.0655,6.0968,6.1262,6.1316,6.1398,6.1507,6.1445,6.1381,6.1287,6.1258,6.1137,6.0962,6.0962,6.0882,6.0776,6.0606,6.0618,6.0745,6.0347,6.0326,6.0489,6.0267,6.0198,6.0198,6.0198,6.0146,6.0103,0.0,0.0,0.0,0.0,0.0,0.0,0.0,0.0,0.0,0.0,0.0,0.0,0.0,0.0,0.0,0.0,0.0,0.0,1.4805,1.6331,1.7543,1.8338,1.9199,1.9608,1.9554,2.0608,2.1451,2.2006,2.3103,2.3966,2.4663,2.4787,2.4807,2.4783,2.489,2.4971,2.5005,2.502,2.5057,2.5164,2.5265,2.502,2.4509,2.384,0.0,0.0,0.0,0.0,2.0804,2.0914,0.0,0.0,0.0,0.0,2.6509,2.8156,3.0796,3.4171,3.8647,4.158,4.4221,4.7857,4.9248,4.9732,4.9688,4.9184,4.8173,4.6193,4.3538,4.1403,0.0,0.0,4.0596,4.224,4.462,4.7384,5.0556,5.1387,5.2197,0.0,0.0,0.0,0.0,0.0,0.0,5.9486,0.0,6.0226,6.0876,6.1031,6.1209,6.1392,6.1522,6.155,6.1501,6.1335,6.1216,6.108,6.1051,6.0922,6.0661,6.0661,6.0508,6.0184,6.017,6.017,6.0184,6.0156,6.0156,6.017,6.0156,6.0142,6.0142,6.0156,6.0004,5.9807,0.0,0.0,0.0,0.0,0.0,0.0,0.0,0.0,0.0,0.0,0.0,0.0,0.0,0.0,0.0,0.0,0.0,0.0,1.4184,1.5082,1.6296,1.788,1.86,1.9349,2.0142,2.0463,2.0688,2.0839,2.1115,2.1359,2.1558,2.2181,2.275,2.3292,2.3853,2.4439,2.502,2.5167,2.4864,2.4298,0.0,2.3586,2.2869,0.0,0.0,0.0,0.0,0.0,0.0,0.0,0.0,0.0,0.0,3.0789,3.167,0.0,0.0,3.8183,4.2222,4.5072,4.7547,5.0233,5.0599,5.0154,4.9543,4.7939,4.5614,4.2186,3.9085,3.6221,0.0,0.0,0.0,4.0676,4.5438,0.0,5.3387,5.4617,0.0,5.4816,0.0,5.6783,5.6184,5.7789,0.0,0.0,6.0234,6.0554,6.1011,6.1221,6.1385,6.1542,6.1536,6.1467,6.1353,6.1025,6.0843,6.0795,6.0551,6.0393,6.0326,6.0272,6.0217,6.0099,5.9814,5.9842,6.0103,5.9639,5.9624,5.9884,5.9641,5.9505,5.9452,5.9504,5.9452,5.9364,0.0,0.0,0.0,0.0,0.0,0.0,0.0,0.0,0.0,0.0,0.0,0.0,0.0,0.0,0.0,0.0,0.0,0.0,0.0,1.4311,1.5251,1.6323,1.7129,1.7864,1.8502,1.8827,1.9163,1.948,1.9763,2.0073,2.0364,2.0847,2.1278,2.1665,2.2104,2.2587,2.308,2.3188,2.304,0.0,0.0,0.0,0.0,0.0,0.0,0.0,0.0,0.0,0.0,0.0,0.0,2.9663,3.2739,3.384,3.4567,3.7291,0.0,4.2035,4.5302,4.7907,5.0055,5.1369,5.0834,4.9424,4.7242,4.4928,4.2022,3.7719,3.4665,0.0,2.9886,3.2341,0.0,0.0,0.0,0.0,5.2684,5.4489,5.5662,0.0,5.7575,0.0,5.7716,5.8933,5.9919,0.0,6.0611,6.0866,6.1208,6.1378,6.1475,6.1549,6.1499,6.1349,6.1074,6.0673,6.0476,6.0476,6.03,6.0113,5.9935,5.9889,5.9779,5.9601,5.9379,5.9415,5.9585,5.9253,5.9253,5.9434,5.9234,5.9158,5.9119,5.914,5.9139,5.9119,0.0,0.0,0.0,0.0,0.0,0.0,0.0,0.0,0.0,0.0,0.0,0.0,0.0,0.0,0.0,0.0,0.0,0.0,0.0,0.0,0.0,1.4509,1.541,1.595,1.609,1.6734,1.742,1.8175,1.8741,1.9401,2.0066,2.0125,2.0165,2.0221,2.0263,2.0425,2.0627,2.0667,2.0795,2.0962,0.0,0.0,0.0,0.0,0.0,0.0,0.0,0.0,0.0,0.0,3.0778,3.1146,3.4342,3.5775,3.6898,3.995,4.2766,4.5427,4.7757,4.9954,5.1555,5.1555,5.0359,4.8145,4.4107,4.1401,3.8311,3.3325,0.0,2.8877,2.7808,3.0183,3.3005,3.5185,0.0,4.6135,5.0954,5.3181,5.5271,5.7869,5.8535,5.8926,5.9305,5.9722,6.0173,6.0692,6.0924,6.1155,6.1403,6.1471,6.1488,6.1428,6.1336,6.112,6.0719,6.034,6.0127,6.0127,6.0084,5.9874,5.9516,5.9499,5.9326,5.8983,5.8983,5.8983,5.8983,5.8983,5.9003,5.9004,5.9004,5.8984,5.9003,5.9003,5.8984,5.9003,0.0,0.0,0.0,0.0,0.0,0.0,0.0,0.0,0.0,0.0,1.0962,1.0673,0.0,0.0,0.0,0.0,0.0,0.0,0.0,0.0,0.0,1.4545,1.4708,1.5192,1.609,1.6238,1.6675,0.0,0.0,0.0,1.8818,1.8828,1.915,1.9723,1.9734,2.0123,2.078,2.1067,2.0803,2.0222,0.0,0.0,0.0,0.0,0.0,0.0,0.0,0.0,0.0,0.0,3.3454,3.6005,4.0467,4.1945,4.2555,4.5035,4.6159,4.6967,4.878,5.0056,5.0862,5.0862,4.9751,4.7389,4.2675,3.9816,0.0,0.0,2.8375,2.7029,2.4889,2.7056,3.0962,3.6397,4.0881,4.6209,5.3477,5.534,5.664,0.0,5.8908,5.9234,5.9516,6.0017,0.0,0.0,6.1194,6.1396,6.1555,6.1522,6.1348,6.1015,6.0827,6.0599,6.0313,6.0019,5.9801,5.9698,5.9469,5.9271,5.9102,5.9042,5.8962,5.892,5.8799,0.0,5.892,5.892,5.8942,5.9004,5.9004,5.8982,5.8921,5.8983,5.8944,5.894,0.0,0.0,0.0,0.0,0.0,0.0,0.0,0.9924,1.0724,1.236,1.25,1.2328,1.1927,1.2138,0.0,0.0,0.0,0.0,0.0,0.0,0.0,0.0,0.0,1.4378,1.4891,0.0,0.0,0.0,0.0,0.0,0.0,0.0,0.0,0.0,0.0,0.0,0.0,0.0,0.0,0.0,0.0,0.0,0.0,0.0,0.0,0.0,0.0,0.0,0.0,0.0,3.2191,3.684,4.1437,4.3161,4.3964,4.6302,4.7306,4.7984,4.9567,5.0306,5.0592,5.0592,4.8529,4.5136,4.0072,0.0,0.0,0.0,2.5764,2.5122,2.397,2.6375,0.0,3.3978,3.833,4.3774,5.1098,5.3186,0.0,5.8317,5.9006,5.9341,0.0,6.0206,6.0702,6.1169,6.1385,6.1536,6.1591,6.1373,6.1122,6.0857,6.045,5.9991,5.9481,5.9212,5.8875,5.8442,5.8325,5.8357,5.8519,5.8492,5.8593,5.8779,5.8737,5.8574,5.8385,5.8385,5.8238,5.805,5.8329,5.8242,5.8019,5.8619,5.8658,5.8428,0.0,0.0,0.0,0.0,0.0,0.0,0.0,1.0812,1.1772,1.3167,1.3781,1.3855,1.3239,1.2693,1.2391,0.0,0.0,0.0,0.0,0.0,0.0,0.0,0.0,0.0,0.0,0.0,0.0,0.0,0.0,0.0,0.0,0.0,0.0,0.0,0.0,0.0,0.0,0.0,0.0,0.0,0.0,0.0,0.0,0.0,0.0,0.0,0.0,0.0,0.0,0.0,2.9577,3.4459,3.8798,4.137,4.3164,4.5207,4.6726,4.8107,4.9663,5.0491,5.0795,5.0456,4.767,4.3509,3.7859,3.423,0.0,0.0,2.3919,2.3855,2.3891,2.5979,2.8597,0.0,3.5058,4.0289,4.7805,5.024,5.3072,0.0,5.9009,0.0,6.0013,6.0446,0.0,6.1417,6.1511,6.1543,6.1542,6.1131,6.0818,6.0665,6.0055,5.9391,5.8725,5.8431,5.799,5.7395,5.7395,5.7551,5.7882,5.7882,5.806,5.8363,5.8363,5.8105,5.7742,5.7742,5.7486,5.7141,5.7558,5.7462,5.7198,5.806,5.8082,5.7789,0.0,0.0,0.0,0.0,0.0,0.0,0.0,1.0996,1.214,1.395,1.4299,1.4291,1.4101,1.3551,1.3031,0.0,0.0,0.0,0.0,0.0,0.0,0.0,0.0,0.0,0.0,0.0,0.0,0.0,0.0,0.0,0.0,0.0,0.0,0.0,0.0,0.0,0.0,0.0,0.0,0.0,0.0,0.0,0.0,0.0,0.0,0.0,0.0,0.0,0.0,0.0,0.0,2.7951,3.1965,3.654,4.0621,4.1613,0.0,0.0,4.8397,5.0456,5.1795,5.0317,4.8132,4.4469,3.7404,0.0,0.0,2.5134,2.3996,2.4026,2.4135,2.4364,2.6049,3.0668,0.0,3.6406,4.6119,4.8825,5.1859,5.7398,0.0,0.0,6.0484,6.0923,6.1278,6.1566,6.1481,6.1398,6.132,6.0838,6.0424,6.017,5.9516,5.8949,5.8447,5.8094,5.7724,5.7297,5.7297,5.7272,5.7191,5.7191,5.7216,5.7266,5.7266,5.7216,5.7166,5.7166,5.7123,5.7116,5.7148,5.7123,5.7116,5.7216,5.7216,5.7191,0.0,0.0,0.0,0.0,0.0,0.0,1.0787,1.1311,1.235,1.4774,1.5104,1.5104,1.5051,1.4464,1.371,0.0,0.0,0.0,0.0,0.0,0.0,0.0,0.0,0.0,0.0,0.0,0.0,0.0,0.0,0.0,0.0,0.0,0.0,0.0,0.0,0.0,0.0,0.0,0.0,0.0,0.0,0.0,0.0,0.0,0.0,0.0,0.0,0.0,0.0,0.0,0.0,0.0,2.6668,2.9886,0.0,0.0,4.2195,4.4503,4.8283,5.0208,5.0842,4.9509,4.6323,4.2066,3.6638,0.0,2.9219,2.5334,2.4451,2.4382,2.4434,2.4483,2.5257,2.7542,2.8606,3.1573,3.8512,4.2196,4.6561,5.2972,5.6183,0.0,0.0,0.0,6.1331,6.1536,6.1291,6.1111,6.0997,6.0383,5.9946,5.9798,5.8875,5.8076,5.7503,5.7162,5.6721,5.6219,5.6219,5.6366,5.6617,5.6617,5.6783,5.7116,5.7116,5.6912,5.6617,5.6617,5.6447,5.6164,5.6483,5.6402,5.6219,5.6861,5.6887,5.6652,0.0,0.0,0.0,0.0,0.0,0.9055,1.0695,1.1278,1.232,1.4433,1.507,1.5323,1.5308,1.4737,1.401,1.318,1.2992,0.0,0.0,0.0,0.0,0.0,0.0,0.0,0.0,0.0,0.0,0.0,0.0,0.0,0.0,0.0,0.0,0.0,0.0,0.0,0.0,0.0,0.0,0.0,0.0,0.0,0.0,0.0,0.0,0.0,0.0,0.0,0.0,0.0,0.0,0.0,0.0,0.0,0.0,0.0,3.9478,4.2202,4.6784,4.9153,5.0051,4.9021,4.5109,4.042,0.0,3.1927,2.8017,2.5382,2.4727,2.4631,2.4678,2.4779,2.4964,2.537,2.6193,2.8548,3.3724,3.7453,4.2102,0.0,0.0,5.5612,0.0,6.0444,6.1381,6.1458,6.1034,6.0702,6.0527,5.9718,5.9307,5.9383,5.8307,5.7395,5.6765,5.6421,5.6007,5.5507,5.5507,5.5677,5.5978,5.5978,5.6156,5.6474,5.6474,5.6276,5.5978,5.5922,5.5729,5.5537,5.5854,5.5786,5.5578,5.6339,5.6393,5.6108,0.0,0.0,0.0,0.0,0.0,0.0,0.9507,1.0808,1.1913,1.2556,1.3834,1.4676,1.4612,1.4127,1.3797,1.3796,1.3298,0.0,0.0,0.0,0.0,0.0,0.0,0.0,0.0,0.0,0.0,0.0,0.0,0.0,0.0,0.0,0.0,0.0,0.0,0.0,0.0,0.0,0.0,0.0,0.0,0.0,0.0,0.0,0.0,0.0,0.0,0.0,0.0,0.0,0.0,0.0,0.0,0.0,0.0,0.0,3.5274,3.9852,4.3163,4.7015,4.9901,4.9115,4.5171,4.0463,3.6515,3.1771,2.7531,2.519,2.47,2.4746,2.487,2.4891,2.4945,2.5082,2.5732,2.8217,3.3979,3.6252,3.9599,0.0,0.0,5.0807,5.4684,5.8964,6.1467,6.1417,6.0664,0.0,5.992,5.8822,5.8433,5.8877,5.7867,5.7004,5.6394,5.6073,5.5764,5.5507,5.5507,5.5401,5.5229,5.5229,5.5139,5.5022,5.5022,5.5096,5.5199,5.5066,5.5221,5.5478,5.5277,5.5336,5.5507,5.5507,5.5507,5.5507,0.0,0.0,0.0,0.0,0.0,0.0,0.0,0.9983,1.0865,1.2519,1.2693,1.3205,1.4647,1.3793,1.3349,1.3946,1.3501,0.0,0.0,0.0,0.0,0.0,0.0,0.0,0.0,0.0,1.7441,1.9433,1.9686,0.0,0.0,0.0,0.0,0.0,0.0,0.0,0.0,0.0,0.0,0.0,0.0,0.0,0.0,0.0,0.0,0.0,0.0,0.0,0.0,0.0,0.0,0.0,0.0,0.0,0.0,2.6267,3.0343,0.0,3.7945,4.0413,4.1796,4.0742,3.8061,3.4986,3.2257,2.9147,2.6495,2.5298,2.5038,2.5057,2.5095,2.5114,2.5482,2.667,2.7038,2.8184,3.1175,0.0,0.0,4.5542,5.2916,5.8155,0.0,0.0,6.1437,6.1285,6.0594,6.0076,5.979,5.878,5.815,5.8032,5.7155,5.6492,5.6063,5.5775,5.5502,5.5277,5.4769,5.4454,5.4296,5.3744,5.3481,5.3431,5.3431,5.3448,5.3481,5.3465,5.3498,5.363,5.4119,5.4345,5.4457,5.4974,5.5161,5.5174,0.0,0.0,0.0,0.0,0.0,0.0,0.0,0.9426,1.0058,1.1348,1.1398,1.2004,1.3827,1.3093,1.2894,1.3979,1.3565,0.0,0.0,0.0,0.0,0.0,0.0,0.0,0.0,1.6423,1.7709,2.0255,2.0255,2.0778,2.1772,2.1316,0.0,0.0,0.0,0.0,0.0,0.0,0.0,0.0,0.0,0.0,0.0,0.0,0.0,0.0,0.0,0.0,0.0,0.0,0.0,0.0,0.0,0.0,0.0,0.0,2.5877,2.915,0.0,3.634,3.7485,3.6777,3.4502,3.1996,3.036,2.7837,2.569,2.5288,2.5209,2.5198,2.5189,2.5208,2.5547,2.6599,2.6982,2.8083,0.0,0.0,0.0,4.6867,0.0,0.0,0.0,6.0662,6.1227,6.0827,6.015,5.9589,5.9158,5.8116,5.734,5.6863,5.6555,5.6189,5.5764,5.5383,5.5144,5.5,5.4183,5.373,5.3582,5.2925,5.2597,5.2511,5.2511,5.2562,0.0,5.2527,5.2597,5.2788,5.3515,5.3828,5.4008,5.4741,5.4992,5.5022,0.0,0.0,0.0,0.0,0.0,0.0,0.0,0.9087,0.9497,0.9414,1.007,1.1026,1.2316,1.2081,1.2367,1.3727,0.0,0.0,0.0,0.0,0.0,0.0,0.0,0.0,0.0,1.6575,1.7925,2.0488,2.0543,2.115,2.2253,2.2204,2.1745,0.0,0.0,0.0,0.0,0.0,0.0,0.0,0.0,0.0,0.0,0.0,0.0,0.0,0.0,0.0,0.0,0.0,0.0,0.0,0.0,0.0,0.0,0.0,0.0,0.0,0.0,3.3856,3.5707,3.5707,3.3358,3.0854,3.0107,2.7487,0.0,2.5217,2.5217,2.5225,2.5275,2.5231,2.5283,2.552,2.6197,0.0,0.0,3.6764,0.0,0.0,5.3592,0.0,5.6245,5.9231,6.0845,6.0163,5.9446,5.8798,5.8168,5.7062,5.6193,5.5554,5.5996,5.5964,5.5341,5.4834,5.4568,5.4537,5.3581,5.3095,5.2923,5.2524,5.2208,0.0,5.2048,5.2137,5.2295,5.2084,5.221,5.258,5.3197,5.3532,5.3795,5.4537,5.4852,5.49,0.0,0.0,0.0,0.0,0.0,0.0,0.0,0.0,0.0,0.0,0.9151,0.9455,1.0978,1.1003,1.1311,0.0,0.0,0.0,0.0,0.0,0.0,0.0,0.0,0.0,0.0,1.6112,1.7776,2.0411,2.1049,2.218,2.3765,2.3252,2.2554,2.1727,2.135,0.0,0.0,0.0,0.0,0.0,0.0,0.0,0.0,0.0,0.0,0.0,0.0,2.0272,0.0,0.0,0.0,0.0,0.0,0.0,0.0,0.0,2.1741,2.2389,2.4624,0.0,2.7034,2.6979,2.6864,2.6716,0.0,2.5849,2.5283,2.5287,0.0,2.5468,2.6074,2.565,2.6074,2.8739,0.0,0.0,3.6251,0.0,0.0,5.5387,5.8335,5.9274,5.737,5.9215,6.0396,6.0123,5.9187,5.8312,5.7541,5.6709,5.5844,5.4866,5.487,5.453,5.3828,5.3697,5.3432,5.2992,5.2191,5.1704,5.1549,5.0821,5.0493,5.0454,5.0454,5.0454,5.0493,5.0454,5.0493,5.0631,5.1406,5.1736,5.1829,5.2579,5.3264,5.3781,0.0,0.0,0.0,0.0,0.0,0.0,0.0,0.0,0.0,0.0,0.0,0.0,0.0,0.0,0.0,0.0,0.0,0.0,0.0,0.0,0.0,0.0,0.0,0.0,1.5168,1.5991,1.7725,2.0455,2.1223,2.2565,2.4436,2.4066,2.3238,2.2054,2.1048,0.0,0.0,0.0,0.0,0.0,0.0,0.0,0.0,0.0,0.0,0.0,1.9686,1.9725,0.0,2.0676,2.0943,2.0939,0.0,0.0,0.0,0.0,2.1077,2.1143,2.1627,2.3199,2.4687,2.4653,2.5308,2.5948,2.5948,2.5625,2.5341,0.0,0.0,0.0,0.0,0.0,0.0,0.0,3.1176,0.0,0.0,0.0,5.2501,5.7107,5.8846,5.9484,0.0,5.968,5.9996,5.9706,5.855,5.7564,5.691,5.5839,5.4891,5.4149,5.3614,5.3281,5.3315,5.3044,5.27,5.2208,5.1352,5.0897,5.0816,5.0175,4.9876,4.9876,4.9876,4.9876,4.9876,4.9876,4.9876,4.9995,5.0778,5.1118,5.1177,5.1921,5.2491,5.2855,0.0,0.0,0.0,0.0,0.0,0.0,0.0,0.0,0.0,0.0,0.0,0.0,0.0,0.0,0.0,0.0,0.0,0.0,0.0,0.0,0.0,0.0,0.0,1.4549,1.5482,1.613,1.7788,2.0523,2.1301,2.2622,2.442,2.4556,2.3787,2.2209,2.0774,0.0,0.0,0.0,0.0,0.0,0.0,0.0,0.0,0.0,0.0,0.0,0.0,0.0,0.0,2.0816,2.1417,2.1525,2.1519,0.0,0.0,0.0,0.0,0.0,2.074,2.325,2.5674,2.5144,2.5873,2.6664,2.6529,0.0,0.0,0.0,0.0,0.0,0.0,2.7626,0.0,0.0,0.0,0.0,4.6336,4.9068,5.2168,5.7007,5.7864,0.0,5.9944,5.9894,5.9533,5.8952,5.7749,5.675,5.6123,5.48,5.3811,5.323,5.2295,5.2029,5.2564,5.2298,5.201,5.1594,5.0669,5.0276,5.0237,4.99,4.9757,4.9757,4.9876,4.9876,4.9876,4.9876,4.9876,4.9955,5.0663,5.093,5.0989,5.1631,5.1921,5.2065,0.0,0.0,0.0,0.0,0.0,0.0,0.0,0.0,0.0,0.0,0.0,0.0,0.0,0.0,0.0,0.0,0.0,0.0,0.0,0.0,0.0,0.0,1.404,1.4816,1.6365,1.6624,1.8005,2.0572,2.1554,2.257,2.3606,2.4403,2.3975,2.2496,2.1574,2.0794,2.0162,0.0,0.0,0.0,0.0,0.0,0.0,0.0,0.0,0.0,0.0,0.0,0.0,1.9483,2.0063,2.0686,2.0685,0.0,0.0,0.0,0.0,0.0,2.2217,2.5098,2.6978,2.4018,2.5005,2.651,2.5777,2.5507,0.0,0.0,0.0,0.0,0.0,2.8772,2.9462,0.0,0.0,4.6403,0.0,0.0,5.7518,5.7515,0.0,5.9577,5.7054,5.8281,5.8783,5.7666,5.6982,5.6012,5.4691,5.4166,5.3129,5.1472,5.1059,5.0358,4.9264,5.029,5.0624,5.0198,4.951,4.9132,4.9132,4.9091,4.9066,4.9107,4.9661,4.9876,4.9876,4.9876,4.9876,4.9916,5.0034,5.0058,5.0113,5.0198,5.0685,5.1348,0.0,0.0,0.0,0.0,0.0,0.0,0.0,0.0,0.0,0.0,0.0,0.0,0.0,0.0,0.0,0.0,0.0,0.0,0.0,0.0,0.0,1.4526,1.467,1.5113,1.5874,1.7276,1.8849,2.0602,2.2007,2.3198,2.4159,2.3781,2.3282,2.2602,2.1361,2.0592,2.0265,0.0,0.0,0.0,0.0,0.0,0.0,0.0,0.0,0.0,0.0,0.0,0.0,0.0,1.9783,2.0506,2.0498,0.0,0.0,0.0,0.0,0.0,2.1434,2.3796,2.5887,2.5178,2.7954,3.0767,3.0361,2.9893,0.0,0.0,0.0,0.0,0.0,0.0,3.5065,4.2136,0.0,4.8876,5.3282,5.4804,5.5938,0.0,0.0,5.8489,5.809,5.811,5.7847,5.7188,5.5877,5.4774,5.4051,5.2943,5.1872,5.0855,4.997,4.9175,4.8512,4.8913,4.901,4.8836,4.849,4.835,4.835,4.8723,4.8887,4.8944,4.9622,4.9876,4.9876,4.9876,4.9876,4.9876,4.9876,4.9876,4.9876,4.9876,5.0136,5.0509,0.0,0.0,0.0,0.0,0.0,0.0,0.0,0.0,0.0,0.0,0.0,0.0,0.0,0.0,0.0,0.0,0.0,0.0,0.0,0.0,1.4125,1.5015,1.535,1.5809,1.638,1.8118,1.9731,2.1136,2.2539,2.3797,2.4847,2.3516,2.2832,2.2652,2.124,2.0518,2.0325,2.0376,0.0,0.0,0.0,0.0,0.0,0.0,0.0,0.0,0.0,0.0,0.0,0.0,0.0,0.0,0.0,0.0,0.0,2.072,2.052,2.0613,2.0995,2.298,2.5307,2.6999,0.0,3.2934,3.4123,3.3731,0.0,0.0,0.0,0.0,0.0,3.6213,0.0,4.8054,4.9637,5.1228,5.4882,5.4838,5.5325,5.7703,5.753,5.7758,5.9182,5.7962,5.6909,5.6485,5.4769,5.3564,5.3163,5.1694,5.0589,4.997,4.8851,4.8137,4.7885,4.7591,4.7563,4.7904,4.7749,4.7664,4.7691,4.8198,4.8434,4.8475,4.9163,4.9501,4.9661,4.9661,4.9757,4.9876,4.9876,4.9876,4.9876,4.9876,4.9876,4.9876,0.0,0.0,0.0,0.0,0.0,0.0,0.0,0.0,0.0,0.0,0.0,0.0,0.0,0.0,0.0,0.0,0.0,0.0,0.0,0.0,1.3942,1.4868,1.5753,1.7311,1.9609,1.9281,2.0297,2.2731,2.3099,2.3902,2.505,2.4208,2.3448,2.2752,2.1959,2.1156,2.0399,2.0396,0.0,0.0,0.0,0.0,0.0,0.0,0.0,0.0,0.0,0.0,0.0,0.0,0.0,0.0,0.0,0.0,2.0679,2.0604,2.0583,2.0928,2.2487,2.4773,2.7129,2.879,2.8271,2.8598,3.3321,3.3731,0.0,3.7013,0.0,0.0,0.0,4.0982,4.3815,4.7057,5.149,5.5763,5.9338,0.0,6.0448,6.0362,5.9562,5.8789,5.8278,5.7152,5.5972,5.4874,5.3838,5.2652,5.1271,5.0741,4.9599,4.7801,4.7646,4.7103,4.609,4.606,4.6682,4.7904,4.7292,4.696,4.696,4.7004,4.7032,4.7076,4.7749,4.8407,4.8969,4.8969,4.9325,4.9876,4.9876,4.9876,4.9876,4.9876,4.9876,4.9876,0.0,0.0,0.0,0.0,0.0,0.0,0.0,0.0,0.0,0.0,0.0,0.0,0.0,0.0,0.0,0.0,0.0,0.0,0.0,0.0,1.3987,1.4684,1.5855,1.7146,1.8547,1.9938,2.1423,2.3012,2.3911,2.4332,2.4268,2.3511,2.2748,2.1956,2.1229,2.0704,0.0,0.0,0.0,0.0,0.0,0.0,0.0,0.0,0.0,0.0,0.0,0.0,0.0,0.0,1.776,1.8643,1.9519,2.0166,2.0599,2.0601,2.0601,2.0735,2.1373,2.4198,2.7218,2.8317,2.8884,0.0,0.0,3.8215,3.8966,3.971,4.1604,0.0,0.0,0.0,4.9282,5.0392,5.4429,5.8273,6.07,6.0979,6.0806,6.0512,5.9498,5.8572,5.791,5.6169,5.4772,5.3969,5.2269,5.1048,5.0451,4.9296,4.8247,4.7518,4.6182,4.5312,4.4897,4.428,4.4252,4.4752,4.5763,4.6284,4.6269,4.6712,4.6916,4.6916,4.7621,4.803,4.8282,4.8282,4.8449,4.8697,4.9122,4.9284,4.9325,4.9757,4.9876,4.9876,0.0,0.0,0.0,0.0,0.0,0.0,0.0,0.0,0.0,0.0,0.0,0.0,0.0,0.0,0.0,0.0,0.0,0.0,0.0,1.3219,1.3908,1.4667,1.5576,1.6693,1.8029,1.9899,2.148,2.2726,2.3973,2.4183,2.3402,2.2625,2.2134,2.1868,2.0836,2.0533,0.0,0.0,0.0,0.0,0.0,0.0,0.0,0.0,0.0,0.0,0.0,0.0,0.0,0.0,1.7101,1.7787,1.8931,1.9714,2.0246,2.0518,2.1161,2.1804,2.1804,2.4344,2.7318,2.8624,0.0,0.0,3.9373,4.1514,4.2504,4.3843,4.5806,0.0,4.5309,0.0,0.0,0.0,5.6276,5.9492,6.1166,6.0932,6.0479,6.0217,5.8897,5.778,5.714,5.5161,5.3591,5.2739,5.0957,4.9726,4.9311,4.7713,4.6695,4.6388,4.4734,4.3782,4.3673,4.3115,4.2792,4.284,4.4233,4.511,4.5429,4.621,4.658,4.6624,4.7076,4.7407,4.7578,4.7578,4.7706,4.7946,4.8392,4.8723,4.8969,4.9405,4.9717,4.9876,0.0,0.0,0.0,0.0,0.0,0.0,0.0,0.0,0.0,0.0,0.0,0.0,0.0,0.0,0.0,0.0,0.0,0.0,1.3075,1.3093,1.3632,1.4826,1.4903,1.6114,1.8699,1.9103,2.0151,2.1895,2.3114,2.3315,2.2579,2.1713,2.1838,2.2696,2.1041,0.0,0.0,0.0,0.0,0.0,0.0,0.0,0.0,0.0,0.0,0.0,0.0,0.0,0.0,0.0,1.6688,1.7001,1.8738,1.9304,1.9479,2.0353,2.2398,2.4385,2.4381,2.568,2.764,0.0,0.0,0.0,4.1873,4.2811,4.378,4.9883,5.0442,4.9569,4.8777,0.0,0.0,5.3351,5.6678,5.9441,6.0985,6.0565,5.9989,5.9722,5.7965,5.6525,5.5772,5.4107,5.2474,5.1004,5.0016,4.8866,4.7561,4.6079,4.4847,4.3929,4.315,4.2633,4.2363,4.2633,4.2792,4.2744,4.2792,4.3307,4.4312,4.5398,4.588,4.588,4.588,4.6269,4.6887,4.6887,4.7292,4.7861,4.7904,4.8309,4.8887,4.8887,4.9325,4.9876,0.0,0.0,0.0,0.0,0.0,0.0,0.0,0.0,0.0,0.0,0.0,0.0,0.0,0.0,0.0,0.0,0.0,0.0,0.0,1.2875,1.3371,1.3825,1.4606,1.5447,1.6314,1.7734,1.9685,2.2173,2.3207,2.2987,2.1612,2.2024,2.1765,2.0979,2.1132,0.0,0.0,0.0,0.0,0.0,0.0,0.0,0.0,0.0,0.0,0.0,0.0,0.0,0.0,0.0,0.0,0.0,1.8023,1.9232,2.0267,2.0519,2.1962,2.3365,2.2794,2.608,0.0,3.1319,0.0,0.0,0.0,4.5616,0.0,0.0,5.2669,5.0675,5.0532,0.0,0.0,5.3865,5.7222,6.0191,6.1082,6.0565,5.9819,5.9077,5.7702,5.6268,5.4921,5.3095,5.1373,4.9905,4.7588,4.5931,4.5211,4.3765,4.278,4.2517,4.1762,4.1243,4.0993,4.0743,4.0402,3.9981,4.1119,4.2244,4.3259,4.3559,4.3701,4.3701,4.3701,4.4219,4.5144,4.5896,4.6314,4.6565,4.6989,4.7336,4.7536,4.803,4.8324,4.849,0.0,0.0,0.0,0.0,0.0,0.0,0.0,0.0,0.0,0.0,0.0,0.0,0.0,0.0,0.0,0.0,0.0,0.0,0.0,0.0,1.3295,1.3506,1.4226,1.4858,1.5406,1.7493,1.9161,2.0307,2.1224,2.1171,2.0234,2.1143,2.1458,2.1257,2.1822,2.1682,0.0,0.0,0.0,0.0,1.8591,1.7796,1.6745,0.0,0.0,0.0,0.0,0.0,0.0,0.0,0.0,0.0,1.7205,1.8183,1.9355,2.1086,2.2549,2.4032,2.5948,0.0,0.0,3.491,3.8589,4.2835,4.7981,0.0,0.0,0.0,0.0,5.2755,5.3268,5.4782,0.0,5.5836,5.8014,6.001,6.0844,6.0311,5.9452,5.8458,5.6927,5.5318,5.3781,5.1749,4.978,4.7965,4.5843,4.4232,4.3353,4.203,4.1267,4.1154,4.054,4.002,3.9609,3.9672,3.9374,3.8788,3.9943,4.0781,4.1419,4.2341,4.2792,4.2792,4.2792,4.3355,4.4359,4.5003,4.5535,4.5925,4.6358,4.6668,4.6916,4.7118,4.7362,4.7591,0.0,0.0,0.0,0.0,0.0,0.0,0.0,0.0,0.0,0.0,0.0,0.0,0.0,0.0,0.0,0.0,0.0,0.0,0.0,0.0,1.3353,1.369,1.3988,1.4631,1.5677,1.791,1.8444,1.7144,1.8134,1.8628,1.8713,1.959,2.0914,2.2577,2.2659,2.2262,0.0,0.0,1.9382,1.8064,1.8771,1.8111,1.6786,1.7588,0.0,0.0,0.0,0.0,0.0,0.0,0.0,0.0,1.6425,1.6718,1.7512,2.1574,2.36,2.5747,3.1393,0.0,0.0,3.9777,4.2288,0.0,5.2348,5.3944,5.4341,5.5947,0.0,5.5308,5.6305,5.586,5.6091,5.8404,5.8796,5.918,6.0215,5.9684,5.8776,5.7733,5.5686,5.3802,5.2381,5.0087,4.7741,4.5515,4.4404,4.3163,4.1736,4.0742,3.9994,3.9674,3.9376,3.8893,3.8198,3.9154,3.9322,3.8736,3.9102,3.9258,3.931,4.1468,4.2501,4.2501,4.2598,4.3163,4.4017,4.4219,4.4805,4.564,4.579,4.6135,4.655,4.6092,4.6388,4.6886,0.0,0.0,0.0,0.0,0.0,0.0,0.0,0.0,0.0,0.0,0.0,0.0,0.0,0.0,0.0,0.0,0.0,0.0,0.0,0.0,1.3362,1.3694,1.5145,1.6074,1.6381,1.7009,1.692,1.6042,1.7755,1.8628,1.8713,1.959,2.0265,2.0796,2.1463,2.102,0.0,0.0,1.8334,1.7951,1.7467,1.7039,1.6727,1.6903,1.6319,0.0,0.0,0.0,0.0,0.0,0.0,0.0,1.6425,1.7168,1.8026,1.9647,2.2633,2.6009,2.8675,3.2724,0.0,0.0,4.6259,5.1228,5.467,5.5436,5.5556,5.6038,5.5974,5.5958,5.6348,5.6868,5.7361,5.7819,5.8448,5.8824,5.8671,5.7987,5.7184,5.6264,5.4021,5.1981,5.0542,4.7762,4.5387,4.3709,4.1892,4.0565,3.9802,3.9,3.8056,3.7073,3.8015,3.7974,3.6677,3.8238,3.8736,3.8198,3.8684,3.8893,3.8945,3.9698,4.016,4.0415,4.1182,4.1654,4.1985,4.364,4.3984,4.3606,4.4773,4.4879,4.434,4.4648,4.4894,4.4972,0.0,0.0,0.0,0.0,0.0,0.0,0.0,0.0,0.0,0.0,0.0,0.0,0.0,0.0,0.0,0.0,0.0,0.0,0.0,0.0,1.3589,1.3922,1.5255,1.5814,1.5515,1.5932,1.6021,1.5704,1.633,1.7341,0.0,0.0,2.1103,2.197,2.2032,2.1227,0.0,0.0,1.8115,1.7367,1.7333,1.7061,1.6709,1.6692,1.6165,1.5404,1.5406,0.0,0.0,0.0,0.0,0.0,0.0,0.0,1.7179,1.9297,2.1483,2.4217,2.8852,0.0,0.0,4.3222,0.0,5.2867,5.4878,5.561,5.5882,5.6024,5.6054,5.611,5.6276,5.6767,5.7214,5.7467,5.7783,5.7876,5.7538,5.686,5.5778,5.4044,5.1346,4.9023,4.7338,4.3914,4.1333,4.0117,3.8425,3.721,3.6757,3.6283,3.587,3.5333,3.6263,3.6263,3.5344,3.7084,3.7418,3.6317,3.7856,3.8631,3.8631,3.9218,3.9581,3.9749,4.0275,4.0743,4.1269,4.2377,4.2716,4.2668,4.3497,4.3654,4.3334,4.2999,4.3108,4.341,0.0,0.0,0.0,0.0,0.0,0.0,0.0,0.0,0.0,0.0,0.0,0.0,0.0,0.0,0.0,0.0,0.0,0.0,0.0,1.3415,1.3911,1.4362,1.5034,1.5184,1.4713,1.5248,1.5587,1.5672,1.505,0.0,0.0,0.0,0.0,2.3664,2.2847,0.0,0.0,1.9324,1.8009,1.6547,1.7257,1.7121,1.6476,1.648,1.6032,1.5406,1.5407,1.5409,1.539,1.5391,0.0,0.0,0.0,0.0,1.6006,1.9043,2.0312,2.2207,2.8947,0.0,3.6256,4.5335,4.9499,0.0,5.3983,5.4946,5.5469,5.5715,5.5897,5.6051,5.6203,5.6336,5.6573,5.7106,5.6962,5.6699,5.6402,5.5604,5.4118,5.1621,4.8374,4.5657,4.3929,3.9946,3.7161,3.6458,3.51,3.4131,3.372,3.3862,3.3916,3.3927,3.4493,3.4603,3.4112,3.5761,3.587,3.4447,3.6696,3.8027,3.8409,3.8985,3.9362,3.9542,3.9594,4.0121,4.0882,4.1069,4.1406,4.1887,4.2119,4.2377,4.2474,4.1455,4.1468,4.2025,0.0,0.0,0.0,0.0,0.0,0.0,0.0,0.0,0.0,0.0,0.0,0.7717,0.8039,0.8613,0.0,0.0,0.0,0.0,1.2214,0.0,0.0,1.5106,1.5321,1.5688,1.6287,1.5891,1.5633,1.5533,0.0,0.0,0.0,0.0,0.0,2.2825,0.0,0.0,0.0,0.0,1.7103,1.5582,1.5694,1.5679,1.5563,1.5563,1.5505,1.5407,1.539,1.5391,1.5391,1.5409,1.5407,0.0,0.0,0.0,1.5637,1.6853,1.9355,2.2266,0.0,0.0,3.8645,0.0,4.8151,4.8934,0.0,0.0,5.3998,0.0,5.5513,5.6149,5.6344,5.64,5.6395,5.6367,5.6139,5.565,5.4754,5.3119,5.137,4.9676,4.578,4.2743,4.1647,3.7687,3.5097,3.4768,3.3402,3.2599,3.2501,3.3138,3.3044,3.2008,3.3617,3.3944,3.296,3.4168,3.467,3.4391,3.5035,3.6414,3.8356,3.7749,3.8015,3.8945,3.9218,3.9413,3.9608,4.0516,4.0414,3.9801,4.0919,4.0856,4.0096,4.0401,4.0553,4.0768,0.0,0.0,0.0,0.0,0.0,0.0,0.0,0.0,0.0,0.0,0.0,0.8439,0.8432,0.8911,0.0,0.0,0.0,0.0,1.236,1.3004,0.0,0.0,1.4756,1.4959,1.5304,1.5052,1.5113,1.5506,0.0,0.0,0.0,1.9436,2.0878,0.0,0.0,0.0,0.0,0.0,0.0,1.6038,1.5547,1.6502,1.8037,1.6096,1.6568,1.8001,1.6091,1.5409,1.5409,0.0,1.5719,1.6031,1.5543,0.0,0.0,0.0,1.775,0.0,2.5937,3.1794,3.7837,0.0,4.646,4.8507,5.0777,0.0,5.3716,5.4076,5.4861,5.5638,5.6188,5.6289,5.6269,5.6156,5.5693,5.4998,5.3948,5.213,4.9977,4.7488,4.3419,4.0165,3.8471,3.4423,3.1881,3.1785,3.0512,2.9826,3.0002,3.0479,3.0589,3.0228,3.1182,3.1462,3.0977,3.2111,3.3167,3.4032,3.3815,3.4547,3.6154,3.5761,3.675,3.8788,3.8945,3.8998,3.905,3.948,3.9324,3.8828,3.9428,3.9519,3.9364,3.9144,3.9351,3.9763,0.0,0.0,0.0,0.0,0.0,0.0,0.0,0.0,0.0,0.0,0.0,0.0,0.9256,0.0,0.0,0.0,0.0,0.0,1.2648,0.0,0.0,0.0,0.0,1.4292,1.43,1.43,1.4589,0.0,0.0,0.0,2.0284,1.9981,2.1683,0.0,2.2852,2.178,0.0,0.0,0.0,0.0,1.6695,1.8189,2.0361,1.9044,1.9901,2.1393,1.8403,0.0,0.0,0.0,0.0,0.0,0.0,0.0,0.0,0.0,0.0,0.0,0.0,0.0,3.4143,3.9309,4.3428,4.6698,0.0,0.0,5.2887,0.0,5.3959,5.4655,5.5449,5.5911,5.6157,5.6012,5.5313,5.4325,5.2956,5.1065,4.8584,4.5294,4.1339,3.8011,3.567,3.1885,2.9443,2.9227,2.817,2.7462,2.734,2.7836,2.8164,2.8389,2.8877,2.9281,2.9626,3.0485,3.1725,3.3322,3.2492,3.2891,3.4391,3.4112,3.5322,3.7684,3.8068,3.8396,3.8684,3.8684,3.8566,3.8409,3.8303,3.8554,3.8804,3.8238,3.8396,3.8908,0.0,0.0,0.0,0.0,0.0,0.0,0.0,0.0,0.0,0.0,0.0,0.0,0.0,0.0,0.0,0.0,0.0,0.0,0.0,0.0,0.0,0.0,0.0,0.0,1.43,1.43,0.0,0.0,0.0,0.0,1.9486,2.0325,2.2159,2.4682,2.3788,2.2682,2.1374,0.0,0.0,0.0,0.0,2.0348,2.1015,2.5657,2.6565,2.5099,2.3256,0.0,0.0,0.0,0.0,0.0,0.0,0.0,1.546,0.0,0.0,0.0,0.0,2.4197,0.0,3.4358,3.8201,0.0,0.0,0.0,0.0,5.2329,5.2747,5.3047,5.3793,5.5173,5.6084,5.5765,5.489,5.3494,5.132,4.926,4.6634,4.3111,3.9686,3.6552,3.3877,3.0906,2.8804,2.797,2.7109,2.619,2.5069,2.591,2.6441,2.6471,2.7404,2.8418,2.957,2.9682,3.0484,3.2062,3.0887,3.1778,3.4336,3.3289,3.3459,3.4725,3.6131,3.734,3.8409,3.8409,3.8409,3.8356,3.8145,3.8039,3.8092,3.8039,3.8039,3.8185,0.0,0.0,0.0,0.0,0.0,0.0,0.0,0.0,0.0,0.0,0.0,0.0,0.0,1.1713,1.162,1.1147,0.0,0.0,0.0,0.0,0.0,0.0,0.0,0.0,0.0,0.0,0.0,0.0,0.0,1.5397,1.6931,1.8397,2.0214,2.2273,2.2624,2.2891,2.2853,2.0071,0.0,0.0,0.0,0.0,0.0,2.5178,2.7211,3.003,0.0,0.0,0.0,0.0,0.0,0.0,1.6846,1.6623,1.6846,1.5735,1.619,0.0,0.0,0.0,0.0,3.0605,3.5428,3.9699,4.2607,4.679,5.0234,5.0804,5.1814,5.265,5.2913,5.3368,5.3934,5.4624,5.3932,5.2748,5.1141,4.8632,4.5578,4.1897,3.8428,3.5348,3.2698,3.0255,2.8232,2.6752,2.66,2.5743,2.3768,2.5074,2.5929,2.5838,2.5796,2.6376,2.7629,2.7892,2.8845,3.0448,3.0285,3.0878,3.2113,3.173,3.218,3.3346,3.3888,3.5223,3.7054,3.7814,3.8145,3.8145,3.8039,3.7986,3.7986,3.7986,3.7986,3.8039,0.0,0.0,0.0,0.0,0.0,0.0,0.0,0.0,0.0,1.1232,0.0,0.0,0.0,0.0,1.2512,1.1707,1.1802,1.2211,1.2951,0.0,0.0,0.0,0.0,0.0,0.0,0.0,0.0,0.0,0.0,0.0,0.0,1.7053,1.8844,2.0844,2.099,2.2115,0.0,0.0,0.0,2.2142,0.0,0.0,2.8094,0.0,2.968,0.0,0.0,0.0,0.0,0.0,0.0,0.0,0.0,1.7591,1.6909,1.5742,1.6431,0.0,1.8894,0.0,0.0,0.0,0.0,3.5543,3.9277,0.0,4.7355,4.8457,5.0014,5.1238,5.1366,5.1307,5.161,5.2822,5.2666,5.1626,4.9399,4.7454,4.4721,4.0612,3.7176,3.4136,3.1589,2.9367,2.7419,2.5717,2.5826,2.4953,2.2523,2.3712,2.4548,2.4744,2.4727,2.5058,2.5908,2.6628,2.7586,2.8789,2.9616,3.0225,3.0664,3.082,3.1344,3.2123,3.2514,3.3797,3.5674,3.6437,3.6762,3.6815,3.7215,3.7388,3.7429,3.7868,3.7986,3.7986,0.0,0.0,0.0,0.0,0.0,0.0,0.0,0.0,1.0995,1.2417,0.0,0.0,0.0,0.0,0.0,1.2088,1.2016,1.2306,1.2993,1.3094,0.0,0.0,0.0,0.0,0.0,0.0,0.0,0.0,0.0,0.0,0.0,0.0,1.8269,2.0526,1.9061,2.0417,2.3727,0.0,2.2637,2.3244,0.0,2.7158,2.6644,0.0,0.0,0.0,3.3873,3.3659,0.0,2.9447,0.0,0.0,0.0,1.8192,1.5507,1.5487,1.6109,1.6787,0.0,0.0,0.0,0.0,0.0,0.0,3.6406,0.0,4.1815,4.5277,4.7284,4.8577,4.9039,4.9087,4.9367,5.0354,5.1055,5.0059,4.6022,4.5522,4.3771,3.9049,3.5775,3.2943,3.0378,2.8174,2.6282,2.4834,2.4723,2.3712,2.1288,2.1737,2.2361,2.2982,2.4069,2.4671,2.4727,2.5854,2.6674,2.7197,2.8789,2.9785,3.0158,3.0674,3.0889,3.0947,3.2123,3.3289,3.428,3.4391,3.4391,3.4503,3.5729,3.6177,3.634,3.7536,3.7986,3.7974,0.0,0.0,0.0,0.0,0.0,0.0,1.1606,1.2014,1.2425,0.0,0.0,0.0,1.4265,1.4632,1.481,1.4605,1.4574,1.4404,1.3973,1.3962,1.407,1.4287,1.4355,1.4367,1.4367,0.0,0.0,0.0,0.0,0.0,1.3857,1.5465,1.6904,1.8174,1.8433,1.9528,2.1048,1.9611,0.0,0.0,2.6279,2.8734,0.0,0.0,0.0,0.0,0.0,3.6973,3.4233,0.0,3.2141,2.5958,0.0,0.0,1.8019,1.7382,1.8241,1.91,1.782,0.0,0.0,0.0,0.0,0.0,0.0,0.0,3.8263,4.2369,4.3759,4.4889,4.6994,4.7686,4.7537,4.6355,4.7545,4.7779,4.5269,4.2919,4.0115,3.6498,3.3669,3.1288,2.9316,2.7185,2.5296,0.0,2.3488,2.2418,2.0046,2.1045,2.2112,2.2974,2.3079,2.3623,2.4671,2.4189,2.4614,2.59,2.7536,2.852,2.8989,3.0325,3.0889,3.0889,3.1228,3.1566,3.2008,3.373,3.4391,3.4503,3.5729,3.6177,3.634,3.7536,3.7986,3.788,0.0,0.0,0.0,0.0,0.0,1.2998,1.3687,1.3677,1.3847,0.0,0.0,0.0,1.5427,1.6225,1.6632,1.6306,1.5919,1.5459,1.4959,1.4569,1.435,1.435,1.4387,1.4393,1.4393,1.4319,1.3914,0.0,1.3646,1.3662,1.3241,1.4362,1.5532,1.6718,1.6956,1.7795,1.8942,0.0,0.0,0.0,2.7556,0.0,0.0,3.5733,3.7974,0.0,0.0,0.0,3.8808,4.1132,3.56,0.0,0.0,2.2473,1.9638,1.9124,1.9883,0.0,1.9222,2.0173,0.0,0.0,0.0,0.0,2.9248,3.1859,0.0,0.0,4.134,4.2646,4.399,4.5211,4.5345,4.336,4.4575,4.5216,4.3575,4.1405,3.8642,3.4976,3.2308,2.9947,2.7918,2.6284,2.4471,2.2424,2.245,2.1656,1.9681,2.0351,2.1274,2.2207,2.1907,2.2232,2.3247,2.3087,2.3473,2.4419,2.6549,2.7805,2.8268,2.9863,3.0703,3.0889,3.0889,3.0889,3.1005,3.2399,3.2949,3.3063,3.4291,3.4736,3.4902,3.6045,3.6491,3.6383,0.0,0.0,1.4522,1.5284,1.4917,1.5047,1.6592,1.5617,1.5288,0.0,1.6555,1.6443,1.7451,1.8143,1.8284,1.7674,1.6594,1.5955,1.5946,1.4982,1.4422,1.4434,1.4428,1.4422,1.4422,1.4422,1.4097,1.3437,1.344,1.3476,1.3535,1.3607,1.4447,1.5849,1.5202,1.5807,1.7266,0.0,0.0,2.3755,2.9046,3.124,0.0,0.0,3.8489,3.8731,4.2813,4.4016,4.3766,4.4258,3.8844,0.0,0.0,2.6642,2.1646,2.0974,2.1483,0.0,2.0876,2.1212,0.0,0.0,2.2015,0.0,2.8938,3.0002,3.0954,0.0,3.8593,4.0137,3.9832,4.1361,4.2077,4.0212,4.1337,4.2132,4.1259,4.035,3.8309,3.4243,3.1436,2.8986,2.6735,2.5494,2.3898,2.1554,2.1468,2.1006,1.9745,1.969,2.0228,2.1323,2.0881,2.0902,2.1375,2.2312,2.2813,2.2821,2.5531,2.697,2.738,2.9165,3.0247,3.0636,3.0811,3.0889,3.0889,3.0889,3.0889,3.1005,3.2238,3.2685,3.2856,3.3955,3.4391,3.4391,0.0,1.4185,1.4547,1.5336,1.5368,1.5823,1.7423,1.6942,1.7047,1.8779,1.8955,1.9455,2.0944,2.0111,1.9632,2.0144,1.8143,1.686,1.6931,1.5433,1.4587,1.4634,1.4587,1.4555,1.4555,1.4565,1.448,1.4344,1.4347,1.4357,1.4373,1.4492,1.4719,1.5033,1.4997,1.5235,1.5829,0.0,0.0,2.5204,2.5691,0.0,3.5252,3.911,4.2175,4.4731,4.7,4.5996,4.3311,4.1391,3.9966,3.8053,0.0,0.0,2.8806,2.3944,2.4457,2.5952,2.3032,2.3209,2.3967,2.2776,0.0,0.0,2.3908,2.4618,2.6141,0.0,3.0613,3.1549,3.3115,3.4346,3.4534,3.2698,3.4745,3.7242,3.9181,3.7816,3.5803,3.3746,3.0824,2.8528,2.7342,2.5685,2.3905,2.1905,2.0164,1.916,1.908,1.9103,2.0062,2.2174,2.1042,2.1117,2.2644,2.193,2.1539,2.1546,2.3438,2.4318,2.4523,2.7449,2.8825,2.8928,3.0306,3.0889,3.0889,3.0889,3.0889,3.1005,3.2238,3.2685,3.2856,3.3955,3.4391,3.428,0.0,1.4751,1.5349,1.6107,1.6648,1.749,1.9096,1.8714,1.8872,2.0618,2.1373,2.1865,2.2159,2.1934,2.1569,2.1147,1.9444,1.8109,1.7403,1.6026,1.5083,1.4717,1.4699,1.467,1.4595,1.4622,1.4666,1.4695,1.4707,1.4733,1.4794,1.4864,1.5804,1.74,1.6212,1.6692,0.0,0.0,2.0908,2.395,2.7483,0.0,3.9387,4.2044,4.516,4.825,4.9139,4.8334,4.6445,4.3824,4.1513,0.0,0.0,3.4066,3.1961,0.0,2.8555,2.8895,2.499,2.4351,2.4655,2.4083,0.0,0.0,0.0,2.4596,2.5111,2.7759,2.7767,2.7719,2.9049,2.9368,2.9046,2.7938,3.0799,3.2935,3.2318,3.355,3.3676,3.1512,2.9456,2.7571,2.5857,2.5199,2.3886,2.1571,1.9456,1.8347,1.8621,1.8707,1.9459,2.1093,2.0467,2.06,2.1841,2.1408,2.1211,2.1211,2.2653,2.3438,2.3679,2.6056,2.7244,2.7525,2.8528,2.9313,2.9903,2.9903,3.0206,3.0752,3.1498,3.172,3.1652,3.2197,3.2426,3.2301,0.0,1.5223,1.6073,1.6663,1.7795,1.9118,2.0559,2.0387,2.0681,2.2277,2.3867,2.4575,2.3853,2.4577,2.4826,2.4131,2.209,2.0408,0.0,1.7742,1.6548,1.5905,1.5353,1.5211,1.5571,1.5019,1.4742,1.4799,1.4832,1.4883,1.5003,1.5003,1.657,1.9302,1.7816,0.0,0.0,0.0,0.0,2.4206,0.0,3.6331,4.0604,4.3051,4.6126,4.9206,5.0051,5.0347,4.9938,4.7148,4.3223,3.9413,3.8944,3.6942,0.0,0.0,0.0,0.0,0.0,0.0,0.0,0.0,0.0,2.4484,0.0,0.0,0.0,2.6458,2.5876,0.0,0.0,0.0,0.0,0.0,0.0,0.0,0.0,2.7952,0.0,2.8201,2.7618,2.6359,2.3622,2.3466,2.2695,2.0666,1.8603,1.7659,1.8099,1.8313,1.8782,1.9662,1.9713,2.0033,2.0664,2.0984,2.1152,2.1211,2.2207,2.2849,2.3181,2.4721,2.5678,2.6058,2.6619,2.7477,2.8426,2.8426,2.8852,2.9648,3.046,3.0577,3.0323,3.0382,3.0382,3.0392,1.4639,1.5295,1.5912,1.5939,1.7888,1.9743,2.0574,2.1382,2.2303,2.3391,2.6529,2.8792,0.0,0.0,0.0,0.0,0.0,0.0,2.5706,0.0,2.0192,2.0103,1.7434,1.6911,1.8997,1.6234,1.4799,1.4799,1.4919,1.4991,1.5003,1.506,1.5685,1.682,1.8911,0.0,0.0,0.0,2.641,0.0,3.3563,3.389,0.0,3.8489,4.2517,4.6,4.9876,5.1245,5.0727,0.0,4.4823,4.2184,0.0,3.742,3.8517,3.0803,0.0,0.0,0.0,0.0,0.0,0.0,2.6617,0.0,0.0,0.0,2.3116,2.1315,0.0,0.0,0.0,0.0,0.0,0.0,0.0,0.0,1.8357,2.0699,2.2862,2.3687,2.531,2.4975,2.143,1.934,1.8395,1.8993,1.6842,1.6032,1.7182,1.7734,1.8455,1.9334,1.9398,1.9875,2.0664,2.0757,2.0925,2.1211,2.1318,2.1447,2.1556,2.3108,2.4027,2.4448,2.5932,2.6628,2.678,2.678,2.6651,2.6772,2.9403,3.0274,2.9981,3.0274,3.0382,3.045,1.4771,1.5855,0.0,1.6134,1.8138,2.0095,2.0866,2.3023,2.4737,2.5145,2.6582,0.0,0.0,0.0,0.0,0.0,0.0,2.7401,0.0,0.0,2.2092,2.0187,1.8614,1.7933,1.8266,1.6564,1.5447,1.4973,1.503,1.5103,1.5165,1.5158,1.6936,2.0168,2.0816,0.0,2.6582,0.0,2.8109,0.0,0.0,0.0,0.0,4.1654,4.6544,4.8898,5.0659,5.1301,5.0878,0.0,4.4712,0.0,0.0,0.0,0.0,0.0,0.0,0.0,0.0,0.0,0.0,0.0,0.0,0.0,2.3893,0.0,2.1753,0.0,0.0,0.0,0.0,0.0,0.0,0.0,1.518,0.0,0.0,0.0,1.865,0.0,0.0,0.0,1.9984,1.8455,1.8093,1.9455,1.6661,1.5717,1.7532,1.7266,1.7483,1.8509,1.8766,1.9184,1.9892,2.0427,2.0794,2.0933,2.1123,2.1211,2.1218,2.1916,2.2413,2.2744,2.3429,2.4244,2.5101,2.5101,2.5338,2.581,2.7091,2.7589,2.7658,2.7778,2.7958,2.8215,1.5273,0.0,0.0,0.0,1.8355,2.0497,2.1765,2.425,2.6079,2.6308,0.0,0.0,2.9973,3.0557,0.0,0.0,3.3407,3.1838,0.0,0.0,2.5465,2.3372,2.0916,0.0,0.0,1.7923,1.6506,1.5461,1.5469,1.5538,1.5625,1.5603,1.7821,2.1875,2.225,2.5599,3.0892,0.0,0.0,3.281,3.5244,3.6626,3.8007,4.505,4.9253,5.1379,5.127,5.1261,5.0842,4.7926,4.4869,0.0,4.4759,0.0,0.0,0.0,0.0,0.0,3.0396,0.0,0.0,0.0,0.0,0.0,0.0,0.0,0.0,0.0,0.0,0.0,0.0,0.0,0.0,0.0,0.0,1.2379,0.0,1.2426,0.0,0.0,0.0,0.0,0.0,1.6653,1.6632,1.8331,1.5648,1.497,1.7472,1.6677,1.6706,1.7851,1.814,1.8552,1.9167,1.9895,2.0267,2.044,2.0671,2.083,2.0924,2.0966,2.1171,2.1562,2.1554,2.2295,2.3395,2.3395,2.3752,2.4294,2.4425,2.4602,2.4855,2.5591,2.6017,2.639,1.6365,1.6397,0.0,0.0,0.0,2.1028,2.3529,2.4668,2.5508,0.0,0.0,0.0,0.0,0.0,0.0,0.0,0.0,4.0566,3.9241,0.0,3.1604,3.2525,2.5222,2.2577,0.0,2.1189,1.8006,1.6352,1.6416,1.6461,1.6452,1.6532,1.7505,1.9371,2.2715,2.5756,2.8537,3.1831,3.6136,4.0886,4.2656,4.6349,5.0351,0.0,4.767,5.1381,5.1326,0.0,0.0,4.7234,4.5942,0.0,0.0,0.0,0.0,0.0,0.0,0.0,0.0,0.0,0.0,2.6903,0.0,0.0,0.0,0.0,2.1077,0.0,0.0,0.0,0.0,0.0,0.0,1.1344,0.0,0.0,0.0,0.0,0.0,0.0,0.0,0.0,0.0,1.2387,1.2221,0.0,1.2788,1.3273,1.6385,1.61,1.6343,1.7545,1.7637,1.8029,1.8884,1.8959,1.9275,1.9808,1.9815,2.004,2.0328,2.0342,2.0679,2.1194,2.1201,2.1367,2.167,2.167,2.1481,2.1292,2.1607,2.1734,2.2034,2.4602,2.5513,2.5766,0.0,0.0,0.0,0.0,0.0,2.1062,2.3674,2.5154,0.0,0.0,0.0,0.0,0.0,3.9886,4.1623,0.0,0.0,4.2267,4.1122,3.6776,0.0,0.0,0.0,2.4487,0.0,0.0,1.9792,1.8117,1.8189,1.7941,1.7422,1.7441,0.0,2.0156,2.3028,2.734,0.0,0.0,0.0,0.0,0.0,4.6192,4.8786,0.0,5.0095,5.1323,5.1262,5.1206,0.0,4.9676,4.7739,4.6009,4.6904,4.4859,4.2232,4.2662,4.1926,0.0,0.0,0.0,3.8097,3.0818,0.0,0.0,0.0,0.0,0.0,0.0,0.0,0.0,0.0,0.0,0.0,0.9729,0.8917,0.0,0.0,0.0,0.0,0.0,0.0,0.0,0.0,0.0,1.2948,1.4872,1.3955,1.4441,1.6949,1.6099,1.6087,1.7326,1.7279,1.7616,1.8319,1.8679,1.8707,1.8262,1.8453,1.8695,1.9036,1.879,1.9528,2.0832,2.0651,2.0808,2.1299,2.1299,2.1172,2.1109,2.1235,2.1299,2.1418,2.2522,2.3084,2.345,1.8778,0.0,0.0,0.0,0.0,0.0,0.0,0.0,0.0,0.0,3.4849,0.0,4.1673,0.0,4.4125,0.0,4.6204,4.535,4.2687,3.9907,0.0,3.6524,3.1701,0.0,0.0,0.0,2.3524,2.129,2.0102,1.9128,1.8362,0.0,0.0,0.0,0.0,2.7714,3.4325,0.0,4.0356,0.0,0.0,4.7812,0.0,0.0,5.0719,4.9985,0.0,5.1146,5.1081,5.0952,4.9397,4.7841,4.9826,4.7293,4.39,4.5453,4.4251,4.197,3.9788,4.0537,0.0,3.3168,3.176,0.0,2.2688,0.0,0.0,0.0,0.0,0.0,0.0,0.0,0.0,0.969,0.8433,0.0,0.0,0.5881,0.0,0.0,0.0,0.0,0.0,0.0,1.1819,1.4681,1.3622,1.4089,0.0,1.5899,1.5779,1.6851,1.7062,1.731,1.7696,1.8199,1.8002,1.7167,1.7341,1.7449,1.739,1.7208,1.7851,1.9101,1.8924,1.9429,2.0329,1.9814,1.9941,2.0329,2.0329,2.0329,2.0462,2.1166,2.1853,2.2536,0.0,0.0,0.0,0.0,2.2128,0.0,0.0,0.0,3.1703,0.0,3.7058,3.9621,4.3786,4.639,4.7977,4.838,5.0636,0.0,4.457,4.3718,0.0,0.0,3.7791,3.7056,3.8068,0.0,0.0,0.0,2.213,2.0054,1.9329,0.0,0.0,0.0,2.2327,0.0,3.3612,3.7005,4.2439,4.8904,5.061,5.1184,5.1026,5.1154,4.9575,4.7629,5.0179,5.1099,5.1075,5.0925,5.0763,5.0547,5.0264,4.9813,4.9283,4.873,4.8326,4.7223,4.3278,4.174,3.9836,3.395,3.1456,0.0,0.0,0.0,2.1418,0.0,0.0,0.0,0.0,0.0,0.0,0.0,0.9023,0.0,0.0,0.0,0.0,0.0,0.0,0.0,0.0,0.0,0.9042,1.3388,1.19,0.0,0.0,1.5474,1.539,1.6268,1.6884,1.7199,1.7199,1.7494,1.7219,1.6472,1.649,1.6132,1.5499,1.551,1.5822,1.6326,1.6326,1.7286,1.878,1.7555,1.7748,1.8908,1.8972,1.9036,1.9291,2.0589,2.1908,2.3014,2.1586,2.2682,2.377,0.0,2.4133,2.5046,0.0,0.0,0.0,0.0,4.3169,4.6674,5.0262,5.161,5.2082,5.165,5.2129,0.0,0.0,0.0,0.0,4.6622,4.1834,3.9623,4.0628,3.4541,0.0,2.92,0.0,0.0,2.1036,0.0,0.0,0.0,0.0,0.0,3.3509,3.6348,4.2222,4.9751,5.0792,5.0018,4.8443,0.0,4.9479,4.7496,5.0144,5.1037,5.0917,5.0745,5.0635,5.0527,5.0043,4.9669,4.9234,4.8273,4.7786,4.7018,4.4428,4.363,4.2109,3.6403,3.3578,3.0642,0.0,0.0,0.0,0.0,0.0,0.0,0.0,0.0,0.0,0.0,0.0,0.0,0.0,0.0,0.0,0.4514,0.0,0.0,0.0,0.8456,1.0341,1.2052,1.2943,0.0,1.5951,1.5021,1.4908,1.5912,1.6777,1.7199,1.7199,1.7494,1.6735,1.4983,1.5104,1.4781,1.3976,1.4133,1.4978,1.6326,1.6326,1.6784,1.749,1.7173,1.7168,1.7619,1.8588,1.9623,2.0589,2.0982,2.1292,2.1601,2.3521,0.0,0.0,2.7267,0.0,0.0,3.1297,0.0,0.0,4.1459,4.4909,0.0,5.0872,5.3187,5.4333,5.3944,5.3804,0.0,5.1078,0.0,0.0,4.848,4.56,4.4517,4.5515,3.8938,0.0,3.2682,0.0,0.0,2.1725,0.0,0.0,0.0,0.0,2.6046,0.0,3.7472,4.3173,4.839,5.0325,5.0114,0.0,5.029,4.9861,4.8693,5.0563,5.1031,5.0754,5.0644,5.0374,5.003,4.9725,4.9099,4.8365,4.7773,4.6962,4.5894,4.4113,4.2858,4.1038,3.6937,3.4034,3.0826,2.5546,2.2783,2.0652,0.0,1.6871,1.5933,0.0,0.0,0.0,0.0,0.0,0.0,0.0,0.0,0.0,0.0,0.4729,0.0,0.0,0.0,1.0322,1.0946,1.1859,0.0,0.0,1.3791,1.4156,1.505,1.5815,1.6452,1.6954,1.6252,1.5396,1.4393,1.4117,1.3495,1.2556,1.2751,1.3475,1.4534,1.4534,1.5154,1.6009,1.5424,1.5554,1.6203,1.7619,1.9361,2.1109,2.1109,2.1109,2.1109,0.0,0.0,0.0,0.0,0.0,0.0,0.0,3.5691,0.0,4.3011,0.0,4.7425,4.958,5.3103,5.532,5.5294,0.0,5.3573,4.9796,5.1808,5.1742,4.8586,4.9315,5.0095,5.0727,4.4303,0.0,0.0,0.0,0.0,0.0,0.0,0.0,0.0,0.0,0.0,0.0,3.9542,4.4658,4.6636,4.972,5.078,5.0516,5.0572,5.0473,5.0407,5.1172,5.1109,5.071,5.0755,5.0285,4.9695,4.9534,4.8643,4.7558,4.7285,4.6049,4.4444,4.2859,4.0788,3.8462,3.6071,3.336,3.0225,2.6109,2.3468,2.1436,1.9945,1.7459,1.6372,0.0,0.0,0.0,0.0,0.0,0.0,0.0,0.0,0.0,0.0,0.0,0.0,0.0,0.0,0.0,0.0,0.0,0.0,0.0,0.0,1.3119,1.4249,1.4759,1.5466,1.6452,1.4656,1.386,1.4069,1.3375,1.2449,1.1472,1.1703,1.1991,1.2308,1.2328,1.3225,1.452,1.3293,1.3613,1.5038,1.6268,1.8332,2.0589,2.0589,2.0589,2.0589,0.0,0.0,0.0,0.0,0.0,3.8058,4.1543,4.417,4.643,4.8345,5.18,5.4236,5.4561,5.5101,5.542,5.5307,5.5189,0.0,0.0,0.0,0.0,5.3095,5.3318,5.2886,5.1621,4.6466,4.1776,0.0,0.0,0.0,2.2757,0.0,0.0,0.0,0.0,0.0,3.5741,4.1082,0.0,4.8974,5.0237,5.0653,5.0544,5.0937,5.0976,5.0935,5.1466,5.1467,5.1295,5.1528,5.1492,5.1206,5.0265,4.9653,4.8931,4.7248,4.5816,4.4149,4.1275,3.9633,3.7852,3.4098,3.2205,3.0205,2.599,2.4128,2.2394,1.8932,1.7809,1.6711,1.4394,0.0,0.0,0.0,0.0,0.0,0.0,0.0,0.0,0.0,0.0,0.5136,0.0,0.0,0.0,0.0,0.0,0.0,0.0,0.0,1.2001,0.0,1.5071,1.5113,0.0,1.447,1.3506,1.2419,1.2801,1.2378,1.1285,1.1768,1.2101,1.2316,1.2458,1.2767,1.3161,1.2902,1.3613,1.4907,1.5168,1.6268,1.7753,1.7753,1.7753,1.7882,0.0,0.0,0.0,0.0,0.0,0.0,0.0,5.0509,0.0,4.9956,5.1381,5.2566,5.2396,5.4282,5.5504,5.5371,5.5229,5.5208,5.5294,5.5365,5.5248,5.4882,5.4139,0.0,5.332,4.8814,4.3975,3.8884,0.0,0.0,2.2971,2.2179,0.0,0.0,0.0,2.8925,0.0,0.0,0.0,4.7723,4.9882,5.0844,5.0989,5.1216,5.0981,5.0632,5.1269,5.125,5.0987,5.1396,5.1172,5.061,5.0071,4.8649,4.6969,4.5955,4.3684,4.1049,3.9025,3.6792,3.4306,3.1224,2.9144,2.715,2.4325,2.2168,2.0126,1.8098,1.6759,1.4827,1.1096,0.8713,0.0,0.0,0.0,0.0,0.0,0.0,0.0,0.0,0.0,0.0,0.0,0.0,0.0,0.0,0.0,0.0,0.9718,0.0,1.0297,0.0,0.0,0.0,1.4305,0.0,1.2146,1.2205,1.2111,1.1733,1.124,1.1784,1.2134,1.2316,1.2487,1.2601,1.2572,1.2572,1.335,1.4646,1.4842,1.5749,1.698,1.698,1.698,1.7103,0.0,3.4372,0.0,0.0,4.3607,0.0,5.0289,5.4786,5.626,5.1806,5.1349,5.1353,5.1153,5.4163,5.6049,5.5695,5.5581,5.5505,5.5421,5.5449,5.5524,5.5596,5.4417,5.3966,5.4463,5.0991,4.6313,0.0,0.0,0.0,0.0,2.343,0.0,0.0,0.0,0.0,0.0,0.0,4.3567,4.6873,4.9565,5.0804,5.1065,5.1156,5.0741,5.018,5.0914,5.0802,5.0336,5.0584,5.0362,4.9929,4.9375,4.7423,4.5111,4.4199,4.1398,3.8228,3.67,3.4024,3.1068,2.8578,2.6397,2.4298,2.2189,1.9733,1.7547,1.6342,1.4234,1.1636,0.844,0.7334,0.0,0.0,0.0,0.0,0.0,0.0,0.0,0.0,0.0,0.0,0.3552,0.0,0.0,0.0,0.0,0.0,0.7269,0.7441,0.8523,1.0704,0.0,1.087,1.2336,0.0,0.9959,1.0988,1.0484,1.0213,1.0237,1.1061,1.133,1.1277,1.2089,1.2376,1.2309,1.2309,1.3021,1.4063,1.4324,1.5103,1.6138,1.6138,1.6138,1.6138,0.0,0.0,0.0,0.0,0.0,0.0,5.2316,5.6023,5.8314,5.7016,5.7375,5.767,5.7473,5.7863,5.7685,5.6588,5.6585,5.6318,5.5536,5.5603,5.5758,5.5947,5.5874,5.5152,5.3734,5.265,4.9133,0.0,0.0,3.3386,2.8722,2.4814,0.0,0.0,0.0,0.0,0.0,4.2618,4.5867,4.9721,5.0034,5.0035,4.9919,5.0331,5.0301,5.0066,5.0575,5.028,4.9584,4.8833,4.9707,5.0645,4.834,4.7284,4.6137,4.2291,4.0139,3.8266,3.465,3.2795,3.0939,2.7157,2.5801,2.4274,2.0064,1.8481,1.6663,1.2423,0.9532,0.7382,0.6254,0.6149,0.5918,0.0,0.0,0.0,0.0,0.0,0.5313,0.5007,0.0,0.0,0.0,0.2425,0.0,0.0,0.2447,0.0,0.6371,0.5913,0.695,1.0,0.8271,0.7503,0.7978,0.7062,0.6526,0.642,0.6758,0.6975,0.7065,0.8778,0.8853,0.7852,1.0619,1.2029,1.2309,1.2309,1.2572,1.2964,1.2968,1.3095,1.3161,1.3161,1.3161,1.3161,0.0,0.0,0.0,0.0,0.0,0.0,0.0,5.8363,5.9619,5.9264,5.8885,5.859,5.8375,5.8385,5.8201,5.7711,5.7726,5.7632,5.7312,5.7381,5.7238,5.6807,5.6841,5.6386,5.5302,5.4404,5.1294,0.0,0.0,3.615,3.0872,2.9431,0.0,0.0,0.0,3.9353,4.2839,4.4407,4.683,4.9573,4.905,4.9028,4.9284,4.9338,4.9056,4.8584,4.8178,4.7372,4.6345,4.5426,4.6518,4.7908,4.5932,4.4043,4.2011,3.9364,3.6793,3.4306,3.2274,3.0078,2.7806,2.5491,2.3324,2.1047,1.8304,1.6337,1.4242,1.1483,0.8326,0.5973,0.5612,0.4894,0.4468,0.4946,0.0,0.0,0.0,0.0,0.0,0.0,0.0,0.3661,0.0,0.0,0.0,0.0,0.0,0.0,0.4849,0.4442,0.5101,0.7154,0.0,0.6282,0.667,0.6369,0.6139,0.6031,0.6351,0.651,0.6602,0.7547,0.7747,0.7429,0.8404,0.9099,0.9501,1.03,1.0902,1.1372,1.2371,1.277,1.277,1.277,1.277,1.277,4.9055,0.0,5.0836,0.0,5.5479,5.6259,5.9453,6.0384,6.07,6.0688,6.0024,5.947,5.9296,5.929,5.9185,5.888,5.8873,5.8789,5.8556,5.8571,5.8328,5.7734,5.7787,0.0,5.6742,5.5542,5.3046,4.9182,4.4502,3.9994,3.5714,3.5092,0.0,0.0,4.0686,4.2593,4.4582,4.5898,4.7296,4.8524,4.7793,4.7653,4.7807,4.7305,4.6798,4.6201,4.5326,4.4297,4.3188,4.2268,4.2665,4.3381,4.2809,4.0855,3.8431,3.6493,3.3835,3.1305,3.0172,2.7941,2.5636,2.4194,2.1533,1.8744,1.6478,1.4249,1.1981,0.976,0.6911,0.4869,0.4869,0.3998,0.3597,0.4752,0.0,0.0,0.0,0.5398,0.0,0.0,0.3762,0.3065,0.28,0.1628,0.0,0.0,0.0,0.0,0.0,0.3007,0.0,0.0,0.0,0.0,0.4856,0.4864,0.4916,0.4916,0.5053,0.5135,0.5267,0.5539,0.6182,0.7156,0.6564,0.6707,0.7434,0.8634,0.9567,1.0303,1.1637,1.2437,1.277,1.277,1.277,1.277,5.2952,5.4324,5.6024,5.9602,6.0922,6.1522,6.164,6.168,6.1658,6.159,6.1575,6.1507,6.1384,6.1419,6.1033,5.9966,6.0009,5.9666,5.8663,5.8605,5.862,0.0,0.0,5.8384,5.7518,5.5848,5.4387,5.3139,0.0,0.0,4.4668,0.0,4.056,4.1615,4.324,4.4865,4.6419,4.7244,4.7318,4.6906,4.6465,4.584,4.5003,4.3806,4.3251,4.2973,4.2214,4.1473,4.0699,3.9828,3.8345,3.7208,3.8992,3.8435,3.6599,3.3929,3.1972,3.0317,2.8382,2.6924,2.5535,2.3519,2.1115,1.8313,1.4528,1.2463,1.0273,0.6298,0.448,0.3643,0.3643,0.3585,0.3832,0.4589,0.0,0.0,0.0,0.0,0.0,0.2844,0.2367,0.1923,0.1378,0.1083,0.0,0.0,0.0,0.0,0.0,0.0,0.0,0.2899,0.2054,0.0,0.1668,0.179,0.1851,0.1851,0.1882,0.1947,0.2041,0.2164,0.3761,0.6364,0.5299,0.5629,0.7029,0.7705,0.8903,1.0227,1.0568,1.1567,1.277,1.277,1.277,1.277,5.7696,5.856,5.9483,6.0769,6.1131,6.1323,6.1529,6.1568,6.1585,6.1659,6.1678,6.1651,6.1618,6.1533,6.134,0.0,6.0958,6.0812,0.0,6.0374,6.0143,5.9599,5.96,5.9229,5.8405,5.7816,5.6678,5.4965,0.0,0.0,0.0,4.394,4.4286,4.6312,4.6367,4.6445,4.6481,4.5449,4.4854,4.4397,4.2416,4.145,4.1043,3.9642,3.9044,3.8786,3.7387,3.6365,3.5631,3.4684,3.366,3.2934,3.3835,3.3724,3.2917,3.0944,2.9001,2.7245,2.6073,2.3638,2.1299,2.0644,1.7241,1.3777,1.2594,0.9835,0.7098,0.577,0.446,0.3587,0.3587,0.3587,0.3756,0.4273,0.4015,0.0,0.4002,0.0,0.3099,0.2738,0.2021,0.1503,0.1326,0.0689,0.0,0.0,0.0,0.0,0.0,0.0,0.0,0.0,0.1709,0.0,0.1676,0.1755,0.1795,0.1795,0.1847,0.1918,0.2008,0.2088,0.2653,0.3445,0.3115,0.3398,0.4166,0.5367,0.6368,0.75,0.9564,1.0763,1.1501,1.2437,1.2169,1.1369,6.0274,6.0566,6.0873,6.1177,6.1155,6.1177,6.1388,6.1424,6.1474,6.1607,6.1624,6.1631,6.1652,6.1598,0.0,6.1473,6.1445,6.1374,6.1208,6.1242,6.1005,6.0402,6.0444,6.0249,5.9759,5.8962,0.0,5.7004,5.3693,5.0795,4.8349,4.7453,4.7778,4.8988,4.7571,4.6657,4.6071,4.3732,4.2538,4.2016,3.9586,3.8428,3.8032,3.649,3.5954,3.5734,3.4397,3.3302,3.2397,3.1792,3.0659,2.9586,2.9872,2.9624,2.9063,2.8591,2.7067,2.5223,2.383,2.1378,1.9072,1.8101,1.4765,1.1331,0.983,0.7189,0.5009,0.4843,0.4216,0.3615,0.3591,0.3587,0.3658,0.3747,0.3355,0.2983,0.2774,0.0,0.1941,0.0,0.0,0.0,0.0,0.033,-0.0207,0.0,0.0,0.0,0.0,0.0,0.1223,0.1491,0.1641,0.1727,0.1738,0.1776,0.1806,0.183,0.1902,0.1977,0.2054,0.2092,0.2116,0.2127,0.226,0.2405,0.2626,0.3764,0.5033,0.65,0.8562,1.0164,1.1372,1.1835,1.1435,1.0638,6.0883,6.0649,6.0541,0.0,6.1079,0.0,6.1266,6.1285,6.1331,6.1456,6.1487,6.1506,6.1543,6.1573,6.1579,6.1576,0.0,0.0,0.0,6.1325,6.1275,6.1029,6.1208,6.1284,6.1269,5.943,5.8554,5.8757,5.5949,5.3734,5.2119,5.1374,5.0503,4.9432,4.6839,4.5445,4.4847,4.1894,4.0318,3.9606,3.766,3.6489,3.5753,3.4311,3.3726,3.3621,3.2908,3.177,3.0622,3.0622,2.9104,2.7148,2.7053,2.6151,2.5383,2.6582,2.5781,2.3944,2.1526,1.9929,1.8307,1.577,1.3209,1.0286,0.6515,0.4761,0.3888,0.3714,0.3684,0.3661,0.3547,0.3531,0.3375,0.2937,0.2781,0.2232,0.0955,0.0905,0.0645,0.0,0.0,0.0,0.0,0.0,0.009,0.0,0.0,0.0,0.0,0.0,0.1092,0.1607,0.1722,0.1766,0.1739,0.1743,0.1833,0.1896,0.1981,0.2051,0.2106,0.211,0.2127,0.2218,0.2558,0.2492,0.2222,0.2893,0.4564,0.6762,0.7498,0.9431,1.1773,1.0836,1.0502,1.0237,0.0,0.0,6.0437,6.0803,6.0877,6.0932,6.1055,6.1076,6.1093,6.1188,6.124,6.1234,6.1161,6.1234,6.132,6.1361,6.1405,6.1384,6.127,6.1306,6.1295,6.1234,6.1263,6.1171,6.0918,6.0398,5.8853,5.6238,5.352,5.1633,5.0535,5.0333,4.8418,4.5086,4.406,4.2119,3.9481,3.7844,3.6936,3.6436,3.4513,3.3539,3.3008,3.1643,3.1126,3.0979,3.0158,2.9023,2.7901,2.7901,2.6879,2.5511,2.4754,2.4146,2.3665,2.3592,2.2452,2.0873,1.8829,1.6692,1.4643,1.3007,0.9885,0.6747,0.4784,0.4135,0.3912,0.3883,0.3744,0.3501,0.2743,0.2629,0.2338,0.1521,0.1062,0.0633,0.0328,0.0092,-0.0136,0.0,-0.0185,0.0,0.0,0.0,0.0047,0.0,0.0,0.0188,0.048,0.0524,0.0688,0.1005,0.1096,0.1229,0.1402,0.1495,0.1667,0.1988,0.2032,0.2061,0.2076,0.2123,0.2135,0.2121,0.2278,0.2289,0.2222,0.2356,0.296,0.3831,0.5099,0.6301,0.7503,0.8366,0.8102,0.7374,6.0068,6.0223,6.0368,6.0546,6.0666,6.0793,6.0858,6.0873,6.0896,6.0942,6.1014,6.1059,6.1006,6.1062,6.1155,6.128,6.1391,6.1421,6.135,6.1393,6.1345,6.1132,6.1172,6.1026,6.0637,5.9911,5.7672,5.3794,5.1887,5.0368,4.9281,4.8201,4.629,4.3791,4.164,3.9576,3.7549,3.5398,3.4263,3.3778,3.1466,3.0353,2.993,2.9049,2.8716,2.8661,2.8219,2.7191,2.603,2.5403,2.4343,2.3074,2.1947,2.1312,2.0815,1.965,1.9367,1.8866,1.6703,1.455,1.2306,0.9677,0.6996,0.4808,0.4073,0.3925,0.3894,0.3926,0.345,0.2924,0.2419,0.197,0.1363,0.047,0.015,-0.0192,-0.0564,-0.0692,-0.0738,-0.0758,-0.044,-0.0199,-0.0199,-0.0051,0.0,0.0,0.0,0.0,0.0206,0.0208,0.0422,0.0809,0.0885,0.0957,0.1135,0.119,0.1298,0.1529,0.1552,0.1634,0.1645,0.1859,0.1932,0.1865,0.208,0.2222,0.2222,0.2222,0.2692,0.3498,0.4431,0.5566,0.6635,0.6967,0.6433,0.5566,5.9708,5.9996,6.0237,6.0293,6.052,6.0697,6.0697,6.0685,6.0695,6.0748,6.0803,6.0864,6.0905,6.0925,6.1014,6.1178,6.1303,6.1377,6.1365,6.1402,6.1258,6.0863,6.0956,6.0793,6.0322,5.8046,5.4912,5.0909,4.9649,4.83,4.6889,4.4909,4.3454,4.2317,3.8775,3.6832,3.5944,3.3177,3.1674,3.1069,2.8824,2.7727,2.7418,2.7134,2.7013,2.7013,2.7013,2.6034,2.4625,2.3412,2.1985,2.05,1.91,1.8454,1.7825,1.5962,1.6506,1.7139,1.4814,1.2808,1.0522,0.6863,0.4877,0.3889,0.3889,0.3765,0.3689,0.3701,0.2898,0.2091,0.1918,0.1251,0.044,-0.0363,-0.0446,-0.067,-0.1367,0.0,-0.112,-0.123,-0.0708,-0.0411,-0.0412,-0.0161,0.0,0.0,0.0,0.0,0.0,0.0,0.0223,0.0769,0.0781,0.0797,0.0817,0.0923,0.1019,0.0971,0.0983,0.1061,0.1073,0.1461,0.1597,0.1548,0.202,0.2155,0.2087,0.2155,0.2893,0.4033,0.4298,0.5299,0.65,0.5568,0.4829,0.4089,5.9234,5.9605,5.9965,6.0251,6.052,6.0697,6.0697,6.0655,6.0604,6.0553,6.0553,6.054,6.05,6.0584,6.0699,6.0798,6.0814,6.0914,6.1134,6.0855,6.0627,6.0561,6.0575,6.0363,5.9915,5.3898,4.9337,4.641,4.3892,4.1601,3.9612,3.9839,3.7959,3.437,3.3515,3.1556,2.9,2.9024,2.8363,2.7313,2.7512,2.7366,2.7073,2.7013,2.7013,2.7013,2.7013,2.5399,2.3281,2.3087,2.1344,1.9036,1.7372,1.6856,1.6462,1.4679,1.42,1.3967,1.2914,1.0691,0.8279,0.646,0.4915,0.3889,0.3889,0.3271,0.2712,0.2705,0.1885,0.0902,0.0179,-0.0116,-0.0437,-0.1256,-0.1395,-0.1412,-0.1429,0.0,-0.1203,-0.1283,-0.0752,-0.0444,-0.0507,-0.017,0.0,0.0,0.0,0.0,0.0,0.0,0.0057,0.0112,0.0114,0.0294,0.056,0.088,0.1024,0.0985,0.1053,0.1056,0.1058,0.1403,0.1478,0.1212,0.1885,0.202,0.175,0.2087,0.2357,0.2558,0.2558,0.2556,0.2488,0.2354,0.2017,0.1612,5.8848,5.9449,5.9946,5.9884,6.034,6.0667,6.0597,6.0565,6.0525,6.0458,6.0472,6.0472,6.0403,6.0466,6.052,6.0594,6.0397,6.0318,6.0442,6.0478,6.0394,6.0181,5.8784,5.6368,5.2819,4.8478,4.4708,4.1465,3.8939,3.7229,3.6293,3.5207,3.3868,3.2311,3.0431,2.8796,2.7297,2.6048,2.5448,2.529,2.4578,2.4101,2.3799,2.3799,2.335,2.2714,2.2714,2.1902,2.0713,2.0011,1.8942,1.7625,1.5889,1.5243,1.4917,1.3949,1.3421,1.2783,1.0802,0.9246,0.7625,0.548,0.4479,0.3809,0.331,0.2855,0.2343,0.1788,0.0858,0.0061,-0.0362,-0.0817,-0.1287,-0.1653,-0.1636,-0.1585,-0.1562,-0.1493,-0.144,-0.1563,-0.1171,-0.0858,-0.0756,-0.0466,-0.0175,0.0,0.0,-0.0288,-0.0931,-0.0344,-0.0285,-0.092,-0.1052,-0.1085,-0.0882,-0.0769,-0.0653,-0.0666,0.0133,0.0466,0.0467,0.0872,0.0942,0.0808,0.1548,0.175,0.1548,0.1144,0.1009,0.0941,0.0202,-0.0134,-0.0067,0.0336,0.0134,-0.0269,5.8366,5.9103,5.9717,5.9395,6.0011,6.0474,6.0379,6.0425,6.0458,6.0403,6.0398,6.0384,6.0347,6.0299,6.0313,6.0361,6.0038,5.9744,5.9505,5.9515,5.9308,5.8849,5.5919,5.1694,4.6155,4.3658,4.0445,3.6417,3.4211,3.2694,3.1781,2.9818,2.9036,2.9255,2.679,2.5631,2.5448,2.3353,2.2623,2.2893,2.1553,2.0816,2.0626,2.0626,1.9928,1.8972,1.8972,1.878,1.8396,1.7367,1.6786,1.6273,1.4856,1.4141,1.3814,1.3498,1.3,1.19,0.8827,0.7891,0.7098,0.44,0.3716,0.3418,0.2399,0.2001,0.161,0.0802,-0.0123,-0.086,-0.0789,-0.1363,-0.1844,-0.1793,0.0,-0.1648,-0.1689,-0.168,-0.1705,-0.1804,-0.1555,-0.1288,-0.1071,-0.0774,-0.0476,-0.0118,-0.0117,-0.0642,-0.1764,-0.0977,-0.1036,-0.2316,-0.2166,-0.1908,-0.1591,-0.1946,-0.1916,-0.1614,-0.0872,-0.0335,0.0,0.0,0.0135,0.0404,0.1144,0.1481,0.1413,0.0336,-0.0067,-0.0134,-0.1544,-0.2081,-0.1879,-0.1142,-0.1344,-0.1882,5.7695,5.8341,5.8988,5.895,5.9518,5.9965,5.995,6.0203,6.0403,6.0403,6.0237,6.0133,6.0114,6.001,5.995,5.9947,5.9751,5.9257,5.8376,5.7238,5.6335,5.5678,5.1691,4.7781,4.41,4.063,3.6417,3.136,2.9497,2.6533,2.2556,2.2566,2.197,2.0906,2.0681,2.0384,2.0093,2.0556,1.9922,1.8512,1.903,1.9164,1.9164,1.9164,1.91,1.8972,1.8972,1.8197,1.7103,1.7039,1.6148,1.4996,1.4534,1.4141,1.3814,1.3498,1.2223,1.022,0.7362,0.6498,0.5837,0.3349,0.2665,0.2307,0.1265,0.0378,-0.0314,-0.0371,-0.1172,-0.1914,-0.1912,-0.1886,-0.1887,-0.1827,0.0,0.0,-0.1733,-0.1757,-0.1838,-0.1874,-0.1608,-0.1392,-0.1475,-0.1169,-0.0795,-0.0482,-0.0481,-0.0896,-0.1942,-0.1878,-0.2497,-0.386,-0.2704,-0.1384,-0.0197,-0.1363,-0.1374,-0.0202,-0.1394,-0.1262,0.0,-0.1009,-0.0874,0.0067,0.0808,0.1144,0.1077,0.0,-0.0269,-0.0134,-0.1544,-0.2483,-0.3022,-0.2352,-0.2488,-0.2959,5.7528,5.7959,5.8521,5.8689,5.8988,5.936,5.9772,5.9937,6.0114,6.0375,6.0222,6.0099,6.0099,5.9979,5.9853,5.9717,5.9178,5.8334,5.7103,5.3824,5.1199,4.9676,4.6257,4.2445,3.8189,3.4925,3.1515,2.7972,2.3563,2.1115,2.0546,1.8255,1.774,1.8697,1.8541,1.8367,1.825,1.7888,1.7823,1.8005,1.7812,1.7748,1.7748,1.7748,1.7238,1.6473,1.6473,1.6148,1.5699,1.5699,1.5313,1.4866,1.4539,1.4141,1.3411,1.1097,0.9305,0.7574,0.5642,0.5687,0.5791,0.3267,0.2639,0.2086,0.0389,-0.0257,-0.0766,-0.1333,-0.1776,-0.2025,-0.2006,-0.1979,-0.1944,-0.1957,0.0,-0.178,-0.183,-0.1852,-0.188,-0.191,-0.1819,-0.1718,-0.1543,-0.1347,-0.1093,-0.0785,-0.0777,-0.1599,-0.3586,-0.4366,-0.4517,-0.4116,-0.447,-0.4419,-0.3942,-0.4483,-0.445,-0.3961,-0.3605,-0.3206,-0.2685,-0.3088,-0.2553,-0.1278,-0.0807,0.0067,0.101,-0.0067,-0.0806,-0.1477,-0.2887,-0.4164,-0.5106,-0.3964,-0.3696,-0.3697,5.7116,5.7462,5.7973,5.8348,5.8605,5.889,5.9287,5.9466,5.9673,6.0,5.9909,5.9734,5.9567,5.9666,5.9554,5.9151,5.8278,5.7212,5.5945,5.0347,4.6135,4.3954,4.1111,3.7604,3.3285,3.0711,2.7428,2.3399,1.9287,1.7207,1.7022,1.4415,1.4224,1.6131,1.5973,1.6118,1.6447,1.5759,1.5884,1.6452,1.6003,1.5674,1.5349,1.5349,1.4973,1.4338,1.4006,1.4338,1.4866,1.4534,1.46,1.4866,1.4539,1.3809,1.2483,0.9501,0.7574,0.6109,0.4708,0.4772,0.4768,0.2688,0.2136,0.1588,-0.0528,-0.1046,-0.1297,-0.1937,-0.2128,-0.2058,-0.2037,-0.2017,-0.2001,-0.1991,-0.1937,-0.1908,-0.1941,-0.1927,-0.1922,-0.1943,-0.1964,-0.1915,-0.1667,-0.159,-0.1456,-0.1086,-0.1433,-0.279,-0.5301,-0.6623,-0.6842,-0.5799,-0.679,-0.7331,-0.7271,-0.6649,-0.6146,-0.5704,-0.5233,-0.4696,-0.4293,-0.4763,-0.416,-0.2754,-0.2553,-0.1613,-0.0336,-0.1545,-0.235,-0.2954,-0.4434,-0.5579,-0.6319,-0.4839,-0.43,-0.41,5.6412,5.6713,5.7284,5.7886,5.8326,5.8566,5.8421,5.8735,5.9065,5.9269,5.9159,5.8896,5.843,5.8911,5.8953,5.8146,5.6967,5.5864,5.4853,4.7045,4.1341,3.8894,3.653,3.3645,3.0177,2.8578,2.4391,1.7302,1.7232,1.495,1.0666,1.0666,1.1208,1.2289,1.2289,1.3075,1.4381,1.4385,1.3927,1.3276,1.3276,1.2684,1.1828,1.1828,1.2421,1.3149,1.2157,1.3149,1.4735,1.3674,1.4006,1.4866,1.4469,1.2882,1.0833,0.9105,0.7507,0.6111,0.4708,0.3498,0.242,0.1344,0.1075,0.0536,-0.1586,-0.211,-0.2101,-0.2071,-0.2129,-0.2129,-0.2128,-0.2128,-0.2054,-0.2024,-0.2019,-0.2009,-0.1981,-0.1977,-0.1977,-0.1977,-0.1977,-0.1977,-0.1977,-0.2038,-0.1902,-0.1571,-0.2711,-0.4541,-0.6996,-0.8534,-0.938,-0.9518,-0.9657,-0.9525,-0.9117,-0.7276,-0.5624,-0.4361,-0.577,-0.5704,-0.4361,-0.577,-0.5637,-0.4293,-0.4293,-0.3892,-0.329,-0.4768,-0.497,-0.4435,-0.5915,-0.6453,-0.6319,-0.4839,-0.43,-0.41,5.5773,5.6447,5.7166,5.7333,5.7737,5.8127,5.8357,5.8426,5.8369,5.8147,5.7626,5.7207,5.701,5.6706,5.6381,5.6075,5.5052,5.1817,4.5759,4.0445,3.5613,3.1349,3.1815,3.1003,2.8624,2.3947,2.0108,1.7302,1.2187,0.9485,0.9131,0.7887,0.803,0.9371,1.0631,1.1428,1.182,1.2351,1.2417,1.2223,1.2223,1.2091,1.1828,1.1828,1.196,1.2223,1.1894,1.2618,1.3739,1.3411,1.4006,1.46,1.307,1.0621,0.8105,0.7307,0.6042,0.4842,0.4441,0.3498,0.242,0.1344,0.0538,-0.0403,-0.1875,-0.2141,-0.2138,-0.2196,-0.2194,-0.2187,-0.2099,-0.2095,-0.2086,-0.2055,-0.205,-0.2048,-0.2039,-0.2101,-0.203,-0.2008,-0.2006,-0.1998,-0.1978,-0.2811,-0.3343,-0.3301,-0.5488,-0.7022,-0.7428,-0.8921,-0.9673,-0.9521,-0.9657,-0.9661,-0.9525,-0.8681,-0.7946,-0.731,-0.7715,-0.7715,-0.731,-0.7781,-0.7178,-0.577,-0.577,-0.4765,-0.3223,-0.3692,-0.403,-0.4368,-0.4771,-0.5243,-0.558,-0.4637,-0.3966,-0.343,5.5051,5.5685,5.6392,5.662,5.7043,5.7391,5.7567,5.75,5.7365,5.7216,5.6577,5.6181,5.6255,5.5945,5.5435,5.4641,5.2076,4.7675,4.1009,3.6586,3.2342,2.8098,2.7072,2.5677,2.3757,2.0108,1.6493,1.2965,0.8426,0.634,0.6616,0.5427,0.5834,0.7641,0.8773,0.9703,1.0505,1.0969,1.1167,1.1167,1.1167,1.0902,1.0505,1.0505,1.077,1.1101,1.0704,1.1497,1.2618,1.2223,1.2483,1.2873,1.2076,0.9492,0.6708,0.6441,0.5106,0.3701,0.3701,0.2556,0.1278,0.0605,0.0,-0.0808,-0.1953,-0.2222,-0.2222,-0.2222,-0.2222,-0.2216,-0.2131,-0.2127,-0.2117,-0.2087,-0.2071,-0.206,-0.2048,-0.2036,-0.2022,-0.2004,-0.2002,-0.1999,-0.1994,-0.2702,-0.3608,-0.4772,-0.6938,-0.8398,-0.8753,-0.9684,-1.013,-0.9992,-1.0082,-1.006,-0.9927,-0.9655,-0.9319,-0.8787,-0.8653,-0.8587,-0.8587,-0.8587,-0.8117,-0.7245,-0.7245,-0.6374,-0.4902,-0.4902,-0.5037,-0.5175,-0.5175,-0.5243,-0.5314,-0.457,-0.3831,-0.3094,5.4186,5.45,5.5115,5.5724,5.6151,5.6377,5.6294,5.623,5.6242,5.6405,5.5922,5.5663,5.5898,5.6042,5.5302,5.3236,4.8047,4.3241,3.9348,3.4652,3.0657,2.7681,2.2624,1.886,1.6722,1.652,1.3155,0.64,0.5741,0.4818,0.3628,0.3291,0.4361,0.6637,0.684,0.8041,0.9842,0.9975,1.0044,1.0044,1.0044,0.9449,0.8587,0.8587,0.9183,0.9911,0.8984,0.9911,1.1497,1.0638,1.0233,1.029,1.1146,0.9094,0.6309,0.6243,0.4567,0.269,0.269,0.1143,-0.0471,-0.0471,-0.0606,-0.0942,-0.1953,-0.2222,-0.2221,-0.2218,-0.2218,-0.2217,-0.2214,-0.2213,-0.2204,-0.211,-0.2082,-0.2054,-0.2026,-0.2001,-0.1983,-0.1981,-0.198,-0.199,-0.2012,-0.212,-0.3361,-0.6102,-0.7446,-0.8813,-1.0412,-1.0504,-1.0575,-1.0714,-1.0721,-1.0522,-1.0256,-1.0193,-0.9854,-0.9117,-0.8787,-0.8653,-0.8587,-0.8587,-0.8587,-0.8587,-0.8587,-0.8189,-0.7526,-0.7526,-0.719,-0.6652,-0.6652,-0.625,-0.558,-0.4905,-0.4166,-0.3429,5.2671,5.313,5.3731,5.4257,5.4651,5.5009,5.5403,5.5789,5.5867,5.5335,5.5271,5.5107,5.4664,5.4221,5.2571,4.9132,4.261,3.7849,3.5998,3.1013,2.7133,2.4923,1.9928,1.5579,1.2099,1.0633,0.8804,0.64,0.3819,0.2353,0.2086,0.2555,0.3092,0.3695,0.5637,0.6775,0.731,0.8448,0.8917,0.8917,0.8917,0.8787,0.8587,0.8587,0.872,0.8917,0.8653,0.9446,1.0638,1.1233,1.0498,0.9299,0.8961,0.7372,0.5513,0.491,0.3765,0.269,0.269,0.1143,-0.0471,-0.0471,-0.1144,-0.1885,-0.2155,-0.2222,-0.2215,-0.2124,-0.2119,-0.2112,-0.2153,-0.2149,-0.2146,-0.2075,-0.2068,-0.2126,-0.2054,-0.2049,-0.2036,-0.2012,-0.2009,-0.2003,-0.1987,-0.3029,-0.4849,-0.7478,-0.8159,-0.9098,-1.0429,-1.0605,-1.0683,-1.0717,-1.0721,-1.0654,-1.0588,-1.0323,-0.9854,-0.9117,-0.905,-0.8851,-0.8587,-0.8587,-0.8587,-0.8587,-0.8587,-0.8189,-0.7526,-0.7526,-0.7588,-0.7646,-0.7646,-0.7579,-0.7445,-0.7243,-0.6571,-0.57,5.2787,5.3229,5.3697,5.3997,5.4287,5.4597,5.4863,5.4715,5.4451,5.4034,5.348,5.3105,5.3154,5.2505,5.0587,4.6897,4.0936,3.6332,3.3901,2.8568,2.4416,2.1936,1.6567,1.2372,0.9638,0.6728,0.4944,0.442,0.2351,0.1346,0.1346,0.1413,0.1749,0.2487,0.4497,0.577,0.651,0.7984,0.8587,0.8587,0.8587,0.8587,0.8587,0.8587,0.8587,0.8587,0.8587,0.8984,0.9579,1.0704,0.9836,0.8307,0.81,0.6773,0.5247,0.4508,0.3161,0.1949,0.1949,0.0336,-0.1279,-0.1279,-0.175,-0.2218,-0.2136,-0.2133,-0.2124,-0.2094,-0.2088,-0.2082,-0.2131,-0.2128,-0.2128,-0.2128,-0.2052,-0.2042,-0.2042,-0.2031,-0.2016,-0.2001,-0.1999,-0.1998,-0.1996,-0.3327,-0.4745,-0.617,-0.7634,-0.8821,-0.9539,-1.0277,-1.0721,-1.0721,-1.0721,-1.0721,-1.0721,-1.0522,-1.0057,-0.9389,-0.9183,-0.8984,-0.8851,-0.8653,-0.8587,-0.8587,-0.8587,-0.8189,-0.7526,-0.7526,-0.772,-0.7977,-0.7977,-0.7977,-0.7977,-0.7977,-0.7305,-0.6433,5.317,5.3515,5.3848,5.3911,5.4084,5.4254,5.433,5.3584,5.2984,5.2984,5.1948,5.1367,5.1943,5.0424,4.8137,4.508,4.0031,3.5569,3.2182,2.6722,2.2491,1.9853,1.3665,0.9704,0.853,0.4359,0.2155,0.2087,0.1414,0.1077,0.101,0.0337,0.0606,0.1815,0.3557,0.4964,0.6174,0.7848,0.8587,0.8587,0.8587,0.8587,0.8587,0.8587,0.8587,0.8587,0.8587,0.8587,0.872,0.9646,0.8845,0.7579,0.7836,0.6775,0.5247,0.4642,0.2891,0.1075,0.1075,-0.0538,-0.2222,-0.2222,-0.2218,-0.2139,-0.2108,-0.2106,-0.2099,-0.2063,-0.2056,-0.2054,-0.2114,-0.2113,-0.2113,-0.2113,-0.2028,-0.2011,-0.2011,-0.1991,-0.1978,-0.1983,-0.1988,-0.2003,-0.2031,-0.3051,-0.3885,-0.4291,-0.6657,-0.821,-0.8568,-0.9915,-1.0721,-1.0721,-1.0721,-1.0721,-1.0721,-1.0721,-1.0389,-0.9794,-0.9386,-0.912,-0.8984,-0.872,-0.8587,-0.8587,-0.8587,-0.8189,-0.7526,-0.7526,-0.772,-0.8043,-0.8176,-0.831,-0.8376,-0.8443,-0.7905,-0.7167,5.2207,5.2268,5.2399,5.2671,5.2671,5.2759,5.324,5.3117,5.2984,5.2984,5.2764,5.2471,5.2047,4.7137,4.3282,4.1815,3.6172,3.1856,2.9946,2.5048,2.1756,2.0843,1.3072,0.8726,0.853,0.4359,0.202,0.1683,0.1279,0.0942,0.0606,0.0202,0.0135,0.0404,0.3088,0.4427,0.4763,0.7445,0.8587,0.8587,0.8587,0.8587,0.8587,0.8587,0.8587,0.8587,0.8587,0.8587,0.8653,0.8787,0.8251,0.7514,0.7579,0.6581,0.5381,0.5247,0.3293,0.1075,0.1075,-0.0538,-0.2222,-0.2222,-0.2135,-0.2108,-0.2077,-0.2091,-0.2093,-0.2036,-0.2024,-0.2017,-0.1993,-0.1988,-0.1988,-0.1988,-0.1985,-0.1982,-0.1982,-0.1979,-0.1986,-0.2009,-0.2036,-0.2064,-0.2094,-0.2236,-0.2912,-0.4218,-0.5752,-0.7222,-0.8507,-0.9915,-1.0721,-1.0721,-1.0721,-1.0721,-1.0721,-1.0721,-1.0522,-1.0123,-0.9794,-0.9259,-0.8653,-0.8587,-0.8587,-0.8587,-0.8587,-0.8189,-0.7526,-0.7526,-0.772,-0.811,-0.9045,-0.9576,-0.9908,-1.025,-1.025,-1.0114,5.2806,5.3036,5.3146,5.2887,5.2968,5.3175,5.3391,5.2586,5.196,5.196,5.1092,5.0221,4.9418,4.5595,4.1839,3.8715,3.5429,3.1936,2.8253,2.4155,2.0866,1.85,1.2053,0.8138,0.7353,0.3758,0.1279,0.0067,0.074,0.0875,0.0471,0.0135,0.0,0.0067,0.215,0.3557,0.4427,0.6508,0.7851,0.8587,0.8587,0.8587,0.8587,0.8587,0.8587,0.8587,0.8587,0.8587,0.852,0.8117,0.7784,0.7381,0.6581,0.5915,0.518,0.4168,0.2554,0.0941,0.0336,-0.0942,-0.2222,-0.2222,-0.2131,-0.2101,-0.2071,-0.2061,-0.2046,-0.2004,-0.1995,-0.1991,-0.1979,-0.1977,-0.1977,-0.1977,-0.1977,-0.1982,-0.1998,-0.2,-0.2011,-0.204,-0.2071,-0.2095,-0.2108,-0.2125,-0.2407,-0.3093,-0.5166,-0.67,-0.7367,-0.951,-1.0721,-1.0721,-1.0721,-1.0721,-1.0721,-1.0721,-1.0522,-1.0193,-0.9861,-0.9392,-0.8853,-0.8653,-0.8587,-0.8587,-0.8587,-0.8189,-0.7526,-0.7526,-0.772,-0.811,-0.9178,-1.0177,-1.1045,-1.0784,-1.0721,-1.0721]}]]